Date StartTime U_cm/s V_cm/s W_cm/s Ustd_cm/s Vstd_cm/s Wstd_cm/s Uvar_(cm/s)^2 Vvar_(cm/s)^2 Wvar_(cm/s)^2 KE_(m/s)^2 TurbulentKE_(m/s)^2 HorizWindSpeed_cm/s FrictionSpeec_cm/s DragCoef SpeedOfSound_m/s SonicTemperature_C Pressure_mb 
01/22/2015  00:00:00      -77.577      -35.736        0.478       37.115       19.487       15.107     1377.521      379.749      228.219        0.464        0.099       85.412       15.554        0.033      331.367       -0.664      869.240
01/22/2015  00:01:00      -99.012      -33.490       -1.926       24.809       21.299       14.035      615.481      453.657      196.988        0.610        0.063      104.523       10.268        0.010      331.361       -0.674      869.236
01/22/2015  00:02:00      -97.193      -20.932       -2.720       30.616       25.077       14.452      937.327      628.855      208.846        0.583        0.089       99.422       12.838        0.017      331.387       -0.631      869.219
01/22/2015  00:03:00     -126.493      -49.596       -7.109       17.489       14.025       12.732      305.881      196.690      162.101        0.959        0.033      135.868        9.894        0.005      331.391       -0.625      869.204
01/22/2015  00:04:00     -107.327      -31.076       -4.826       28.116       21.938       18.170      790.506      481.284      330.167        0.705        0.080      111.735       16.619        0.022      331.324       -0.735      869.206
01/22/2015  00:05:00     -138.872      -37.543      -13.496       18.074       17.488       15.039      326.662      305.819      226.169        1.087        0.043      143.857        9.836        0.005      331.345       -0.701      869.204
01/22/2015  00:06:00     -127.977      -29.945      -12.337       21.039       21.583       19.325      442.650      465.835      373.442        0.935        0.064      131.433       15.577        0.014      331.255       -0.848      869.197
01/22/2015  00:07:00     -117.875      -40.716      -10.927       12.716       17.988       11.096      161.695      323.585      123.114        0.814        0.030      124.709        6.506        0.003      331.181       -0.969      869.193
01/22/2015  00:08:00     -114.982      -36.775      -10.435       19.297       20.216       12.049      372.377      408.677      145.172        0.780        0.046      120.720        9.462        0.006      331.179       -0.971      869.191
01/22/2015  00:09:00     -120.284      -24.217      -20.017       18.899       23.219       14.202      357.156      539.139      201.690        0.828        0.055      122.698        9.961        0.007      331.243       -0.867      869.197
01/22/2015  00:10:00     -108.903      -48.447       -7.172       27.819       25.869       16.826      773.909      669.226      283.116        0.799        0.086      119.193       11.681        0.010      331.213       -0.917      869.191
01/22/2015  00:11:00      -96.341      -44.631      -12.251       33.928       27.134       20.489     1151.123      736.241      419.780        0.686        0.115      106.177       16.914        0.025      331.251       -0.854      869.181
01/22/2015  00:12:00     -114.315      -42.170      -12.638       34.404       33.540       17.056     1183.608     1124.944      290.906        0.880        0.130      121.845       16.819        0.019      331.217       -0.910      869.175
01/22/2015  00:13:00     -107.351      -34.289       -8.029       35.641       26.547       16.942     1270.279      704.723      287.035        0.751        0.113      112.694       12.500        0.012      331.192       -0.951      869.181
01/22/2015  00:14:00      -92.417      -27.463       -6.959       21.772       25.869       14.075      474.009      669.225      198.103        0.534        0.067       96.412        8.525        0.008      331.133       -1.049      869.178
01/22/2015  00:15:00      -94.659      -34.302      -13.827       25.532       19.538       13.818      651.898      381.740      190.939        0.578        0.061      100.682        8.656        0.007      331.262       -0.836      869.171
01/22/2015  00:16:00     -101.130      -35.903       -9.198       20.922       18.383       17.050      437.726      337.952      290.716        0.633        0.053      107.314       11.174        0.011      331.250       -0.857      869.158
01/22/2015  00:17:00     -123.580      -13.963      -14.974       26.876       17.284       16.275      722.326      298.740      264.877        0.849        0.064      124.366       11.034        0.008      331.196       -0.946      869.147
01/22/2015  00:18:00     -121.636      -14.932      -16.516       25.610       22.784       16.094      655.884      519.096      259.025        0.836        0.072      122.549        7.683        0.004      331.155       -1.013      869.130
01/22/2015  00:19:00     -115.030       -7.022      -13.973       19.475       16.716       15.550      379.284      279.432      241.788        0.719        0.045      115.244        5.142        0.002      331.135       -1.045      869.124
01/22/2015  00:20:00     -113.464      -30.417      -12.307       26.673       20.961       16.720      711.431      439.375      279.550        0.769        0.072      117.470       14.351        0.015      331.174       -0.980      869.121
01/22/2015  00:21:00      -86.979      -25.359       -8.079       19.904       25.580       16.114      396.169      654.315      259.659        0.479        0.066       90.601       11.466        0.016      331.200       -0.938      869.124
01/22/2015  00:22:00      -85.337      -16.248      -16.044       21.131       18.785       13.498      446.512      352.887      182.209        0.439        0.049       86.870       11.842        0.019      331.205       -0.930      869.123
01/22/2015  00:23:00     -106.753      -14.593      -14.972       17.673       16.978       14.246      312.343      288.250      202.937        0.632        0.040      107.746        9.027        0.007      331.185       -0.962      869.119
01/22/2015  00:24:00      -92.606      -22.078      -10.208       13.284       13.113       10.642      176.477      171.940      113.252        0.481        0.023       95.201        4.994        0.003      331.150       -1.019      869.104
01/22/2015  00:25:00      -93.179      -26.576      -18.979       17.659       18.241       11.734      311.845      332.716      137.676        0.527        0.039       96.895        7.973        0.007      331.185       -0.962      869.094
01/22/2015  00:26:00      -82.599      -34.106      -14.073       16.074       20.586       12.316      258.381      423.783      151.680        0.451        0.042       89.363       10.638        0.014      331.198       -0.941      869.087
01/22/2015  00:27:00      -87.835      -38.683      -10.788       15.176       12.857        9.944      230.297      165.291       98.886        0.491        0.025       95.976        5.744        0.004      331.127       -1.057      869.067
01/22/2015  00:28:00      -85.528      -35.961      -17.627       17.033       20.223       13.102      290.126      408.953      171.654        0.489        0.044       92.781        8.172        0.008      331.206       -0.928      869.047
01/22/2015  00:29:00     -117.019      -36.964      -15.488       16.198       19.710       11.859      262.380      388.478      140.625        0.805        0.040      122.719        8.035        0.004      331.090       -1.120      869.035
01/22/2015  00:30:00     -122.719      -41.877      -14.574       16.687       16.172       12.085      278.465      261.520      146.044        0.886        0.034      129.667       10.001        0.006      331.136       -1.044      869.038
01/22/2015  00:31:00     -107.094      -38.329      -10.094       17.670       16.791       15.184      312.237      281.946      230.541        0.693        0.041      113.747        8.466        0.006      331.162       -1.001      869.050
01/22/2015  00:32:00     -119.980      -34.480       -9.429       14.884       17.970        9.145      221.546      322.932       83.632        0.815        0.031      124.836        7.737        0.004      331.163       -0.998      869.057
01/22/2015  00:33:00     -106.967      -19.680      -15.391       10.420       12.063       11.586      108.575      145.524      134.229        0.623        0.019      108.763        5.541        0.003      331.229       -0.891      869.064
01/22/2015  00:34:00     -102.348      -28.047       -7.134       22.249       16.204       13.315      495.021      262.570      177.287        0.612        0.047      106.121       12.435        0.014      331.202       -0.935      869.068
01/22/2015  00:35:00     -113.651      -32.358      -10.661       25.829       20.936       15.486      667.124      438.307      239.806        0.771        0.067      118.168       12.646        0.011      331.223       -0.901      869.082
01/22/2015  00:36:00     -119.421      -15.750      -12.645       19.479       18.454       11.795      379.432      340.567      139.122        0.776        0.043      120.455        8.891        0.005      331.165       -0.995      869.086
01/22/2015  00:37:00     -116.593      -17.158      -14.610       17.355       15.238       12.119      301.195      232.194      146.876        0.739        0.034      117.849       10.567        0.008      331.105       -1.093      869.077
01/22/2015  00:38:00      -95.200      -17.924      -14.972        9.546       10.977       11.087       91.122      120.495      122.911        0.497        0.017       96.873        6.654        0.005      331.132       -1.049      869.071
01/22/2015  00:39:00      -97.517       -6.033      -16.178        9.830        7.501        8.529       96.633       56.262       72.745        0.502        0.011       97.703        1.364        0.000      331.128       -1.057      869.074
01/22/2015  00:40:00      -92.975      -17.264      -11.568       12.564       11.082       11.322      157.864      122.819      128.199        0.474        0.020       94.564        7.790        0.007      331.109       -1.089      869.069
01/22/2015  00:41:00      -95.447      -30.078      -18.046       19.797       16.549       10.709      391.910      273.861      114.692        0.556        0.039      100.074        5.716        0.003      331.047       -1.191      869.055
01/22/2015  00:42:00     -112.042      -49.181      -16.681       12.496       18.042        9.816      156.154      325.506       96.359        0.791        0.029      122.360        6.235        0.003      330.956       -1.337      869.055
01/22/2015  00:43:00     -114.370      -45.635      -16.566       19.504       18.287       15.697      380.407      334.407      246.403        0.820        0.048      123.138        8.776        0.005      330.921       -1.395      869.048
01/22/2015  00:44:00     -109.059      -53.217      -15.030       16.516       16.349       11.592      272.773      267.297      134.378        0.781        0.034      121.350        7.653        0.004      330.938       -1.369      869.040
01/22/2015  00:45:00      -88.118      -29.183      -14.179       17.812       22.411       12.369      317.258      502.272      152.995        0.489        0.049       92.825        5.765        0.004      330.938       -1.369      869.026
01/22/2015  00:46:00      -74.605      -28.583       -8.951       16.855       14.806       10.928      284.100      219.214      119.415        0.354        0.031       79.893        8.721        0.012      330.898       -1.432      869.016
01/22/2015  00:47:00     -101.732      -13.721      -14.503       17.981       15.978       15.874      323.307      255.295      251.988        0.579        0.042      102.653        8.701        0.007      330.854       -1.507      869.001
01/22/2015  00:48:00     -106.918      -15.632      -12.889       20.160       15.278       13.904      406.422      233.419      193.311        0.634        0.042      108.055       12.019        0.012      330.897       -1.434      868.994
01/22/2015  00:49:00      -99.788       -9.544      -17.820       18.504       23.798       12.376      342.399      566.366      153.158        0.571        0.053      100.244       11.994        0.014      330.903       -1.425      868.983
01/22/2015  00:50:00      -73.880       -8.875       -8.188       31.509       19.302       12.746      992.808      372.551      162.473        0.357        0.076       74.412        9.581        0.017      331.036       -1.208      868.979
01/22/2015  00:51:00      -45.777       -6.017       -9.405       12.875       16.115        7.050      165.759      259.697       49.700        0.135        0.024       46.171        5.579        0.015      331.118       -1.075      868.967
01/22/2015  00:52:00      -21.751      -15.300       -5.902        7.769        8.788        7.624       60.356       77.227       58.119        0.047        0.010       26.593        4.464        0.028      331.170       -0.986      868.954
01/22/2015  00:53:00      -29.386      -11.730       -7.395        8.698        9.499        7.393       75.655       90.238       54.663        0.064        0.011       31.640        6.024        0.036      331.200       -0.939      868.951
01/22/2015  00:54:00      -46.330       -8.661       -8.580        7.256        8.968        6.562       52.653       80.433       43.055        0.124        0.009       47.132        4.492        0.009      331.178       -0.974      868.958
01/22/2015  00:55:00      -43.462       -7.517       -7.195        8.050        8.919        6.309       64.806       79.548       39.801        0.109        0.009       44.107        2.998        0.005      331.293       -0.785      868.970
01/22/2015  00:56:00      -62.151      -19.230       -7.396       16.662       12.935        8.019      277.632      167.321       64.303        0.240        0.025       65.058        7.213        0.012      331.123       -1.065      868.970
01/22/2015  00:57:00      -81.659      -42.318      -10.126       14.420       13.456       12.288      207.946      181.062      150.988        0.455        0.027       91.973        6.506        0.005      331.038       -1.204      868.974
01/22/2015  00:58:00     -100.003      -46.432      -18.199       10.737       13.712        9.877      115.293      188.005       97.556        0.644        0.020      110.257        8.218        0.006      330.977       -1.304      868.962
01/22/2015  00:59:00     -109.403      -22.826      -15.062       11.493       16.299        9.114      132.091      265.652       83.058        0.660        0.024      111.759        3.452        0.001      330.999       -1.269      868.948
01/22/2015  01:00:00      -88.819      -11.647      -13.477       13.189       11.758       10.537      173.957      138.244      111.032        0.431        0.021       89.579        3.451        0.001      331.019       -1.237      868.936
01/22/2015  01:01:00      -79.015      -23.598       -8.342        8.382        9.655       11.097       70.259       93.217      123.144        0.358        0.014       82.464        5.487        0.004      331.070       -1.152      868.932
01/22/2015  01:02:00      -80.337      -24.145      -14.060       12.990        8.871        8.844      168.730       78.691       78.216        0.378        0.016       83.887        8.734        0.011      331.000       -1.268      868.923
01/22/2015  01:03:00      -91.636      -32.067      -14.405        9.183       10.545        9.002       84.332      111.199       81.031        0.495        0.014       97.084        5.401        0.003      330.997       -1.272      868.913
01/22/2015  01:04:00      -97.416      -29.925      -14.319       17.230       15.204       10.628      296.889      231.177      112.963        0.562        0.032      101.909        8.757        0.007      331.021       -1.232      868.908
01/22/2015  01:05:00     -112.001      -32.840      -14.603       13.787       18.347       10.006      190.082      336.605      100.114        0.723        0.031      116.717        4.199        0.001      331.080       -1.136      868.904
01/22/2015  01:06:00      -96.302      -27.808       -8.047       12.263       18.784       11.986      150.373      352.841      143.672        0.538        0.032      100.237        6.839        0.005      331.008       -1.255      868.906
01/22/2015  01:07:00     -104.045      -14.822      -19.329        8.015        9.259        7.455       64.242       85.737       55.583        0.581        0.010      105.095        3.592        0.001      331.042       -1.198      868.901
01/22/2015  01:08:00     -105.645      -16.927      -18.492       12.741       12.665        7.713      162.333      160.413       59.496        0.609        0.019      106.992        3.364        0.001      331.072       -1.149      868.903
01/22/2015  01:09:00     -103.852       -6.780      -17.255       13.768       12.643       10.794      189.551      159.854      116.506        0.580        0.023      104.073        4.173        0.002      331.072       -1.149      868.904
01/22/2015  01:10:00      -96.789      -31.602      -11.579        9.838        7.814        6.904       96.780       61.051       47.669        0.535        0.010      101.818        4.013        0.002      330.921       -1.396      868.895
01/22/2015  01:11:00      -70.523      -38.193      -10.409       24.624       16.889       14.921      606.318      285.234      222.622        0.383        0.056       80.201        8.600        0.011      330.935       -1.373      868.896
01/22/2015  01:12:00      -79.393      -29.862       -8.428       15.033       15.633       12.173      226.001      244.392      148.172        0.394        0.031       84.823        7.687        0.008      330.875       -1.473      868.895
01/22/2015  01:13:00      -74.876      -15.698      -10.430       20.655       23.885       11.405      426.624      570.500      130.068        0.354        0.056       76.504       11.921        0.024      330.845       -1.521      868.895
01/22/2015  01:14:00      -71.858       -8.616      -11.849       19.746       19.162       12.828      389.921      367.194      164.559        0.315        0.046       72.373        5.974        0.007      330.811       -1.578      868.900
01/22/2015  01:15:00      -60.116      -17.154      -14.826       17.889       16.346       12.182      320.002      267.207      148.398        0.243        0.037       62.516       10.240        0.027      330.899       -1.433      868.898
01/22/2015  01:16:00      -83.278      -10.396      -15.106       16.675       10.939       10.279      278.061      119.669      105.659        0.389        0.025       83.924        5.851        0.005      330.817       -1.568      868.896
01/22/2015  01:17:00      -74.962      -22.370      -10.960        9.360       11.714        7.959       87.615      137.230       63.338        0.326        0.014       78.228        4.950        0.004      330.796       -1.602      868.898
01/22/2015  01:18:00      -69.240      -30.363      -12.254        9.465        9.931        6.091       89.591       98.626       37.104        0.305        0.011       75.604        4.436        0.003      330.836       -1.537      868.897
01/22/2015  01:19:00      -53.434      -30.791       -2.749       22.685       21.214       17.062      514.625      450.025      291.095        0.253        0.063       61.671       12.797        0.043      330.773       -1.640      868.896
01/22/2015  01:20:00      -75.089      -21.465      -10.212       20.149       18.329       13.414      406.001      335.958      179.943        0.356        0.046       78.097       12.947        0.027      330.795       -1.605      868.895
01/22/2015  01:21:00      -73.374       -4.335      -13.321       16.570       11.271        9.835      274.569      127.042       96.728        0.304        0.025       73.502        6.824        0.009      330.794       -1.606      868.891
01/22/2015  01:22:00      -52.128      -24.807       -7.760       14.417       13.098        9.573      207.845      171.568       91.641        0.193        0.024       57.730        5.747        0.010      330.812       -1.575      868.889
01/22/2015  01:23:00      -61.740      -22.823      -13.672       10.877       15.369       11.348      118.310      236.217      128.782        0.250        0.024       65.824        9.966        0.023      330.838       -1.531      868.874
01/22/2015  01:24:00      -53.334      -27.503       -5.999       22.830       18.566       17.588      521.196      344.695      309.352        0.241        0.059       60.008       13.449        0.050      330.833       -1.541      868.853
01/22/2015  01:25:00      -77.856      -18.855      -12.938       14.833       13.483       11.724      220.032      181.780      137.457        0.356        0.027       80.107        8.923        0.012      330.789       -1.613      868.847
01/22/2015  01:26:00      -94.411      -11.510      -18.214       14.201       11.602        8.445      201.675      134.605       71.322        0.489        0.020       95.110        4.298        0.002      330.791       -1.610      868.855
01/22/2015  01:27:00      -92.527      -10.027      -13.167       28.877       18.748       14.448      833.908      351.482      208.737        0.511        0.070       93.069       11.827        0.016      330.792       -1.609      868.871
01/22/2015  01:28:00     -109.044      -13.707      -15.857       26.321       15.195       16.476      692.817      230.876      271.469        0.676        0.060      109.902       15.433        0.020      330.751       -1.677      868.874
01/22/2015  01:29:00      -74.517      -18.783      -10.991       26.476       19.750       12.783      700.953      390.049      163.417        0.364        0.063       76.848       12.315        0.026      330.750       -1.676      868.884
01/22/2015  01:30:00      -93.128      -36.475      -17.585       18.114       19.681       13.325      328.107      387.346      177.552        0.560        0.045      100.016       11.638        0.014      330.760       -1.660      868.891
01/22/2015  01:31:00     -113.941      -55.851      -16.316       20.832       18.555       12.157      433.961      344.297      147.787        0.865        0.046      126.893        8.476        0.004      330.692       -1.772      868.890
01/22/2015  01:32:00     -130.236      -47.005      -16.206       14.688       13.213       12.669      215.745      174.587      160.507        0.999        0.028      138.459        7.622        0.003      330.721       -1.724      868.897
01/22/2015  01:33:00     -125.138      -27.493      -17.073       18.701       12.945       14.194      349.719      167.584      201.472        0.871        0.036      128.122        9.557        0.006      330.817       -1.567      868.905
01/22/2015  01:34:00     -110.619      -26.698       -7.634        9.189       13.744        9.099       84.432      188.897       82.789        0.668        0.018      113.795        5.293        0.002      330.863       -1.491      868.910
01/22/2015  01:35:00     -120.609      -21.517      -12.753       12.932       10.978        7.885      167.227      120.515       62.166        0.776        0.017      122.513        3.836        0.001      330.896       -1.436      868.911
01/22/2015  01:36:00     -124.041      -23.199      -16.356       10.598       10.731        7.374      112.317      115.153       54.379        0.824        0.014      126.192        5.192        0.002      330.862       -1.493      868.915
01/22/2015  01:37:00     -123.420      -19.053      -13.361       11.160       11.772        8.877      124.551      138.590       78.797        0.806        0.017      124.882        4.933        0.002      330.788       -1.614      868.917
01/22/2015  01:38:00     -121.258      -17.420      -13.117       16.806       14.011       12.564      282.450      196.295      157.852        0.791        0.032      122.503        9.697        0.006      330.808       -1.581      868.925
01/22/2015  01:39:00     -108.373      -17.327      -13.801       12.726        9.910        8.487      161.939       98.215       72.027        0.628        0.017      109.750        4.959        0.002      330.791       -1.611      868.929
01/22/2015  01:40:00      -70.489      -10.683       -8.024       36.820       22.010       13.695     1355.727      484.441      187.559        0.359        0.101       71.293       19.979        0.079      330.816       -1.570      868.931
01/22/2015  01:41:00      -72.651      -17.847       -7.221       33.059       17.501       13.293     1092.865      306.275      176.703        0.361        0.079       74.811       12.118        0.026      330.791       -1.610      868.936
01/22/2015  01:42:00     -100.927      -41.910      -14.834       15.809       18.488       11.636      249.929      341.809      135.394        0.644        0.036      109.283        6.647        0.004      330.717       -1.732      868.945
01/22/2015  01:43:00      -92.442      -43.618      -10.814       20.502       28.708       14.166      420.322      824.140      200.682        0.600        0.072      102.216        6.910        0.005      330.724       -1.720      868.955
01/22/2015  01:44:00     -122.477      -16.275      -15.602       12.885       10.161       10.582      166.012      103.242      111.977        0.794        0.019      123.553        4.392        0.001      330.757       -1.667      868.971
01/22/2015  01:45:00     -113.097      -18.848      -11.506       17.687        9.545       10.888      312.835       91.104      118.556        0.690        0.026      114.657        9.008        0.006      330.757       -1.667      868.981
01/22/2015  01:46:00     -121.836      -32.307      -13.913       10.720       11.140        9.458      114.923      124.100       89.456        0.820        0.016      126.047        7.201        0.003      330.788       -1.617      868.988
01/22/2015  01:47:00     -110.868      -51.617      -10.359       15.050       13.998       13.685      226.510      195.951      187.292        0.784        0.030      122.295        6.631        0.003      330.794       -1.605      868.997
01/22/2015  01:48:00      -98.605      -46.072       -9.489       13.870       11.377       12.463      192.366      129.438      155.323        0.621        0.024      108.837        8.499        0.006      330.729       -1.712      868.996
01/22/2015  01:49:00      -97.975      -28.843      -10.051       14.377       19.775       15.041      206.700      391.070      226.245        0.568        0.041      102.132       10.754        0.011      330.729       -1.711      868.988
01/22/2015  01:50:00      -91.821      -20.114      -11.402       20.985       15.630       16.083      440.355      244.297      258.659        0.495        0.047       93.998       14.407        0.023      330.702       -1.755      868.993
01/22/2015  01:51:00      -96.338      -15.773       -7.635       22.516       12.292       12.509      506.962      151.082      156.479        0.520        0.041       97.621        9.325        0.009      330.778       -1.633      868.998
01/22/2015  01:52:00      -98.047       -9.871      -10.093       18.560       12.743       12.775      344.482      162.385      163.195        0.524        0.034       98.543       10.538        0.011      330.784       -1.620      868.996
01/22/2015  01:53:00     -112.527      -28.818       -8.805       15.874       15.340        9.065      251.976      235.330       82.166        0.707        0.028      116.159        4.119        0.001      330.779       -1.630      868.998
01/22/2015  01:54:00     -108.434      -32.835       -6.531       14.721       15.767       11.682      216.704      248.597      136.462        0.674        0.030      113.297        8.121        0.005      330.790       -1.612      868.993
01/22/2015  01:55:00     -100.658      -44.507      -11.343       11.790       13.054       11.247      139.013      170.420      126.501        0.634        0.022      110.058        6.688        0.004      330.737       -1.700      868.996
01/22/2015  01:56:00      -87.457      -42.212      -11.769       11.338       14.566        7.365      128.544      212.167       54.249        0.498        0.020       97.111        5.955        0.004      330.764       -1.655      868.998
01/22/2015  01:57:00     -104.987      -35.679      -17.861        9.540       16.539        9.216       91.013      273.543       84.926        0.653        0.022      110.884        7.193        0.004      330.747       -1.682      868.998
01/22/2015  01:58:00     -100.008      -38.056      -17.142       11.854       21.387       10.690      140.508      457.394      114.283        0.623        0.036      107.004        3.501        0.001      330.698       -1.762      869.003
01/22/2015  01:59:00     -101.723      -32.679      -15.723       14.262       13.712       11.355      203.405      188.014      128.944        0.609        0.026      106.843        7.397        0.005      330.689       -1.777      869.000
01/22/2015  02:00:00      -97.583      -49.848       -5.576       21.576       27.799       18.546      465.523      772.762      343.938        0.681        0.079      109.577       10.602        0.009      330.660       -1.825      869.001
01/22/2015  02:01:00      -97.015      -34.987      -14.811       35.178       26.837       17.440     1237.472      720.202      304.156        0.656        0.113      103.131       17.962        0.030      330.630       -1.874      869.008
01/22/2015  02:02:00      -95.146      -44.783      -13.474       25.158       25.338       14.700      632.935      642.001      216.094        0.637        0.075      105.158       12.884        0.015      330.571       -1.970      869.004
01/22/2015  02:03:00      -42.508      -33.366       -5.614       35.501       24.682       23.395     1260.352      609.196      547.304        0.268        0.121       54.039       16.515        0.093      330.632       -1.871      869.007
01/22/2015  02:04:00      -90.276      -39.448      -15.775       24.858       18.521       19.702      617.903      343.039      388.172        0.565        0.067       98.519       13.000        0.017      330.573       -1.967      869.006
01/22/2015  02:05:00      -73.755      -35.138      -17.547       22.701       21.279       17.799      515.355      452.805      316.804        0.413        0.064       81.697       14.472        0.031      330.629       -1.877      869.006
01/22/2015  02:06:00      -62.795      -32.716       -3.610       24.465       21.201       17.169      598.547      449.478      294.770        0.318        0.067       70.806       12.400        0.031      330.620       -1.891      868.999
01/22/2015  02:07:00     -103.291      -14.516      -11.637       21.245       17.524       15.894      451.338      307.094      252.616        0.601        0.051      104.306       13.350        0.016      330.593       -1.935      869.001
01/22/2015  02:08:00     -106.346      -23.474      -14.415       21.216       21.249       16.663      450.105      451.509      277.645        0.662        0.059      108.906       13.211        0.015      330.596       -1.930      868.995
01/22/2015  02:09:00      -96.873      -28.723       -7.390       19.387       26.171       16.204      375.860      684.922      262.569        0.579        0.066      101.041       14.977        0.022      330.652       -1.837      868.992
01/22/2015  02:10:00      -88.307      -30.284      -10.512       27.457       23.410       20.213      753.891      548.019      408.548        0.527        0.086       93.355       17.616        0.036      330.602       -1.920      868.990
01/22/2015  02:11:00      -96.081      -25.458      -17.719       22.109       23.018       13.156      488.810      529.810      173.079        0.569        0.060       99.396        7.753        0.006      330.578       -1.958      868.987
01/22/2015  02:12:00      -55.885      -33.409       -6.125       28.378       27.148       17.237      805.286      737.021      297.105        0.306        0.092       65.110       13.097        0.040      330.685       -1.784      869.005
01/22/2015  02:13:00      -80.273      -26.553      -12.057       23.519       15.786       11.683      553.165      249.203      136.489        0.412        0.047       84.551        7.752        0.008      330.645       -1.849      869.005
01/22/2015  02:14:00      -92.574      -46.968      -17.102       17.869       22.216       12.302      319.318      493.562      151.342        0.602        0.048      103.807        9.664        0.009      330.633       -1.869      869.008
01/22/2015  02:15:00     -113.280      -33.957      -12.528       11.762       19.242       11.210      138.335      370.246      125.671        0.739        0.032      118.260        6.921        0.003      330.614       -1.901      869.016
01/22/2015  02:16:00     -119.483      -22.433      -19.792       21.016       17.657       17.545      441.660      311.761      307.841        0.812        0.053      121.570        2.258        0.000      330.556       -1.995      869.026
01/22/2015  02:17:00     -111.434      -31.571       -9.759       26.293       23.232       16.932      691.340      539.716      286.700        0.751        0.076      115.819       13.277        0.013      330.546       -2.012      869.042
01/22/2015  02:18:00     -100.332      -24.765       -9.030       27.734       20.612       12.822      769.148      424.850      164.413        0.606        0.068      103.343       10.185        0.010      330.480       -2.122      869.053
01/22/2015  02:19:00      -84.202      -20.532       -8.819       20.057       17.541       13.445      402.295      307.683      180.768        0.424        0.045       86.669        8.273        0.009      330.562       -1.985      869.053
01/22/2015  02:20:00      -81.694      -21.518      -10.996       13.573       16.788       11.607      184.233      281.835      134.729        0.393        0.030       84.480        3.155        0.001      330.610       -1.906      869.047
01/22/2015  02:21:00      -73.430      -25.055       -8.183       14.411       15.501       11.698      207.664      240.291      136.844        0.334        0.029       77.587        7.945        0.010      330.633       -1.868      869.048
01/22/2015  02:22:00      -70.163      -24.960      -12.342       17.162       16.768       11.139      294.547      281.172      124.082        0.320        0.035       74.470        5.321        0.005      330.657       -1.830      869.046
01/22/2015  02:23:00      -84.491      -27.447      -15.701       16.102       15.145       10.070      259.288      229.369      101.403        0.436        0.030       88.837        8.016        0.008      330.640       -1.858      869.051
01/22/2015  02:24:00      -76.736      -37.266      -23.216       14.365       17.991        9.214      206.340      323.663       84.904        0.422        0.031       85.307        6.436        0.006      330.629       -1.877      869.038
01/22/2015  02:25:00      -73.995      -35.805       -8.137       23.337       18.379       16.493      544.615      337.776      272.015        0.399        0.058       82.202       11.278        0.019      330.632       -1.872      869.027
01/22/2015  02:26:00      -64.178      -34.379       -6.845       22.278       18.883       17.525      496.290      356.550      307.139        0.325        0.058       72.806        8.666        0.014      330.638       -1.861      869.027
01/22/2015  02:27:00      -94.683      -32.159      -18.702       16.944       18.104       13.768      287.083      327.762      189.567        0.558        0.040       99.995        3.829        0.001      330.660       -1.825      869.022
01/22/2015  02:28:00      -91.299      -28.979      -20.159       12.377       14.141       11.119      153.181      199.971      123.629        0.503        0.024       95.788        7.943        0.007      330.653       -1.837      869.030
01/22/2015  02:29:00      -82.125      -42.391      -16.580       18.631       16.812       16.528      347.124      282.651      273.181        0.486        0.045       92.421        8.814        0.009      330.622       -1.887      869.037
01/22/2015  02:30:00     -103.118      -35.354      -13.367       18.306       16.417       15.516      335.103      269.514      240.760        0.645        0.042      109.010        9.430        0.007      330.624       -1.883      869.043
01/22/2015  02:31:00     -107.265      -24.184      -19.175       20.260       19.499       14.437      410.456      380.197      208.425        0.673        0.050      109.957       10.763        0.010      330.567       -1.977      869.047
01/22/2015  02:32:00      -89.884      -52.570      -18.435       26.083       21.536       16.679      680.308      463.794      278.190        0.630        0.071      104.129       15.415        0.022      330.527       -2.043      869.048
01/22/2015  02:33:00     -100.509      -43.318      -22.470       29.353       19.526       15.769      861.571      381.255      248.676        0.699        0.075      109.446       14.033        0.016      330.553       -2.001      869.044
01/22/2015  02:34:00      -98.976      -36.935      -19.739       30.855       27.694       18.590      952.005      766.970      345.586        0.681        0.103      105.643       17.026        0.026      330.491       -2.103      869.048
01/22/2015  02:35:00      -66.861      -61.470      -12.877       27.510       25.083       20.258      756.776      629.164      410.389        0.511        0.090       90.824       16.252        0.032      330.551       -2.003      869.053
01/22/2015  02:36:00      -59.626      -39.529       -4.660       20.633       26.810       15.547      425.733      718.783      241.719        0.326        0.069       71.538       14.420        0.041      330.580       -1.956      869.070
01/22/2015  02:37:00      -89.036        0.176       -9.043       16.143       24.686       21.623      260.590      609.392      467.564        0.467        0.067       89.036        9.553        0.012      330.600       -1.921      869.084
01/22/2015  02:38:00     -101.894      -32.124      -17.849       18.896       13.843       12.798      357.074      191.633      163.799        0.622        0.036      106.838       10.574        0.010      330.569       -1.974      869.088
01/22/2015  02:39:00     -107.727      -29.379       -4.902       19.659       14.463       10.964      386.478      209.184      120.207        0.660        0.036      111.662        7.855        0.005      330.565       -1.980      869.094
01/22/2015  02:40:00     -108.949      -24.350       -8.503       12.836       17.966       11.102      164.768      322.778      123.245        0.657        0.031      111.637        8.102        0.005      330.670       -1.809      869.090
01/22/2015  02:41:00     -114.631      -19.268      -11.482       14.027       12.953       10.076      196.746      167.773      101.518        0.705        0.023      116.239        7.490        0.004      330.753       -1.674      869.084
01/22/2015  02:42:00     -127.543      -41.580       -8.130       18.825       17.355       13.326      354.363      301.180      177.590        0.945        0.042      134.150        9.758        0.005      330.760       -1.663      869.082
01/22/2015  02:43:00      -98.382      -38.255        4.210       32.156       19.158       16.895     1034.015      367.030      285.457        0.642        0.084      105.558       18.858        0.032      330.773       -1.640      869.086
01/22/2015  02:44:00      -65.706      -44.934        5.008       34.424       24.726       18.967     1185.042      611.355      359.762        0.426        0.108       79.601       10.971        0.019      330.729       -1.711      869.103
01/22/2015  02:45:00      -83.777      -63.200      -11.689       30.254       23.055       17.869      915.316      531.527      319.306        0.646        0.088      104.942       11.404        0.012      330.715       -1.734      869.110
01/22/2015  02:46:00      -72.400      -50.138       -4.484       28.647       28.623       20.268      820.654      819.256      410.806        0.491        0.103       88.065       18.701        0.045      330.666       -1.815      869.112
01/22/2015  02:47:00      -69.533      -51.138      -15.068       31.388       21.974       12.101      985.179      482.868      146.446        0.465        0.081       86.313        6.287        0.005      330.665       -1.816      869.104
01/22/2015  02:48:00      -96.028      -25.917      -12.372       16.766       12.787       10.447      281.100      163.513      109.139        0.530        0.028       99.464        4.688        0.002      330.597       -1.929      869.103
01/22/2015  02:49:00     -107.056      -42.736       -5.102       14.958       10.857       12.490      223.728      117.878      155.996        0.691        0.025      115.271        8.826        0.006      330.642       -1.856      869.103
01/22/2015  02:50:00     -103.964      -45.403       -9.099       11.414       19.259       12.414      130.287      370.917      154.110        0.680        0.033      113.445        9.730        0.007      330.624       -1.884      869.101
01/22/2015  02:51:00     -119.637      -51.057       -9.268       21.096       25.665       12.428      445.029      658.690      154.457        0.913        0.063      130.076        5.822        0.002      330.615       -1.900      869.103
01/22/2015  02:52:00     -111.536      -54.332       -7.563       13.995       16.507       10.800      195.855      272.469      116.646        0.802        0.029      124.066        4.349        0.001      330.628       -1.877      869.093
01/22/2015  02:53:00     -106.242      -40.317       -6.517       14.884       21.161       13.938      221.524      447.796      194.268        0.691        0.043      113.635        9.341        0.007      330.663       -1.820      869.090
01/22/2015  02:54:00     -121.334      -52.528      -12.042       14.112       19.435       10.695      199.150      377.706      114.390        0.916        0.035      132.216        8.032        0.004      330.613       -1.903      869.085
01/22/2015  02:55:00     -120.999      -55.802       -8.670       23.950       21.517       15.514      573.620      462.971      240.673        0.955        0.064      133.247        7.146        0.003      330.623       -1.886      869.082
01/22/2015  02:56:00     -102.009      -47.958       -8.417       35.973       26.301       16.798     1294.026      691.728      282.170        0.752        0.113      112.720       14.067        0.016      330.605       -1.916      869.089
01/22/2015  02:57:00     -122.090      -44.851       -5.153       32.848       22.372       15.671     1079.017      500.525      245.571        0.938        0.091      130.067        6.940        0.003      330.576       -1.961      869.109
01/22/2015  02:58:00     -117.164      -75.170       -8.164       43.973       29.322       20.546     1933.659      859.803      422.147        1.133        0.161      139.205       24.054        0.030      330.549       -2.008      869.115
01/22/2015  02:59:00     -134.063      -24.848       -9.027       31.691       20.980       18.760     1004.347      440.141      351.929        1.023        0.090      136.346       17.657        0.017      330.533       -2.033      869.121
01/22/2015  03:00:00     -147.285      -47.513       -7.769       22.326       20.158       14.935      498.430      406.365      223.050        1.257        0.056      154.759        9.543        0.004      330.529       -2.040      869.124
01/22/2015  03:01:00     -151.939      -56.298       -8.484       24.251       24.502       14.197      588.123      600.329      201.564        1.386        0.070      162.034       12.203        0.006      330.540       -2.021      869.115
01/22/2015  03:02:00     -153.844      -56.293       -6.694       33.712       27.261       18.469     1136.483      743.151      341.086        1.455        0.111      163.820       17.903        0.012      330.533       -2.032      869.113
01/22/2015  03:03:00     -143.882      -74.913       -0.719       37.017       42.019       21.746     1370.230     1765.565      472.869        1.496        0.180      162.216       21.435        0.017      330.527       -2.044      869.118
01/22/2015  03:04:00     -149.371      -84.234      -17.981       46.502       38.756       21.394     2162.479     1501.996      457.720        1.693        0.206      171.485       18.116        0.011      330.550       -2.006      869.122
01/22/2015  03:05:00     -144.517      -68.517       -5.678       31.266       34.798       22.542      977.576     1210.919      508.164        1.415        0.135      159.937       16.682        0.011      330.545       -2.014      869.133
01/22/2015  03:06:00     -171.256      -52.491       -3.537       39.986       31.636       23.557     1598.875     1000.842      554.925        1.762        0.158      179.119       20.493        0.013      330.531       -2.037      869.153
01/22/2015  03:07:00     -187.682      -51.351      -14.207       35.472       36.190       19.631     1258.261     1309.731      385.368        2.051        0.148      194.580       15.082        0.006      330.498       -2.091      869.157
01/22/2015  03:08:00     -144.809      -76.936       -3.774       54.837       35.573       26.385     3007.079     1265.439      696.184        1.593        0.248      163.978       29.734        0.033      330.508       -2.076      869.159
01/22/2015  03:09:00     -155.270      -54.045       -0.584       47.776       35.670       24.440     2282.508     1272.332      597.304        1.559        0.208      164.407       23.752        0.021      330.505       -2.079      869.147
01/22/2015  03:10:00     -123.422      -63.640       -0.013       39.369       33.906       21.818     1549.920     1149.606      476.026        1.123        0.159      138.863       14.344        0.011      330.563       -1.985      869.131
01/22/2015  03:11:00     -115.390      -66.980       -3.283       41.527       30.492       19.984     1724.490      929.763      399.348        1.043        0.153      133.421       18.802        0.020      330.600       -1.925      869.126
01/22/2015  03:12:00     -137.546      -65.252      -13.201       27.484       23.560       19.121      755.390      555.072      365.607        1.251        0.084      152.239       11.437        0.006      330.627       -1.879      869.122
01/22/2015  03:13:00     -127.989      -47.999      -11.392       22.882       29.873       16.128      523.583      892.387      260.106        1.025        0.084      136.693       12.474        0.008      330.641       -1.857      869.130
01/22/2015  03:14:00     -119.676      -49.795      -17.149       28.806       22.868       11.657      829.770      522.923      135.887        0.929        0.074      129.622        9.312        0.005      330.671       -1.807      869.130
01/22/2015  03:15:00     -105.111      -28.832       -3.609       15.701       23.175       12.020      246.521      537.081      144.476        0.641        0.046      108.993        7.191        0.004      330.592       -1.936      869.125
01/22/2015  03:16:00     -104.733      -13.780       -9.935       17.597       19.234       15.876      309.666      369.952      252.036        0.609        0.047      105.636        9.443        0.008      330.577       -1.961      869.115
01/22/2015  03:17:00     -124.220      -13.080      -14.266       26.401       19.120       14.102      696.987      365.580      198.862        0.853        0.063      124.907       10.787        0.007      330.503       -2.083      869.106
01/22/2015  03:18:00      -87.814      -27.698       -8.498       29.759       21.616       13.764      885.628      467.273      189.443        0.505        0.077       92.079       11.388        0.015      330.532       -2.036      869.110
01/22/2015  03:19:00      -89.039      -46.809      -15.305       17.544       20.815       14.980      307.805      433.267      224.390        0.566        0.048      100.594        2.433        0.001      330.548       -2.009      869.111
01/22/2015  03:20:00      -81.356      -30.558      -11.448       17.887       13.994       11.275      319.943      195.827      127.131        0.416        0.032       86.906        3.567        0.002      330.592       -1.936      869.100
01/22/2015  03:21:00      -73.799      -23.359       -5.263       11.130       13.916       11.239      123.887      193.654      126.308        0.323        0.022       77.408        8.549        0.012      330.549       -2.008      869.094
01/22/2015  03:22:00      -77.408      -42.635       -8.647       13.621       13.981       12.090      185.529      195.463      146.175        0.421        0.026       88.373        4.974        0.003      330.556       -1.995      869.093
01/22/2015  03:23:00      -58.707      -31.954       -3.251       31.357       20.212       14.381      983.280      408.508      206.819        0.304        0.080       66.840        8.896        0.018      330.571       -1.971      869.098
01/22/2015  03:24:00      -83.531      -48.114        1.520       35.747       25.754       20.107     1277.840      663.280      404.291        0.582        0.117       96.397       18.219        0.036      330.539       -2.024      869.105
01/22/2015  03:25:00      -85.718      -54.234        5.254       50.180       35.089       21.675     2517.991     1231.260      469.813        0.727        0.211      101.434       21.703        0.046      330.675       -1.801      869.112
01/22/2015  03:26:00      -55.801      -46.486       -8.341       51.820       46.288       30.041     2685.311     2142.570      902.435        0.554        0.287       72.627       22.893        0.099      330.659       -1.827      869.125
01/22/2015  03:27:00      -93.188      -93.402       -2.388       49.192       47.570       29.200     2419.821     2262.935      852.623        1.147        0.277      131.940       29.692        0.051      330.617       -1.895      869.136
01/22/2015  03:28:00     -108.661      -65.631      -12.584       32.928       27.929       20.660     1084.277      780.042      426.854        0.928        0.115      126.944       19.995        0.025      330.599       -1.926      869.133
01/22/2015  03:29:00      -97.113      -45.401       -3.596       40.470       23.356       18.717     1637.794      545.509      350.328        0.702        0.127      107.202       19.754        0.034      330.603       -1.919      869.129
01/22/2015  03:30:00      -68.622      -26.522        2.926       27.307       28.345       16.578      745.681      803.458      274.836        0.362        0.091       73.569       16.967        0.053      330.558       -1.993      869.125
01/22/2015  03:31:00      -56.397      -17.104        0.817       19.942       13.903       15.216      397.664      193.297      231.539        0.215        0.041       58.934       10.600        0.032      330.628       -1.879      869.114
01/22/2015  03:32:00      -61.107      -26.469       -4.915       21.737       11.745       11.781      472.513      137.951      138.784        0.260        0.037       66.593       10.462        0.025      330.644       -1.852      869.104
01/22/2015  03:33:00      -41.955      -21.187       -4.440       16.540       19.042       12.187      273.587      362.595      148.516        0.151        0.039       47.001        7.625        0.026      330.691       -1.775      869.100
01/22/2015  03:34:00      -62.024      -11.149       -7.217       20.671       13.835        9.290      427.294      191.401       86.296        0.236        0.035       63.018        6.472        0.011      330.651       -1.839      869.099
01/22/2015  03:35:00      -62.936      -36.413       -4.411       16.187       10.751        9.294      262.035      115.591       86.374        0.289        0.023       72.711        9.069        0.016      330.627       -1.879      869.090
01/22/2015  03:36:00      -52.699      -24.670       -2.748       14.953       18.119       10.682      223.595      328.308      114.102        0.203        0.033       58.187        9.247        0.025      330.605       -1.916      869.092
01/22/2015  03:37:00      -42.244      -15.085       -0.019       17.835       11.551       12.853      318.079      133.419      165.191        0.131        0.031       44.857       11.615        0.067      330.654       -1.836      869.092
01/22/2015  03:38:00      -16.943      -21.145       -6.542       21.686       12.521        9.928      470.271      156.776       98.568        0.075        0.036       27.096        8.093        0.089      330.691       -1.775      869.083
01/22/2015  03:39:00       -9.050      -15.308        8.477       27.915       14.787       11.974      779.260      218.670      143.380        0.076        0.057       17.783        9.100        0.262      330.652       -1.838      869.078
01/22/2015  03:40:00      -17.793       -5.946        0.010       24.586        8.491        7.361      604.469       72.092       54.179        0.054        0.037       18.760        5.101        0.074      330.644       -1.850      869.068
01/22/2015  03:41:00       31.141       26.526        4.974        9.732       14.078        8.207       94.711      198.176       67.355        0.103        0.018       40.907        2.893        0.005      330.739       -1.696      869.050
01/22/2015  03:42:00       46.247       41.211        4.470        8.796       10.651       13.711       77.368      113.451      188.001        0.212        0.019       61.945        7.840        0.016      330.658       -1.827      869.022
01/22/2015  03:43:00       44.110       34.447        1.962       13.031       16.264       12.753      169.803      264.519      162.645        0.187        0.030       55.967        9.589        0.029      330.611       -1.904      868.993
01/22/2015  03:44:00       66.010       42.644       -2.748       18.230       15.366       16.869      332.338      236.123      284.576        0.352        0.043       78.587       11.936        0.023      330.515       -2.063      868.981
01/22/2015  03:45:00       70.827       35.054       -3.161       18.280       12.712       16.943      334.147      161.599      287.058        0.352        0.039       79.026        9.456        0.014      330.454       -2.162      868.982
01/22/2015  03:46:00       57.508       30.075        5.330       26.477       17.129       18.707      701.050      293.404      349.946        0.279        0.067       64.897       15.922        0.060      330.441       -2.185      868.995
01/22/2015  03:47:00       48.670       29.164       -1.524       15.636       14.273        7.221      244.478      203.711       52.142        0.186        0.025       56.739        3.290        0.003      330.375       -2.295      869.025
01/22/2015  03:48:00       27.288       22.235       -4.338        8.088        8.588        8.342       65.417       73.746       69.593        0.073        0.010       35.200        4.313        0.015      330.400       -2.252      869.042
01/22/2015  03:49:00       -3.565        3.535       -2.440       10.819        5.775        2.236      117.045       33.348        5.000        0.009        0.008        5.021        1.719        0.117      330.450       -2.170      869.059
01/22/2015  03:50:00      -48.228      -17.522      -10.751       14.886       11.485        7.703      221.587      131.910       59.343        0.158        0.021       51.313        8.147        0.025      330.584       -1.949      869.070
01/22/2015  03:51:00      -65.461      -26.775       -7.777        8.398        7.916        7.131       70.521       62.663       50.853        0.262        0.009       70.725        4.067        0.003      330.535       -2.029      869.075
01/22/2015  03:52:00      -47.412      -18.581       -3.712       11.824        8.767        7.599      139.804       76.863       57.741        0.144        0.014       50.923        6.013        0.014      330.653       -1.837      869.079
01/22/2015  03:53:00      -43.743      -25.831       -1.168       17.852       16.670       12.437      318.700      277.902      154.682        0.167        0.038       50.800        9.222        0.033      330.778       -1.632      869.083
01/22/2015  03:54:00      -53.318      -27.851        3.418       43.042       28.788       16.111     1852.611      828.769      259.565        0.329        0.147       60.153       21.376        0.126      330.760       -1.660      869.091
01/22/2015  03:55:00     -105.152      -77.486       -4.395       24.427       22.225       16.726      596.672      493.959      279.769        0.923        0.069      130.618        8.575        0.004      330.790       -1.612      869.096
01/22/2015  03:56:00     -122.669      -86.474       -1.011       25.727       32.636       19.914      661.884     1065.102      396.585        1.232        0.106      150.085       10.918        0.005      330.695       -1.768      869.111
01/22/2015  03:57:00     -138.186     -100.595        1.330       31.924       33.377       24.287     1019.131     1114.043      589.878        1.597        0.136      170.923       15.532        0.008      330.576       -1.963      869.111
01/22/2015  03:58:00      -91.131      -61.890       -6.523       52.209       40.944       26.831     2725.790     1676.379      719.919        0.865        0.256      110.160       19.025        0.030      330.538       -2.024      869.103
01/22/2015  03:59:00      -71.234      -28.205       -3.945       24.341       31.073       13.398      592.467      965.525      179.516        0.381        0.087       76.614       11.275        0.022      330.454       -2.163      869.090
01/22/2015  04:00:00      -47.051      -10.725       -2.007       21.575       15.360       12.912      465.470      235.935      166.707        0.160        0.043       48.258        8.061        0.028      330.489       -2.105      869.074
01/22/2015  04:01:00      -69.646       -7.186       -6.241       29.678       20.561       18.271      880.755      422.770      333.840        0.329        0.082       70.016       18.766        0.072      330.486       -2.109      869.081
01/22/2015  04:02:00      -94.921       -9.170       -9.372       26.696       18.853       15.718      712.702      355.430      247.060        0.525        0.066       95.363       14.256        0.022      330.462       -2.150      869.087
01/22/2015  04:03:00     -113.508       -5.221      -13.720       14.858       15.559       13.444      220.760      242.093      180.746        0.687        0.032      113.628        6.260        0.003      330.430       -2.202      869.095
01/22/2015  04:04:00      -80.556       -7.974       -7.217       30.956       15.014       13.762      958.297      225.415      189.381        0.399        0.069       80.950       15.671        0.037      330.411       -2.234      869.085
01/22/2015  04:05:00      -55.870       -8.765       -6.245       25.841       13.011       11.195      667.775      169.291      125.324        0.210        0.048       56.553       14.803        0.069      330.415       -2.228      869.069
01/22/2015  04:06:00       -8.086       -0.396       -2.109       10.599       11.385        6.772      112.331      129.624       45.856        0.018        0.014        8.096        4.397        0.295      330.463       -2.147      869.050
01/22/2015  04:07:00       -3.102       -2.047        6.965        4.301        6.511        7.567       18.498       42.397       57.255        0.009        0.006        3.717        4.067        1.197      330.570       -1.972      869.037
01/22/2015  04:08:00       -4.636        1.308       -0.349        4.902        3.380        5.956       24.033       11.427       35.474        0.005        0.004        4.817        2.331        0.234      330.555       -1.996      869.036
01/22/2015  04:09:00        1.017        2.412        3.236        8.965       14.242        6.717       80.363      202.847       45.124        0.017        0.016        2.617        5.244        4.014      330.618       -1.893      869.046
01/22/2015  04:10:00       -2.581      -10.380        8.369       17.878       11.901        9.635      319.626      141.624       92.827        0.037        0.028       10.696       10.029        0.879      330.518       -2.057      869.067
01/22/2015  04:11:00      -45.790      -28.922       -5.459       18.244       15.117        7.963      332.840      228.524       63.407        0.179        0.031       54.159        7.654        0.020      330.600       -1.924      869.087
01/22/2015  04:12:00      -34.445       -9.099       -4.036        7.697        7.699        5.765       59.240       59.276       33.232        0.072        0.008       35.626        4.213        0.014      330.615       -1.901      869.100
01/22/2015  04:13:00      -24.788        2.950       -4.904        6.201        5.294        7.515       38.452       28.029       56.470        0.039        0.006       24.963        4.333        0.030      330.598       -1.927      869.107
01/22/2015  04:14:00      -15.658        2.697        2.244       12.878        6.689        4.467      165.847       44.739       19.958        0.024        0.012       15.889        3.470        0.048      330.676       -1.798      869.111
01/22/2015  04:15:00       -1.134        8.367       -0.272        9.788        4.326        6.915       95.803       18.716       47.816        0.012        0.008        8.444        5.412        0.411      330.738       -1.698      869.103
01/22/2015  04:16:00      -26.538        5.688       -1.883        9.713        9.223        5.695       94.345       85.058       32.437        0.048        0.011       27.141        2.182        0.006      330.624       -1.884      869.094
01/22/2015  04:17:00      -20.260        9.309       -5.104        7.200        6.586        5.106       51.846       43.378       26.074        0.032        0.006       22.297        2.132        0.009      330.584       -1.950      869.072
01/22/2015  04:18:00      -13.632       -0.450       -0.244        8.012        5.766        4.236       64.192       33.248       17.946        0.015        0.006       13.640        3.670        0.072      330.601       -1.923      869.053
01/22/2015  04:19:00      -22.138       -3.766       -0.988       13.036       15.585        7.552      169.941      242.883       57.030        0.049        0.023       22.456        3.320        0.022      330.645       -1.850      869.041
01/22/2015  04:20:00      -45.426      -23.519       -5.955        9.883       11.759        8.489       97.677      138.271       72.058        0.148        0.015       51.153        5.837        0.013      330.617       -1.896      869.036
01/22/2015  04:21:00      -47.654      -24.386       -7.129       13.398       10.137        8.182      179.503      102.762       66.942        0.163        0.017       53.532        5.590        0.011      330.570       -1.972      869.038
01/22/2015  04:22:00      -29.542      -13.922       -1.906       10.241        7.464        5.601      104.872       55.705       31.366        0.063        0.010       32.658        4.405        0.018      330.548       -2.008      869.032
01/22/2015  04:23:00      -14.183       -0.888       -3.478        6.241        2.850        5.996       38.956        8.121       35.949        0.015        0.004       14.210        2.839        0.040      330.569       -1.974      869.020
01/22/2015  04:24:00       -3.541       -3.181       -0.271        3.455        3.841        3.092       11.935       14.755        9.558        0.003        0.002        4.760        1.292        0.074      330.626       -1.882      869.012
01/22/2015  04:25:00       -1.128       -6.356       -3.822        4.974        4.532        3.474       24.743       20.542       12.069        0.006        0.003        6.456        1.720        0.071      330.676       -1.800      869.011
01/22/2015  04:26:00      -40.470      -15.817       -3.746       13.469       13.187        6.984      181.418      173.886       48.771        0.115        0.020       43.451        4.382        0.010      330.665       -1.816      869.008
01/22/2015  04:27:00      -54.129      -12.500       -6.566       20.021       14.437        9.658      400.832      208.416       93.281        0.192        0.035       55.554        8.317        0.022      330.536       -2.029      869.016
01/22/2015  04:28:00      -86.770       -9.654       -6.679       22.473       15.843       12.579      505.029      250.989      158.225        0.429        0.046       87.305       11.656        0.018      330.435       -2.195      869.021
01/22/2015  04:29:00     -108.538       -6.599      -13.526       16.907       11.517       10.487      285.851      132.641      109.969        0.627        0.026      108.738       10.141        0.009      330.394       -2.263      869.021
01/22/2015  04:30:00     -102.421        1.282       -8.003       17.586       13.528       11.531      309.262      183.014      132.970        0.559        0.031      102.429        8.927        0.008      330.435       -2.194      869.018
01/22/2015  04:31:00      -61.643       -3.075       -7.800       17.125       10.902        9.435      293.267      118.857       89.010        0.219        0.025       61.720        9.608        0.024      330.485       -2.114      869.015
01/22/2015  04:32:00      -36.053      -14.202      -10.464        5.463        6.172        4.637       29.849       38.096       21.503        0.085        0.004       38.750        3.279        0.007      330.585       -1.948      869.010
01/22/2015  04:33:00      -42.672      -16.590       -4.378       10.536        9.242        7.289      111.014       85.423       53.134        0.118        0.012       45.784        4.854        0.011      330.602       -1.920      869.003
01/22/2015  04:34:00      -59.005       -8.834      -10.194       15.939       16.500        9.147      254.062      272.252       83.663        0.214        0.030       59.662        7.513        0.016      330.498       -2.090      868.994
01/22/2015  04:35:00      -79.863       -5.327       -8.826       21.367       13.413       12.316      456.539      179.908      151.677        0.364        0.039       80.040        8.955        0.013      330.467       -2.141      868.992
01/22/2015  04:36:00     -103.760       -6.713       -9.564       14.825       10.132        9.737      219.769      102.653       94.802        0.566        0.021      103.977        6.440        0.004      330.437       -2.190      868.981
01/22/2015  04:37:00     -110.262      -17.797      -13.231       12.236        9.370       10.420      149.715       87.789      108.585        0.650        0.017      111.689        6.827        0.004      330.373       -2.297      868.977
01/22/2015  04:38:00     -119.025        0.076      -11.035       24.049       14.684       15.757      578.357      215.633      248.296        0.767        0.052      119.025       12.297        0.011      330.370       -2.300      868.973
01/22/2015  04:39:00      -78.259       -1.601       -6.218       37.857       24.464       16.677     1433.167      598.510      278.120        0.424        0.115       78.275       17.292        0.049      330.353       -2.328      868.978
01/22/2015  04:40:00      -78.112       -9.026       -4.246       30.167       21.579       15.563      910.022      465.659      242.208        0.391        0.081       78.631       15.067        0.037      330.394       -2.261      868.984
01/22/2015  04:41:00      -64.184       -7.686        2.533       38.046       34.006       21.588     1447.494     1156.427      466.032        0.363        0.153       64.643       19.123        0.088      330.393       -2.265      868.985
01/22/2015  04:42:00      -77.874      -19.380        3.061       39.034       25.819       20.586     1523.630      666.605      423.796        0.453        0.131       80.249       23.448        0.085      330.390       -2.269      868.977
01/22/2015  04:43:00     -101.554      -25.394       -8.407       24.460       24.675       18.250      598.293      608.860      333.079        0.628        0.077      104.681       16.051        0.024      330.362       -2.313      868.971
01/22/2015  04:44:00     -104.260      -46.024       -5.349       18.673       23.839       14.265      348.673      568.313      203.490        0.707        0.056      113.966        6.874        0.004      330.263       -2.476      868.963
01/22/2015  04:45:00     -119.756      -25.893      -14.872       22.421       19.160       12.599      502.707      367.123      158.736        0.813        0.051      122.523        8.511        0.005      330.215       -2.554      868.964
01/22/2015  04:46:00      -93.205      -28.231       -4.175       22.680       27.857       17.456      514.381      776.030      304.702        0.555        0.080       97.387       15.414        0.025      330.200       -2.580      868.969
01/22/2015  04:47:00      -92.594      -18.963       -4.682       37.428       19.590       18.224     1400.827      383.751      332.129        0.554        0.106       94.516       20.214        0.046      330.219       -2.549      868.964
01/22/2015  04:48:00     -107.145      -24.787       -7.993       26.100       15.241       13.979      681.212      232.285      195.417        0.663        0.055      109.975       10.340        0.009      330.262       -2.476      868.953
01/22/2015  04:49:00      -89.059      -13.731       -7.119       17.686       18.419       14.348      312.807      339.270      205.870        0.451        0.043       90.111        8.519        0.009      330.262       -2.478      868.932
01/22/2015  04:50:00     -100.602       -6.689       -8.110       24.550       22.312       16.048      602.687      497.822      257.535        0.579        0.068      100.824       11.769        0.014      330.343       -2.346      868.924
01/22/2015  04:51:00     -114.477       -6.118      -16.577       19.220       19.159       12.184      369.422      367.058      148.446        0.715        0.044      114.640        4.964        0.002      330.423       -2.213      868.930
01/22/2015  04:52:00      -70.576      -19.385       -0.189       32.146       21.620       20.505     1033.376      467.403      420.448        0.364        0.096       73.190       20.551        0.079      330.367       -2.305      868.935
01/22/2015  04:53:00      -91.337      -13.227       -5.356       30.145       21.783       22.920      908.710      474.507      525.314        0.523        0.095       92.290       22.555        0.060      330.285       -2.439      868.933
01/22/2015  04:54:00     -122.312      -32.186       -6.279       23.669       18.096       10.586      560.208      327.455      112.072        0.852        0.050      126.476        7.780        0.004      330.245       -2.505      868.935
01/22/2015  04:55:00     -122.405      -47.702       -7.569       20.137       17.057       11.498      405.484      290.956      132.209        0.907        0.041      131.371       10.308        0.006      330.322       -2.379      868.930
01/22/2015  04:56:00      -85.863      -32.375       -1.787       23.579       20.500       13.547      555.964      420.251      183.527        0.479        0.058       91.763       12.066        0.017      330.330       -2.365      868.925
01/22/2015  04:57:00      -64.332      -49.652       -3.146       33.853       21.325       16.590     1146.049      454.749      275.234        0.424        0.094       81.265        9.509        0.014      330.321       -2.381      868.919
01/22/2015  04:58:00      -69.834      -46.819        5.020       46.218       26.013       20.592     2136.106      676.670      424.018        0.516        0.162       84.076       20.763        0.061      330.256       -2.488      868.913
01/22/2015  04:59:00      -60.758      -43.114        4.379       45.494       28.991       23.255     2069.745      840.468      540.788        0.451        0.173       74.501       21.767        0.085      330.254       -2.491      868.901
01/22/2015  05:00:00      -82.688      -62.369       -3.767       47.001       27.232       25.527     2209.138      741.564      651.624        0.717        0.180      103.572       19.852        0.037      330.285       -2.441      868.891
01/22/2015  05:01:00     -119.692      -59.502       -6.033       43.237       21.043       19.600     1869.403      442.820      384.152        1.030        0.135      133.666       24.033        0.032      330.231       -2.528      868.888
01/22/2015  05:02:00     -108.148      -56.914       -0.836       38.462       31.906       23.088     1479.346     1017.998      533.047        0.898        0.152      122.210       20.612        0.028      330.145       -2.670      868.899
01/22/2015  05:03:00      -48.232      -43.598        4.675       43.268       26.605       20.750     1872.089      707.843      430.580        0.363        0.151       65.016       17.362        0.071      330.221       -2.545      868.919
01/22/2015  05:04:00     -102.670      -52.350       -6.626       37.058       26.516       14.137     1373.329      703.115      199.858        0.780        0.114      115.246       10.344        0.008      330.192       -2.593      868.931
01/22/2015  05:05:00      -55.713      -41.741        2.834       31.748       20.710       15.525     1007.953      428.904      241.029        0.327        0.084       69.615       12.618        0.033      330.256       -2.486      868.938
01/22/2015  05:06:00      -38.677      -34.900        8.307       39.980       26.352       18.607     1598.408      694.435      346.237        0.271        0.132       52.095       20.779        0.159      330.233       -2.525      868.938
01/22/2015  05:07:00      -75.064      -41.591        2.295       22.630       18.819       17.194      512.127      354.141      295.643        0.427        0.058       85.816       14.332        0.028      330.139       -2.680      868.940
01/22/2015  05:08:00      -19.503      -38.332        0.277       25.379       22.598       18.067      644.092      510.661      326.412        0.167        0.074       43.008       12.080        0.079      330.238       -2.519      868.951
01/22/2015  05:09:00      -25.079      -17.975       -1.762       20.072       20.305       13.262      402.870      412.274      175.885        0.097        0.050       30.855       10.488        0.116      330.215       -2.555      868.954
01/22/2015  05:10:00      -52.705      -36.509       -0.762       19.366       17.198       12.337      375.048      295.777      152.211        0.247        0.041       64.115       10.309        0.026      330.244       -2.508      868.963
01/22/2015  05:11:00      -46.262      -30.351       -6.884       22.505       14.473       13.439      506.460      209.462      180.597        0.200        0.045       55.329       10.325        0.035      330.224       -2.541      868.973
01/22/2015  05:12:00      -33.188      -41.782       -0.168       28.854       28.814       15.173      832.538      830.228      230.227        0.237        0.095       53.359       10.770        0.041      330.274       -2.458      868.978
01/22/2015  05:13:00      -73.631      -50.990       -8.628       31.045       17.114       14.838      963.786      292.897      220.173        0.479        0.074       89.563       12.081        0.018      330.260       -2.481      868.984
01/22/2015  05:14:00      -58.740      -39.580       -2.565       31.350       21.330       15.397      982.847      454.987      237.053        0.335        0.084       70.831       13.062        0.034      330.214       -2.556      868.983
01/22/2015  05:15:00      -98.780      -34.912       -5.315       30.333       30.191       16.388      920.088      911.511      268.551        0.655        0.105      104.768       16.968        0.026      330.204       -2.573      868.975
01/22/2015  05:16:00      -26.739      -21.421        6.131       25.625       18.573       15.436      656.625      344.964      238.262        0.123        0.062       34.261       14.137        0.170      330.196       -2.587      868.968
01/22/2015  05:17:00      -14.861      -19.022        5.426       19.545       11.221       10.918      381.991      125.917      119.212        0.062        0.031       24.138       10.025        0.172      330.260       -2.480      868.967
01/22/2015  05:18:00      -23.467       -9.145       -2.724       11.656       10.960        9.655      135.862      120.117       93.228        0.050        0.017       25.186        6.916        0.075      330.351       -2.334      868.971
01/22/2015  05:19:00      -34.596      -22.442       -2.491       14.670       12.567       12.107      215.209      157.932      146.585        0.111        0.026       41.237        8.425        0.042      330.390       -2.269      868.974
01/22/2015  05:20:00      -27.392      -31.557        4.120       18.135       11.632       13.594      328.861      135.309      184.795        0.121        0.032       41.787       12.345        0.087      330.479       -2.122      868.966
01/22/2015  05:21:00      -37.899      -27.636        0.159       22.429       14.382       12.813      503.058      206.838      164.169        0.154        0.044       46.905       10.202        0.047      330.421       -2.217      868.964
01/22/2015  05:22:00       -5.852      -14.914        3.251       14.974       12.950        9.850      224.229      167.700       97.024        0.038        0.024       16.021        5.458        0.116      330.431       -2.200      868.962
01/22/2015  05:23:00      -43.962      -21.467       -5.017       25.978       19.802       14.816      674.866      392.130      219.526        0.185        0.064       48.923       13.231        0.073      330.367       -2.306      868.969
01/22/2015  05:24:00      -83.659      -31.705       -8.019       11.601       10.814       11.051      134.592      116.949      122.123        0.422        0.019       89.466        6.075        0.005      330.356       -2.323      868.982
01/22/2015  05:25:00      -63.958      -27.986       -3.281       16.040       17.207       10.949      257.274      296.076      119.884        0.278        0.034       69.813        9.830        0.020      330.338       -2.354      868.993
01/22/2015  05:26:00      -39.468      -25.363       -3.952       14.288       12.060       11.191      204.134      145.450      125.241        0.135        0.024       46.915        8.844        0.036      330.339       -2.350      868.999
01/22/2015  05:27:00      -24.493      -10.898       -3.289       15.349       15.074       11.581      235.582      227.235      134.131        0.066        0.030       26.809        8.258        0.095      330.279       -2.450      868.994
01/22/2015  05:28:00      -20.844      -11.407       -2.905       14.336       19.596        8.867      205.525      384.008       78.628        0.062        0.033       23.761        2.393        0.010      330.390       -2.267      868.993
01/22/2015  05:29:00       -9.610      -13.194       -1.441        7.794        7.529        6.018       60.741       56.679       36.215        0.021        0.008       16.323        5.252        0.104      330.342       -2.347      868.998
01/22/2015  05:30:00      -44.267       -3.218       -2.756       24.969        9.757        8.160      623.443       95.206       66.585        0.138        0.039       44.384        4.389        0.010      330.237       -2.519      868.999
01/22/2015  05:31:00      -80.223      -12.884       -6.960       26.557       21.164       11.904      705.258      447.919      141.701        0.397        0.065       81.251       11.478        0.020      330.087       -2.764      869.008
01/22/2015  05:32:00     -135.515      -38.727      -16.201       27.663       25.364       15.830      765.263      643.331      250.585        1.089        0.083      140.940       15.887        0.013      329.816       -3.209      869.019
01/22/2015  05:33:00      -98.861      -15.337        0.855       32.162       25.723       21.651     1034.368      661.662      468.774        0.609        0.108      100.044       20.163        0.041      329.822       -3.199      869.026
01/22/2015  05:34:00      -98.271       -2.166       -9.040       29.959       24.789       18.619      897.571      614.483      346.655        0.580        0.093       98.295       16.241        0.027      329.835       -3.178      869.030
01/22/2015  05:35:00      -63.052       -3.512        3.312       29.930       26.305       17.424      895.823      691.949      303.598        0.294        0.095       63.150       15.028        0.057      329.894       -3.082      869.030
01/22/2015  05:36:00      -84.822      -19.916       -6.589       20.804       18.145       13.700      432.791      329.233      187.694        0.429        0.047       87.129       10.875        0.016      329.956       -2.979      869.024
01/22/2015  05:37:00      -77.243      -36.514       -3.872       22.714       19.400       12.759      515.932      376.344      162.790        0.418        0.053       85.438       13.835        0.026      330.002       -2.904      869.019
01/22/2015  05:38:00      -62.299      -31.416        1.924       31.552       23.853       15.523      995.546      568.950      240.967        0.334        0.090       69.772       13.256        0.036      329.959       -2.975      869.027
01/22/2015  05:39:00      -94.873      -45.911       -2.575       26.678       25.326       13.038      711.723      641.428      169.977        0.632        0.076      105.398       12.451        0.014      329.864       -3.130      869.047
01/22/2015  05:40:00     -112.834      -16.686       -6.717       24.779       20.210       14.565      614.015      408.451      212.130        0.714        0.062      114.062        8.490        0.006      329.873       -3.116      869.059
01/22/2015  05:41:00     -138.482      -18.749      -15.846       21.742       21.619       16.117      472.710      467.389      259.753        1.049        0.060      139.745       13.446        0.009      329.866       -3.127      869.065
01/22/2015  05:42:00     -120.111       -2.612      -10.873       28.022       22.722       20.470      785.250      516.278      419.009        0.814        0.086      120.139       16.005        0.018      329.826       -3.194      869.067
01/22/2015  05:43:00     -124.130      -14.643      -11.179       19.237       18.021       14.964      370.073      324.758      223.907        0.833        0.046      124.990       10.860        0.008      329.785       -3.259      869.077
01/22/2015  05:44:00     -112.397      -31.450       -7.562       16.392       22.589       13.201      268.707      510.269      174.260        0.732        0.048      116.714        9.750        0.007      329.787       -3.256      869.079
01/22/2015  05:45:00     -101.527      -24.955       -5.439       28.574       24.328       18.469      816.456      591.839      341.108        0.635        0.087      104.549       15.430        0.022      329.814       -3.210      869.077
01/22/2015  05:46:00     -102.802      -16.152       -9.741       26.116       15.517       15.390      682.055      240.790      236.864        0.604        0.058      104.064       12.856        0.015      329.802       -3.232      869.072
01/22/2015  05:47:00     -126.956       -8.875       -7.163       33.149       23.247       21.652     1098.867      540.419      468.816        0.918        0.105      127.266       19.592        0.024      329.827       -3.192      869.070
01/22/2015  05:48:00     -122.031      -25.423      -13.858       23.086       21.392       20.563      532.950      457.625      422.843        0.857        0.071      124.651       15.930        0.016      329.878       -3.106      869.071
01/22/2015  05:49:00     -130.085      -14.019      -15.080       19.375       15.433       15.704      375.394      238.183      246.602        0.910        0.043      130.838        6.891        0.003      329.856       -3.146      869.070
01/22/2015  05:50:00     -130.706       -1.431      -15.322       32.521       25.773       21.204     1057.628      664.231      449.621        0.975        0.109      130.714       20.761        0.025      329.823       -3.199      869.083
01/22/2015  05:51:00     -126.779      -14.129       -3.594       45.538       24.514       18.482     2073.720      600.955      341.586        0.965        0.151      127.564       22.794        0.032      329.741       -3.330      869.091
01/22/2015  05:52:00     -108.226      -45.859       -1.831       36.141       21.703       20.675     1306.178      471.024      427.475        0.801        0.110      117.541       18.155        0.024      329.720       -3.365      869.090
01/22/2015  05:53:00      -99.867       -9.837      -14.634       30.554       22.438       21.038      933.573      503.442      442.613        0.608        0.094      100.350       16.824        0.028      329.769       -3.284      869.091
01/22/2015  05:54:00      -98.120      -25.377      -10.783       24.536       13.806       15.617      602.016      190.599      243.905        0.571        0.052      101.349       12.136        0.014      329.766       -3.289      869.089
01/22/2015  05:55:00      -76.541      -34.219       -8.437       23.490       21.017       11.914      551.760      441.705      141.946        0.412        0.057       83.841        9.896        0.014      329.769       -3.284      869.076
01/22/2015  05:56:00      -48.162      -16.256      -11.639       17.799       13.368       11.509      316.794      178.692      132.464        0.167        0.031       50.832        9.033        0.032      329.824       -3.194      869.059
01/22/2015  05:57:00      -44.029      -13.574       -5.587       18.328       13.958       11.476      335.906      194.822      131.693        0.141        0.033       46.074        7.542        0.027      329.859       -3.138      869.045
01/22/2015  05:58:00      -20.579       -9.108       11.315       21.958       11.440       11.020      482.150      130.865      121.448        0.068        0.037       22.505       11.382        0.256      329.880       -3.104      869.038
01/22/2015  05:59:00      -27.277      -17.243        2.603       14.890       10.571       10.991      221.718      111.740      120.810        0.075        0.023       32.270        9.230        0.082      329.843       -3.166      869.041
01/22/2015  06:00:00      -12.404      -14.552        4.013       19.561        9.015       10.013      382.642       81.264      100.260        0.047        0.028       19.122        8.846        0.214      329.903       -3.065      869.045
01/22/2015  06:01:00       -9.016      -15.343        1.092       16.683       18.570       12.902      278.310      344.837      166.459        0.055        0.039       17.796        8.008        0.202      329.991       -2.921      869.047
01/22/2015  06:02:00      -15.863       -7.131       -5.252       10.420       10.135        7.932      108.576      102.717       62.916        0.030        0.014       17.393        5.743        0.109      329.976       -2.946      869.050
01/22/2015  06:03:00        3.795       -3.759        7.532       10.302       13.286       10.344      106.124      176.526      107.003        0.024        0.019        5.342        3.982        0.556      329.911       -3.052      869.055
01/22/2015  06:04:00      -27.691       -5.449        5.129       17.883       15.892       16.197      319.807      252.548      262.350        0.083        0.042       28.222       13.120        0.216      329.874       -3.113      869.059
01/22/2015  06:05:00      -46.463      -16.089      -11.100       10.747       11.351        9.736      115.501      128.852       94.785        0.144        0.017       49.170        4.625        0.009      329.902       -3.067      869.059
01/22/2015  06:06:00      -54.079       -7.342       -8.698       12.239        7.855        7.956      149.788       61.696       63.304        0.166        0.014       54.575        5.524        0.010      329.856       -3.142      869.082
01/22/2015  06:07:00      -56.464       -4.808       -6.001       13.312       11.264        9.995      177.219      126.872       99.902        0.183        0.020       56.668        4.862        0.007      329.870       -3.121      869.090
01/22/2015  06:08:00      -60.130      -13.874       -8.483       12.219       16.164        9.026      149.303      261.273       81.462        0.219        0.025       61.710        5.697        0.009      329.884       -3.098      869.087
01/22/2015  06:09:00      -54.840       -8.534       -4.570       14.748        9.703        8.437      217.505       94.139       71.183        0.174        0.019       55.500        6.736        0.015      329.895       -3.080      869.090
01/22/2015  06:10:00      -70.817        0.403       -6.528       18.858       10.445       11.597      355.612      109.097      134.497        0.283        0.030       70.818       11.265        0.025      329.864       -3.131      869.098
01/22/2015  06:11:00      -98.423       -5.882      -14.371        9.592       10.637        8.466       92.006      113.153       71.680        0.510        0.014       98.599        3.147        0.001      329.828       -3.190      869.113
01/22/2015  06:12:00     -101.896       -7.579      -17.270        5.857        9.438        7.103       34.301       89.079       50.459        0.546        0.009      102.177        3.080        0.001      329.786       -3.257      869.132
01/22/2015  06:13:00     -103.556      -15.006      -12.167       20.000       12.636       12.924      400.005      159.676      167.042        0.591        0.036      104.637       11.202        0.011      329.845       -3.160      869.141
01/22/2015  06:14:00     -106.450      -21.058      -10.623       20.936       17.023       15.352      438.316      289.796      235.687        0.643        0.048      108.513       11.337        0.011      329.894       -3.081      869.135
01/22/2015  06:15:00      -83.539      -34.284       -3.709       26.557       16.968       14.075      705.285      287.918      198.101        0.468        0.060       90.300       16.010        0.031      329.951       -2.987      869.138
01/22/2015  06:16:00      -91.134      -34.876      -11.490       20.870       24.901       13.990      435.537      620.082      195.714        0.545        0.063       97.579       12.787        0.017      329.952       -2.986      869.140
01/22/2015  06:17:00      -99.492      -33.744       -9.637       17.570       21.541       14.748      308.720      464.036      217.512        0.606        0.050      105.058       11.311        0.012      329.934       -3.015      869.141
01/22/2015  06:18:00      -86.959      -35.481       -7.780       26.497       24.002       18.617      702.099      576.087      346.592        0.525        0.081       93.919       17.395        0.034      329.863       -3.132      869.140
01/22/2015  06:19:00     -101.714      -26.918       -7.479       15.892       16.394        9.879      252.545      268.757       97.589        0.587        0.031      105.216        8.501        0.007      329.934       -3.015      869.139
01/22/2015  06:20:00     -105.132      -22.732       -9.403       15.175       13.854       11.245      230.293      191.924      126.452        0.610        0.027      107.562        6.311        0.003      329.892       -3.086      869.142
01/22/2015  06:21:00      -89.368      -16.874      -11.015       20.561       13.365       11.191      422.749      178.630      125.239        0.456        0.036       90.947        6.344        0.005      329.906       -3.062      869.142
01/22/2015  06:22:00      -72.465      -17.438       -8.889       12.678       13.502        8.869      160.723      182.313       78.663        0.303        0.021       74.533        5.562        0.006      329.976       -2.946      869.148
01/22/2015  06:23:00      -53.667      -21.089       -3.215       12.702       16.078        9.846      161.330      258.509       96.939        0.193        0.026       57.662        3.835        0.004      330.024       -2.868      869.145
01/22/2015  06:24:00      -56.277       -4.865       -1.804        9.314       13.541        7.837       86.744      183.350       61.426        0.176        0.017       56.487        5.731        0.010      330.083       -2.771      869.141
01/22/2015  06:25:00      -49.416      -33.947        1.291       18.514       13.422       11.610      342.758      180.144      134.801        0.213        0.033       59.953       11.095        0.034      330.143       -2.674      869.140
01/22/2015  06:26:00      -69.186      -32.664       -5.784       21.240       11.073       10.225      451.136      122.611      104.560        0.328        0.034       76.509        9.778        0.016      330.090       -2.761      869.142
01/22/2015  06:27:00      -77.511      -43.778      -10.043        9.280       12.429       10.503       86.110      154.478      110.310        0.419        0.018       89.020        5.724        0.004      330.088       -2.764      869.140
01/22/2015  06:28:00      -76.807      -35.584       -7.817       14.530       13.930        8.425      211.128      194.045       70.980        0.385        0.024       84.650        7.913        0.009      330.053       -2.821      869.134
01/22/2015  06:29:00      -63.132      -20.003       -5.491       15.417       15.702       11.364      237.687      246.561      129.151        0.251        0.031       66.225        9.668        0.021      330.083       -2.772      869.131
01/22/2015  06:30:00      -75.419      -22.359       -5.044       17.678       15.640        9.890      312.520      244.598       97.816        0.343        0.033       78.663        8.608        0.012      330.076       -2.783      869.133
01/22/2015  06:31:00      -83.192      -15.600       -3.653       26.819       15.781       11.258      719.282      249.049      126.748        0.414        0.055       84.642        9.891        0.014      330.036       -2.849      869.143
01/22/2015  06:32:00     -112.428      -19.333       -6.358       28.416       20.885       14.728      807.472      436.200      216.908        0.726        0.073      114.078       15.096        0.018      329.890       -3.086      869.160
01/22/2015  06:33:00     -136.862      -19.091      -12.051       15.967       15.524       12.542      254.951      240.997      157.299        0.995        0.033      138.187        7.627        0.003      329.888       -3.091      869.167
01/22/2015  06:34:00     -107.422      -19.062       -7.111       25.708       15.959       14.497      660.917      254.702      210.169        0.654        0.056      109.100       13.711        0.016      329.921       -3.036      869.179
01/22/2015  06:35:00      -81.656      -32.622       -6.051       29.928       20.617       14.357      895.680      425.080      206.118        0.465        0.076       87.931       16.434        0.035      329.979       -2.942      869.184
01/22/2015  06:36:00      -78.929      -21.714       -2.362       14.380       17.708       11.008      206.788      313.558      121.180        0.367        0.032       81.861        8.929        0.012      330.046       -2.831      869.192
01/22/2015  06:37:00      -58.599      -27.145        3.198       34.297       14.317       12.130     1176.291      204.988      147.130        0.285        0.076       64.581       17.172        0.071      330.056       -2.816      869.208
01/22/2015  06:38:00      -22.877       -6.902        7.602       22.715       18.534       13.554      515.955      343.495      183.702        0.084        0.052       23.896       15.453        0.418      330.083       -2.771      869.227
01/22/2015  06:39:00      -23.499       -1.380        1.007       14.402       13.014       11.508      207.417      169.357      132.433        0.053        0.025       23.540       11.569        0.242      330.131       -2.692      869.236
01/22/2015  06:40:00      -17.950       -0.767       -3.717       15.285        7.792       10.298      233.644       60.714      106.039        0.037        0.020       17.966        9.836        0.300      330.096       -2.750      869.232
01/22/2015  06:41:00      -47.783      -10.224       -2.921       10.727       12.762        7.508      115.070      162.862       56.367        0.137        0.017       48.864        4.604        0.009      330.062       -2.807      869.224
01/22/2015  06:42:00      -37.926      -18.135       -1.673       12.781        9.652        9.662      163.351       93.159       93.353        0.106        0.017       42.038        8.498        0.041      330.094       -2.754      869.213
01/22/2015  06:43:00      -26.204      -17.357       13.499       24.838       15.980       14.150      616.942      255.351      200.215        0.112        0.054       31.432       12.230        0.151      330.134       -2.688      869.207
01/22/2015  06:44:00      -32.336      -34.849        4.115       29.141       25.181       16.079      849.181      634.082      258.537        0.201        0.087       47.540       12.398        0.068      330.036       -2.850      869.211
01/22/2015  06:45:00      -23.904      -30.290        9.167       29.219       21.349       17.048      853.728      455.774      290.621        0.159        0.080       38.586       12.289        0.101      330.014       -2.883      869.237
01/22/2015  06:46:00      -55.872      -56.509        1.236       27.180       25.883       16.013      738.775      669.927      256.409        0.399        0.083       79.467       15.019        0.036      330.039       -2.844      869.261
01/22/2015  06:47:00      -40.073      -23.545        1.085       29.367       16.947       14.594      862.407      287.208      212.995        0.176        0.068       46.478        9.075        0.038      330.033       -2.853      869.279
01/22/2015  06:48:00      -26.730      -18.825       -3.168       18.403       11.726       10.414      338.673      137.498      108.442        0.083        0.029       32.693        9.784        0.090      330.087       -2.766      869.289
01/22/2015  06:49:00      -51.972        1.786       -6.052       10.587       11.461        6.821      112.091      131.365       46.523        0.152        0.014       52.002        2.861        0.003      330.061       -2.807      869.291
01/22/2015  06:50:00      -43.696       -1.070       -4.641       10.280       10.599       11.334      105.687      112.347      128.460        0.114        0.017       43.709        6.538        0.022      330.095       -2.751      869.296
01/22/2015  06:51:00      -52.357      -17.094       -8.380       14.977       13.364        8.491      224.319      178.590       72.094        0.179        0.024       55.077        6.951        0.016      330.195       -2.588      869.295
01/22/2015  06:52:00      -31.801       -6.484       -2.891        9.995       11.036        8.582       99.908      121.782       73.658        0.068        0.015       32.456        6.851        0.045      330.177       -2.618      869.293
01/22/2015  06:53:00      -21.081       -3.684        5.246       16.975       13.763       10.601      288.160      189.414      112.374        0.054        0.029       21.401        9.583        0.201      330.172       -2.627      869.299
01/22/2015  06:54:00       -0.147        2.929        5.970        5.320        4.623        5.035       28.301       21.377       25.351        0.006        0.004        2.933        2.300        0.615      330.136       -2.687      869.300
01/22/2015  06:55:00      -13.975       -8.952       -0.548       10.361        9.441        8.317      107.347       89.137       69.180        0.027        0.013       16.596        6.852        0.170      330.140       -2.679      869.304
01/22/2015  06:56:00      -26.848       21.853       -2.217        7.341        6.882        6.587       53.886       47.366       43.386        0.067        0.007       34.617        4.410        0.016      330.059       -2.812      869.310
01/22/2015  06:57:00       -8.979        9.323       -0.622        8.282        6.650        4.652       68.586       44.225       21.641        0.015        0.007       12.944        4.300        0.110      330.086       -2.767      869.325
01/22/2015  06:58:00       -9.810       10.562        3.400        6.352       11.044        6.987       40.344      121.972       48.815        0.022        0.011       14.415        5.537        0.148      330.062       -2.805      869.339
01/22/2015  06:59:00      -10.162        7.262       -1.941       12.459        7.931        7.659      155.236       62.904       58.660        0.022        0.014       12.490        7.484        0.359      330.113       -2.722      869.352
01/22/2015  07:00:00      -18.643       -2.642       -3.184        9.420        7.714        5.683       88.741       59.509       32.297        0.027        0.009       18.829        3.676        0.038      330.085       -2.769      869.359
01/22/2015  07:01:00      -27.427        8.376       -3.520       12.356        8.424        6.922      152.668       70.964       47.911        0.055        0.014       28.677        5.063        0.031      330.103       -2.739      869.357
01/22/2015  07:02:00      -56.684       20.499       -4.519        8.320       11.361        8.326       69.221      129.072       69.315        0.196        0.013       60.277        6.968        0.013      330.026       -2.865      869.343
01/22/2015  07:03:00      -55.025       10.024       -4.145       10.505       12.939        7.309      110.357      167.414       53.422        0.174        0.017       55.931        3.103        0.003      330.004       -2.900      869.334
01/22/2015  07:04:00      -34.810       -1.817       -1.514       19.031       10.762        9.812      362.184      115.825       96.279        0.090        0.029       34.857        8.204        0.055      329.980       -2.937      869.338
01/22/2015  07:05:00      -30.357       -8.419       -3.198       11.202        8.276        6.525      125.492       68.490       42.574        0.062        0.012       31.503        4.226        0.018      329.940       -3.004      869.347
01/22/2015  07:06:00      -41.837      -11.698      -10.568       10.195       10.655        7.395      103.935      113.526       54.689        0.114        0.014       43.441        4.847        0.012      329.979       -2.940      869.367
01/22/2015  07:07:00      -48.188      -10.438       -9.267        6.089        8.166        7.095       37.075       66.680       50.345        0.134        0.008       49.306        2.999        0.004      329.986       -2.928      869.375
01/22/2015  07:08:00      -45.222       -9.797       -9.855        6.627        6.769        4.700       43.916       45.822       22.089        0.117        0.006       46.271        1.963        0.002      329.990       -2.923      869.382
01/22/2015  07:09:00      -26.588       -5.649       -7.887        9.060        5.493        5.674       82.088       30.172       32.191        0.047        0.007       27.181        1.444        0.003      330.068       -2.797      869.383
01/22/2015  07:10:00       -6.890       -2.755       -0.881        6.834        5.332        3.597       46.706       28.431       12.940        0.007        0.004        7.421        1.735        0.055      330.035       -2.847      869.390
01/22/2015  07:11:00       -1.087       -7.329       -0.811        2.612        6.916        7.930        6.821       47.832       62.883        0.009        0.006        7.409        6.037        0.664      330.152       -2.658      869.400
01/22/2015  07:12:00      -15.375       -3.765       -2.764        9.516        5.984       10.011       90.554       35.810      100.217        0.024        0.011       15.830        8.221        0.270      330.090       -2.760      869.418
01/22/2015  07:13:00      -20.573       -5.696        0.830        9.737        7.862        5.323       94.816       61.810       28.337        0.032        0.009       21.347        3.122        0.021      330.076       -2.784      869.440
01/22/2015  07:14:00      -18.830       -0.316       -7.587        8.093        6.222        4.640       65.489       38.718       21.533        0.027        0.006       18.833        2.177        0.013      330.088       -2.764      869.459
01/22/2015  07:15:00      -33.214        3.128       -6.686        7.524        6.356        5.999       56.607       40.400       35.984        0.065        0.007       33.361        3.479        0.011      330.101       -2.746      869.480
01/22/2015  07:16:00      -27.750        0.920       -4.330       14.773        5.664        9.951      218.254       32.084       99.015        0.057        0.017       27.766        8.569        0.095      330.133       -2.690      869.484
01/22/2015  07:17:00      -31.594       -0.968       -7.057       10.406        7.854        6.182      108.286       61.685       38.221        0.063        0.010       31.609        4.030        0.016      330.139       -2.680      869.484
01/22/2015  07:18:00      -31.347       -4.051        0.837        8.404       10.431        9.575       70.625      108.810       91.673        0.064        0.014       31.608        7.743        0.060      330.160       -2.645      869.491
01/22/2015  07:19:00      -45.097       -6.455       -3.171       19.260        8.499        6.837      370.939       72.236       46.748        0.129        0.024       45.556        8.571        0.035      330.147       -2.667      869.500
01/22/2015  07:20:00      -45.661       -9.190       -8.240       12.113        8.994        6.886      146.730       80.895       47.412        0.126        0.014       46.577        5.934        0.016      330.106       -2.734      869.500
01/22/2015  07:21:00      -11.081       -4.132        1.990       15.121        7.857        6.331      228.635       61.737       40.083        0.024        0.017       11.827        8.163        0.476      330.133       -2.690      869.493
01/22/2015  07:22:00       26.746       15.530        4.518       23.488        8.064       10.580      551.704       65.024      111.926        0.085        0.036       30.928        7.735        0.063      330.159       -2.648      869.484
01/22/2015  07:23:00       45.993       17.492        9.152       13.478       14.866       12.323      181.660      221.009      151.860        0.153        0.028       49.207        5.749        0.014      330.206       -2.570      869.487
01/22/2015  07:24:00       60.161       40.359       11.314       16.805       15.512       15.647      282.408      240.612      244.821        0.307        0.038       72.444       10.032        0.019      330.164       -2.640      869.492
01/22/2015  07:25:00       63.706       38.382        1.277       13.347        9.452       12.193      178.143       89.337      148.662        0.297        0.021       74.375        6.725        0.008      330.104       -2.736      869.506
01/22/2015  07:26:00       54.413       33.748       -1.188       14.763       15.832       14.766      217.943      250.662      218.039        0.239        0.034       64.029        9.643        0.023      330.078       -2.782      869.511
01/22/2015  07:27:00       53.582       37.425       -0.030       17.551       13.423       11.391      308.054      180.165      129.766        0.244        0.031       65.358        7.852        0.014      330.061       -2.807      869.513
01/22/2015  07:28:00       58.278       28.939       -0.483       16.646       17.492       14.391      277.078      305.964      207.111        0.251        0.040       65.067       12.415        0.036      330.049       -2.827      869.510
01/22/2015  07:29:00       20.559       19.781       -0.030       22.368       14.445       10.245      500.332      208.646      104.964        0.081        0.041       28.530       10.055        0.124      330.014       -2.885      869.515
01/22/2015  07:30:00        3.122       22.289       -1.411        9.741       10.341        5.528       94.887      106.944       30.554        0.037        0.012       22.507        2.592        0.013      330.028       -2.861      869.519
01/22/2015  07:31:00        1.080       38.295       -5.723        5.760        5.945        4.315       33.183       35.348       18.623        0.079        0.004       38.310        2.463        0.004      330.073       -2.787      869.519
01/22/2015  07:32:00       27.000       25.927       -2.774        9.040       12.261        8.202       81.725      150.342       67.272        0.085        0.015       37.433        5.868        0.025      330.115       -2.720      869.526
01/22/2015  07:33:00       29.725       27.174        1.715       18.331       11.895       13.033      336.007      141.499      169.869        0.114        0.032       40.274        6.932        0.030      330.093       -2.755      869.539
01/22/2015  07:34:00       46.589       35.663        1.016        9.739        8.047        7.988       94.843       64.753       63.803        0.183        0.011       58.672        4.611        0.006      330.103       -2.741      869.546
01/22/2015  07:35:00       36.597       36.260        0.703        8.810       10.689        7.944       77.619      114.250       63.111        0.145        0.013       51.518        4.763        0.009      330.116       -2.717      869.547
01/22/2015  07:36:00       21.741       26.230        3.926       13.272       12.708       11.295      176.157      161.481      127.583        0.082        0.023       34.068        9.563        0.079      330.162       -2.643      869.545
01/22/2015  07:37:00       16.525       17.839        1.949       11.630       14.901       10.300      135.256      222.053      106.082        0.053        0.023       24.317        6.917        0.081      330.138       -2.684      869.538
01/22/2015  07:38:00       26.466       14.083        2.319       19.083       15.562       13.564      364.164      242.171      183.994        0.085        0.040       29.980        8.797        0.086      330.142       -2.675      869.547
01/22/2015  07:39:00       29.067       36.378        1.084       21.409       19.778       15.924      458.366      391.174      253.558        0.164        0.055       46.564       14.079        0.091      330.134       -2.689      869.558
01/22/2015  07:40:00       26.334       50.126       -4.575       17.964       14.277       13.646      322.706      203.841      186.220        0.197        0.036       56.623       11.323        0.040      330.086       -2.765      869.574
01/22/2015  07:41:00       30.633       40.577        0.767       14.009       16.976       16.281      196.266      288.189      265.086        0.167        0.037       50.842       13.404        0.070      330.123       -2.707      869.588
01/22/2015  07:42:00       45.943       40.417        0.205       16.363       14.386       13.150      267.738      206.957      172.912        0.220        0.032       61.191        8.589        0.020      330.112       -2.726      869.584
01/22/2015  07:43:00       62.673       41.046       -2.208       22.421       14.453       14.136      502.718      208.895      199.830        0.326        0.046       74.918        4.584        0.004      330.110       -2.728      869.588
01/22/2015  07:44:00       59.265       30.802        1.324       13.367       13.663       14.252      178.667      186.668      203.120        0.252        0.028       66.791        8.690        0.017      330.117       -2.716      869.588
01/22/2015  07:45:00       25.017       21.754        3.022       16.662       18.378       13.245      277.630      337.733      175.438        0.095        0.040       33.152       10.974        0.110      330.173       -2.625      869.592
01/22/2015  07:46:00       31.835       33.146        2.799       18.586       15.795       15.153      345.457      249.468      229.619        0.147        0.041       45.958       12.690        0.076      330.182       -2.611      869.593
01/22/2015  07:47:00       33.027       26.326        1.083       19.548       20.953       14.721      382.123      439.023      216.718        0.141        0.052       42.236        8.983        0.045      330.228       -2.533      869.599
01/22/2015  07:48:00       39.959       33.383       -0.733       20.092       13.715       14.518      403.707      188.108      210.785        0.176        0.040       52.068        8.487        0.027      330.206       -2.570      869.607
01/22/2015  07:49:00       27.992       13.355        2.810       20.332       18.699       14.830      413.408      349.642      219.939        0.098        0.049       31.015       11.681        0.142      330.248       -2.502      869.614
01/22/2015  07:50:00       51.158       38.010       -4.147       17.091       10.667        9.799      292.089      113.788       96.029        0.229        0.025       63.733        5.653        0.008      330.183       -2.607      869.619
01/22/2015  07:51:00       28.381       27.283        0.019       14.822       14.268       12.604      219.685      203.584      158.863        0.107        0.029       39.368        6.103        0.024      330.224       -2.540      869.637
01/22/2015  07:52:00       26.737       36.077        1.848       13.201       16.017        9.982      174.268      256.542       99.645        0.128        0.027       44.905        8.577        0.036      330.231       -2.527      869.647
01/22/2015  07:53:00       19.146       24.266        5.455       18.739       14.528       13.987      351.166      211.055      195.641        0.087        0.038       30.910        7.830        0.064      330.302       -2.412      869.651
01/22/2015  07:54:00       12.875       34.951       -2.456       13.136       11.817        6.887      172.557      139.645       47.436        0.088        0.018       37.247        6.786        0.033      330.297       -2.420      869.653
01/22/2015  07:55:00       23.476       35.491        4.586       13.360       13.823       11.235      178.491      191.081      126.215        0.116        0.025       42.553        9.754        0.053      330.325       -2.375      869.655
01/22/2015  07:56:00       34.884       32.180        5.607       15.693       13.087       13.585      246.263      171.272      184.548        0.144        0.030       47.460       12.071        0.065      330.310       -2.399      869.662
01/22/2015  07:57:00       76.600       45.997      -10.487       21.092       14.174       12.712      444.890      200.892      161.597        0.445        0.040       89.349        8.880        0.010      330.277       -2.452      869.652
01/22/2015  07:58:00       89.650       49.386       -3.259       21.583       16.103       13.930      465.815      259.301      194.032        0.570        0.046      102.353        7.383        0.005      330.206       -2.569      869.658
01/22/2015  07:59:00       61.163       49.061       -4.873       18.124       20.153       15.334      328.474      406.126      235.119        0.357        0.048       78.409       11.519        0.022      330.215       -2.555      869.653
01/22/2015  08:00:00       47.972       38.570        0.002       24.796       21.796       15.119      614.849      475.087      228.580        0.255        0.066       61.555       11.942        0.038      330.199       -2.581      869.653
01/22/2015  08:01:00       14.771       12.678        4.794       13.272       11.487       15.722      176.145      131.961      247.166        0.048        0.028       19.465       10.134        0.271      330.286       -2.438      869.668
01/22/2015  08:02:00        9.427       17.360       -0.997       10.505        6.259        5.947      110.362       39.180       35.367        0.029        0.009       19.754        5.756        0.085      330.298       -2.419      869.684
01/22/2015  08:03:00       -8.274       19.120       -3.531        7.040       13.206        5.379       49.558      174.396       28.935        0.035        0.013       20.833        4.665        0.050      330.356       -2.326      869.707
01/22/2015  08:04:00       -3.647       16.609       -4.207        4.934       13.973        6.337       24.347      195.250       40.155        0.028        0.013       17.005        5.979        0.124      330.416       -2.226      869.729
01/22/2015  08:05:00       -4.082       15.258        2.766        8.627        8.604        8.034       74.420       74.026       64.546        0.024        0.011       15.794        4.607        0.085      330.481       -2.119      869.733
01/22/2015  08:06:00        4.641        9.781       11.590        9.731        7.849        6.736       94.691       61.613       45.368        0.023        0.010       10.826        3.077        0.081      330.553       -2.002      869.744
01/22/2015  08:07:00       23.205       37.835        0.210       15.059       13.553        9.282      226.782      183.673       86.146        0.123        0.025       44.384        9.186        0.043      330.437       -2.191      869.747
01/22/2015  08:08:00       28.138       25.358        0.107       13.034       10.768        9.224      169.876      115.958       85.091        0.090        0.019       37.878        3.567        0.009      330.465       -2.145      869.758
01/22/2015  08:09:00        3.541       29.273        0.836        8.366       16.919       11.176       69.987      286.245      124.913        0.068        0.024       29.487       11.421        0.150      330.602       -1.920      869.773
01/22/2015  08:10:00       -4.322       24.778       -2.633        6.628       11.881        6.552       43.933      141.160       42.925        0.043        0.011       25.152        4.866        0.037      330.523       -2.050      869.767
01/22/2015  08:11:00       -1.138       21.800        4.439        7.136       11.080       10.586       50.924      122.772      112.057        0.039        0.014       21.830        8.431        0.149      330.688       -1.778      869.771
01/22/2015  08:12:00        2.668       33.109        4.100        8.666       11.697        9.779       75.103      136.824       95.620        0.071        0.015       33.216        5.002        0.023      330.644       -1.852      869.760
01/22/2015  08:13:00       10.878       14.798       10.017        8.653       11.660       10.612       74.869      135.954      112.612        0.038        0.016       18.366        7.842        0.182      330.720       -1.727      869.765
01/22/2015  08:14:00       23.250       21.532        4.737       18.166       16.124       14.399      330.010      259.983      207.329        0.091        0.040       31.689        7.607        0.058      330.605       -1.915      869.764
01/22/2015  08:15:00       28.793       31.785       -0.333       22.164       16.095       13.810      491.224      259.063      190.709        0.139        0.047       42.887       12.051        0.079      330.575       -1.964      869.752
01/22/2015  08:16:00       41.810       19.770       -1.858       20.915       13.989       14.361      437.434      195.690      206.236        0.149        0.042       46.248        5.539        0.014      330.588       -1.944      869.740
01/22/2015  08:17:00       12.784        5.353        0.107       10.788        6.925       11.715      116.375       47.963      137.236        0.025        0.015       13.860        5.904        0.181      330.663       -1.821      869.729
01/22/2015  08:18:00        8.164       10.298        0.648       17.173        8.699       11.832      294.918       75.676      140.006        0.034        0.026       13.141        9.252        0.496      330.634       -1.867      869.732
01/22/2015  08:19:00      -23.321        6.643      -10.270        8.524        5.675        5.603       72.660       32.208       31.393        0.041        0.007       24.248        2.423        0.010      330.602       -1.920      869.732
01/22/2015  08:20:00      -30.640       -2.326       -8.387        8.613        7.202        8.783       74.184       51.873       77.136        0.061        0.010       30.728        5.680        0.034      330.618       -1.895      869.752
01/22/2015  08:21:00      -22.145       15.123        1.649       14.871       18.065       15.962      221.135      326.339      254.781        0.076        0.040       26.816       15.317        0.326      330.711       -1.741      869.751
01/22/2015  08:22:00       -9.894        1.101       13.416       27.226        7.873       14.274      741.253       61.989      203.757        0.064        0.050        9.955       15.299        2.362      330.874       -1.473      869.775
01/22/2015  08:23:00      -33.625       -3.351       -8.452        9.616        7.088        8.258       92.474       50.246       68.192        0.071        0.011       33.792        6.834        0.041      330.590       -1.938      869.774
01/22/2015  08:24:00      -16.493        3.998       -4.364       11.115       16.199        6.168      123.543      262.404       38.041        0.037        0.021       16.971        6.045        0.127      330.651       -1.840      869.782
01/22/2015  08:25:00      -48.009       14.841      -10.317        8.489       13.265        7.047       72.064      175.953       49.654        0.146        0.015       50.250        6.631        0.017      330.620       -1.890      869.784
01/22/2015  08:26:00      -63.707       17.164       -7.008       16.855       17.081       11.398      284.091      291.761      129.917        0.255        0.035       65.979        9.097        0.019      330.641       -1.856      869.794
01/22/2015  08:27:00      -60.319       -1.670       -3.340       24.873       18.476       10.523      618.678      341.361      110.742        0.236        0.054       60.342       12.519        0.043      330.680       -1.792      869.804
01/22/2015  08:28:00      -49.276      -15.305        0.774       22.712       17.376       12.006      515.842      301.912      144.151        0.181        0.048       51.598       12.703        0.061      330.734       -1.702      869.805
01/22/2015  08:29:00       -4.716       -6.594        8.283       17.978       10.381       13.282      323.201      107.767      176.425        0.037        0.030        8.107        8.842        1.189      330.853       -1.507      869.820
01/22/2015  08:30:00      -36.941       -5.921       -6.584       13.146       19.249       10.114      172.827      370.509      102.288        0.104        0.032       37.413        7.342        0.039      330.816       -1.569      869.829
01/22/2015  08:31:00      -75.187      -20.809       -8.080       31.407       30.397       15.349      986.383      923.948      235.604        0.415        0.107       78.013       15.770        0.041      330.760       -1.660      869.853
01/22/2015  08:32:00     -106.646      -63.939       -8.636       26.618       22.100       13.451      708.517      488.399      180.933        0.846        0.069      124.345        1.935        0.000      330.699       -1.761      869.875
01/22/2015  08:33:00      -70.249      -34.746       -3.872       45.738       22.703       20.687     2091.937      515.442      427.934        0.460        0.152       78.372       21.151        0.073      330.826       -1.553      869.890
01/22/2015  08:34:00      -51.380      -41.322        3.017       47.960       29.715       20.556     2300.120      882.969      422.530        0.398        0.180       65.935       23.396        0.126      330.785       -1.619      869.897
01/22/2015  08:35:00      -11.830      -17.564       16.143       27.519       23.114       21.213      757.299      534.237      450.001        0.122        0.087       21.176       20.699        0.955      330.932       -1.379      869.910
01/22/2015  08:36:00      -83.188        5.726       -6.913       30.992       21.023       14.138      960.486      441.978      199.876        0.430        0.080       83.385       15.146        0.033      330.813       -1.575      869.920
01/22/2015  08:37:00     -108.426       11.623      -12.299       14.584       22.823       12.297      212.703      520.884      151.209        0.646        0.044      109.048        6.066        0.003      330.838       -1.533      869.935
01/22/2015  08:38:00      -84.901       -5.111       -6.803       21.006       18.885       13.266      441.258      356.639      175.992        0.413        0.049       85.054        8.654        0.010      330.900       -1.430      869.941
01/22/2015  08:39:00      -69.801      -23.158       -8.208       25.811       33.723       16.768      666.232     1137.235      281.162        0.378        0.104       73.543       15.512        0.044      330.899       -1.432      869.947
01/22/2015  08:40:00      -93.569      -12.433       -7.010       35.871       26.205       17.764     1286.732      686.703      315.566        0.562        0.114       94.392       13.551        0.021      330.830       -1.546      869.936
01/22/2015  08:41:00      -81.945       14.646       -8.531       23.301       22.132       13.972      542.953      489.815      195.228        0.411        0.061       83.244       13.290        0.025      330.883       -1.459      869.938
01/22/2015  08:42:00      -70.087       37.736       -8.564       23.736       26.890       14.422      563.381      723.095      207.994        0.395        0.075       79.600       10.440        0.017      330.993       -1.278      869.952
01/22/2015  08:43:00      -15.097        9.723       -7.026       15.100        7.926       13.615      227.996       62.829      185.364        0.042        0.024       17.957       10.282        0.328      331.177       -0.975      869.959
01/22/2015  08:44:00      -57.881       -0.123       -2.006       27.087       17.775       11.775      733.728      315.937      138.658        0.227        0.059       57.881       15.751        0.074      331.096       -1.109      869.976
01/22/2015  08:45:00      -86.484       -3.845       -8.488       19.489       13.823       12.592      379.820      191.084      158.561        0.415        0.036       86.570        7.755        0.008      331.062       -1.166      869.977
01/22/2015  08:46:00      -82.876        5.034      -11.375       12.837        9.968        8.456      164.782       99.357       71.498        0.368        0.017       83.029        5.688        0.005      331.062       -1.167      869.984
01/22/2015  08:47:00      -51.165        4.298      -12.619       25.001       17.347       11.962      625.050      300.903      143.091        0.193        0.053       51.345        7.826        0.023      331.177       -0.977      869.997
01/22/2015  08:48:00      -20.676       35.460       -5.892       11.499       12.777       10.656      132.220      163.250      113.540        0.106        0.020       41.048        5.168        0.016      331.317       -0.745      869.991
01/22/2015  08:49:00      -23.096       28.989        0.249       16.976       14.284       15.779      288.184      204.020      248.982        0.106        0.037       37.065       11.081        0.089      331.400       -0.609      869.998
01/22/2015  08:50:00        2.672       29.210       -5.730        9.402       21.320       10.910       88.391      454.545      119.027        0.078        0.033       29.332        8.143        0.077      331.468       -0.497      870.000
01/22/2015  08:51:00        5.652        2.360       21.017       15.845        8.035        7.986      251.051       64.561       63.778        0.043        0.019        6.125        5.732        0.876      332.133        0.598      869.988
01/22/2015  08:52:00       18.075       14.594        6.011       15.886       10.286       12.974      252.381      105.795      168.327        0.055        0.026       23.232        7.339        0.100      331.541       -0.377      869.984
01/22/2015  08:53:00       37.718       29.461        8.104       20.536       16.582       22.500      421.735      274.947      506.242        0.178        0.060       47.861       12.608        0.069      331.497       -0.451      869.987
01/22/2015  08:54:00       21.189       26.553      -12.394       28.980       45.986       17.126      839.861     2114.755      293.300        0.228        0.162       33.971       15.139        0.199      331.599       -0.283      869.977
01/22/2015  08:55:00       39.089       42.165        8.750       32.855       20.985       20.937     1079.482      440.378      438.351        0.267        0.098       57.497       15.455        0.072      331.669       -0.167      869.975
01/22/2015  08:56:00       17.862       46.285       -2.566       25.859       19.726       15.992      668.705      389.101      255.733        0.189        0.066       49.612       12.211        0.061      331.519       -0.414      869.973
01/22/2015  08:57:00      -12.605       39.176        6.078       15.087       19.541       20.892      227.610      381.838      436.468        0.139        0.052       41.154       14.769        0.129      331.638       -0.217      869.990
01/22/2015  08:58:00        2.960       47.328        5.272       16.819       21.853       15.317      282.877      477.550      234.608        0.164        0.050       47.421       12.600        0.071      331.803        0.054      870.008
01/22/2015  08:59:00       40.211       46.436       -4.702       25.194       16.065       22.517      634.735      258.092      507.014        0.260        0.070       61.427       18.466        0.090      331.601       -0.278      870.022
01/22/2015  09:00:00       13.958       31.079       41.844       37.007       29.855       33.249     1369.537      891.321     1105.483        0.314        0.168       34.069       11.726        0.118      331.954        0.302      870.036
01/22/2015  09:01:00        6.602       26.234       54.657       18.115       26.062       17.750      328.169      679.228      315.061        0.252        0.066       27.052       10.336        0.146      331.872        0.167      870.053
01/22/2015  09:02:00       14.470       -8.591       23.105       23.839       37.403       24.732      568.309     1399.020      611.658        0.170        0.129       16.828       12.959        0.593      331.931        0.265      870.055
01/22/2015  09:03:00       42.156      -19.589       25.198       34.564       30.148       29.732     1194.684      908.903      884.006        0.289        0.149       46.485       16.731        0.130      331.814        0.073      870.047
01/22/2015  09:04:00        9.416       -1.570       27.909       26.231       36.830       40.709      688.084     1356.482     1657.204        0.229        0.185        9.546       19.360        4.113      331.975        0.338      870.039
01/22/2015  09:05:00       40.992       73.530       62.797       45.778       50.232       32.337     2095.660     2523.270     1045.674        0.835        0.283       84.184       22.663        0.072      331.743       -0.045      870.036
01/22/2015  09:06:00       66.896       94.791       55.073       54.358       34.442       34.038     2954.807     1186.239     1158.605        1.090        0.265      116.019       27.513        0.056      331.648       -0.200      870.037
01/22/2015  09:07:00       37.360       70.116       52.818       38.402       34.773       32.769     1474.698     1209.180     1073.776        0.643        0.188       79.449       27.392        0.119      331.864        0.154      870.045
01/22/2015  09:08:00       48.596       73.800       60.777       39.048       37.332       37.635     1524.750     1393.652     1416.390        0.792        0.217       88.363       29.297        0.110      331.759       -0.018      870.054
01/22/2015  09:09:00       97.951       76.418       32.500       29.629       24.420       28.668      877.862      596.327      821.878        0.939        0.115      124.234       18.899        0.023      331.596       -0.286      870.064
01/22/2015  09:10:00       74.353       42.420        8.715       30.995       18.485       21.741      960.709      341.690      472.652        0.459        0.089       85.603       17.043        0.040      331.566       -0.336      870.071
01/22/2015  09:11:00       65.040       33.843       10.092       31.191       34.581       23.147      972.901     1195.852      535.786        0.409        0.135       73.318       22.277        0.092      331.767       -0.006      870.066
01/22/2015  09:12:00       40.307       64.383       35.770       39.641       20.923       24.673     1571.414      437.757      608.767        0.483        0.131       75.959       22.462        0.087      331.775        0.007      870.069
01/22/2015  09:13:00       68.056       78.464       47.666       46.604       27.217       41.018     2171.973      740.777     1682.459        0.883        0.230      103.866       34.467        0.110      331.679       -0.150      870.072
01/22/2015  09:14:00       75.415       85.398       46.428       38.489       34.290       30.159     1481.388     1175.772      909.543        0.935        0.178      113.931       19.728        0.030      331.889        0.195      870.059
01/22/2015  09:15:00       27.041       55.001       59.867       38.958       44.420       28.070     1517.718     1973.107      787.912        0.581        0.214       61.289       16.501        0.072      332.061        0.479      870.061
01/22/2015  09:16:00       55.381       61.017       69.790       54.536       39.979       31.743     2974.129     1598.332     1007.595        0.862        0.279       82.403       22.835        0.077      331.953        0.300      870.066
01/22/2015  09:17:00       83.231       77.984       58.804       36.444       26.012       37.888     1328.154      676.613     1435.535        0.995        0.172      114.057       16.031        0.020      331.741       -0.047      870.097
01/22/2015  09:18:00       67.428       69.723       46.061       41.924       30.567       34.697     1757.621      934.349     1203.881        0.771        0.195       96.994       23.602        0.059      331.699       -0.117      870.141
01/22/2015  09:19:00       63.765       67.469       39.090       49.574       37.914       39.969     2457.540     1437.472     1597.499        0.782        0.275       92.834       34.012        0.134      331.765       -0.009      870.180
01/22/2015  09:20:00       74.049       49.594       20.905       32.959       21.293       30.442     1086.283      453.397      926.732        0.542        0.123       89.123       15.589        0.031      331.864        0.154      870.192
01/22/2015  09:21:00       77.395       56.978       30.106       31.244       37.103       28.234      976.188     1376.596      797.166        0.665        0.157       96.106       15.644        0.026      331.849        0.129      870.197
01/22/2015  09:22:00       54.282       43.722       17.792       37.963       26.213       30.533     1441.188      687.101      932.258        0.412        0.153       69.701       19.963        0.082      331.956        0.306      870.216
01/22/2015  09:23:00       49.882       38.746       70.800       49.736       40.704       25.867     2473.681     1656.790      669.114        0.690        0.240       63.162       26.295        0.173      331.987        0.357      870.239
01/22/2015  09:24:00      103.460       68.059       23.442       37.700       36.711       45.405     1421.305     1347.663     2061.588        1.036        0.242      123.839       31.910        0.066      331.789        0.030      870.252
01/22/2015  09:25:00      102.820       66.465        6.316       30.903       30.619       31.037      954.966      937.518      963.276        0.894        0.143      122.432       12.791        0.011      331.899        0.212      870.258
01/22/2015  09:26:00       81.882       82.329        8.276       40.237       30.829       29.221     1618.998      950.406      853.868        0.849        0.171      116.115        5.090        0.002      331.872        0.167      870.266
01/22/2015  09:27:00       56.973       52.089       -2.018       32.841       26.719       24.825     1078.501      713.892      616.292        0.419        0.120       77.196        7.189        0.009      331.755       -0.026      870.247
01/22/2015  09:28:00       94.924       60.883       17.294       33.951       30.950       23.979     1152.689      957.907      574.981        0.785        0.134      112.771       15.216        0.018      331.746       -0.041      870.242
01/22/2015  09:29:00       63.737       52.512        5.116       43.289       28.164       19.310     1873.942      793.223      372.885        0.494        0.152       82.583       13.828        0.028      331.718       -0.086      870.235
01/22/2015  09:30:00      102.815       65.748       10.361       38.804       37.033       32.161     1505.752     1371.451     1034.313        0.946        0.196      122.040       15.836        0.017      331.860        0.149      870.225
01/22/2015  09:31:00       94.307       43.609       10.040       31.610       27.649       26.455      999.208      764.481      699.842        0.668        0.123      103.902       20.220        0.038      331.940        0.280      870.214
01/22/2015  09:32:00       85.873       61.830       25.843       34.269       29.235       35.482     1174.352      854.689     1258.956        0.758        0.164      105.816       17.225        0.026      331.826        0.092      870.211
01/22/2015  09:33:00       93.262       72.756       13.924       32.019       31.267       23.269     1025.210      977.643      541.461        0.836        0.127      118.284       19.810        0.028      331.848        0.128      870.219
01/22/2015  09:34:00       43.299       58.682       38.713       31.583       30.323       25.299      997.499      919.465      640.064        0.469        0.128       72.928       13.324        0.033      332.171        0.660      870.219
01/22/2015  09:35:00       46.775       47.352       33.407       47.981       37.422       35.748     2302.144     1400.394     1277.922        0.526        0.249       66.559       28.386        0.182      332.198        0.705      870.225
01/22/2015  09:36:00       35.592       60.298       63.636       55.147       34.591       36.047     3041.142     1196.558     1299.417        0.724        0.277       70.018       37.802        0.291      332.168        0.656      870.221
01/22/2015  09:37:00      114.483       59.401       10.820       22.458       24.163       27.658      504.364      583.844      764.978        0.930        0.093      128.976        8.507        0.004      331.803        0.054      870.224
01/22/2015  09:38:00       96.972       83.072       14.958       46.181       35.411       38.138     2132.669     1253.904     1454.505        1.068        0.242      127.689       14.104        0.012      331.903        0.219      870.201
01/22/2015  09:39:00       95.603       56.828       15.315       41.490       31.018       31.012     1721.438      962.089      961.722        0.812        0.182      111.218       19.549        0.031      332.033        0.433      870.203
01/22/2015  09:40:00       56.138       44.656       -3.358       28.343       32.055       27.329      803.348     1027.518      746.847        0.387        0.129       71.733       12.038        0.028      332.202        0.711      870.196
01/22/2015  09:41:00       37.779       44.615       42.245       43.840       45.561       42.481     1921.972     2075.771     1804.675        0.550        0.290       58.461       39.298        0.452      332.375        0.996      870.216
01/22/2015  09:42:00       87.303       51.564       26.216       24.686       14.118       24.173      609.392      199.311      584.337        0.618        0.070      101.394       13.054        0.017      332.025        0.418      870.226
01/22/2015  09:43:00       53.956       69.168       21.468       52.632       43.253       36.198     2770.097     1870.820     1310.282        0.705        0.298       87.724       29.254        0.111      332.292        0.860      870.231
01/22/2015  09:44:00       37.774       68.968       83.084       67.897       42.913       37.500     4609.970     1841.541     1406.226        1.047        0.393       78.635       40.753        0.269      332.427        1.082      870.248
01/22/2015  09:45:00       48.793       -0.248       25.625       59.418       43.217       33.096     3530.493     1867.667     1095.338        0.476        0.325       48.794       32.341        0.439      332.431        1.090      870.259
01/22/2015  09:46:00        9.057       36.437       38.997       36.772       40.199       32.994     1352.151     1615.965     1088.632        0.349        0.203       37.545       25.845        0.474      332.710        1.549      870.264
01/22/2015  09:47:00       91.575       67.055       25.050       75.991       42.607       42.084     5774.594     1815.336     1771.067        1.143        0.468      113.501       22.376        0.039      332.374        0.994      870.257
01/22/2015  09:48:00       92.779       68.154       45.493       61.029       42.445       42.721     3724.496     1801.616     1825.125        1.134        0.368      115.121       38.887        0.114      332.423        1.077      870.248
01/22/2015  09:49:00       12.608       55.656       82.751       44.265       36.378       31.388     1959.373     1323.388      985.216        0.719        0.213       57.066       27.585        0.234      332.683        1.505      870.240
01/22/2015  09:50:00       76.727       94.871       85.689       50.040       43.603       47.498     2504.051     1901.243     2256.049        1.444        0.333      122.014       30.200        0.061      332.498        1.199      870.248
01/22/2015  09:51:00       61.020       60.353       63.029       39.574       35.110       42.734     1566.117     1232.741     1826.218        0.798        0.231       85.825       28.592        0.111      332.415        1.063      870.232
01/22/2015  09:52:00       44.558       86.553       86.505       61.891       49.111       36.196     3830.500     2411.886     1310.150        1.226        0.378       97.349       30.147        0.096      332.474        1.159      870.221
01/22/2015  09:53:00       18.308       50.208       88.947       42.001       68.650       37.387     1764.068     4712.879     1397.753        0.932        0.394       53.441       38.240        0.512      332.684        1.507      870.220
01/22/2015  09:54:00      133.785       75.883        6.401       33.033       24.539       27.962     1091.149      602.165      781.854        1.309        0.124      153.807       14.413        0.009      332.253        0.796      870.230
01/22/2015  09:55:00       87.342       88.672       17.594       42.598       26.548       29.225     1814.604      704.809      854.079        0.959        0.169      124.465       23.476        0.036      332.387        1.017      870.240
01/22/2015  09:56:00       76.097       63.796       16.137       42.442       30.981       34.037     1801.365      959.834     1158.490        0.702        0.196       99.301       24.908        0.063      332.572        1.322      870.234
01/22/2015  09:57:00       58.095       71.507       38.172       47.228       37.923       37.339     2230.508     1438.151     1394.175        0.750        0.253       92.132       31.225        0.115      332.685        1.507      870.215
01/22/2015  09:58:00      131.017      109.018       60.372       48.803       37.059       45.972     2381.687     1373.363     2113.438        1.928        0.293      170.442       25.167        0.022      332.362        0.975      870.223
01/22/2015  09:59:00      115.941       75.781       37.962       45.868       33.719       38.894     2103.854     1136.972     1512.753        1.269        0.238      138.511       27.119        0.038      332.240        0.775      870.224
01/22/2015  10:00:00      125.604      101.288       19.250       31.097       33.287       29.005      967.049     1108.024      841.287        1.466        0.146      161.356       14.606        0.008      332.181        0.678      870.221
01/22/2015  10:01:00       93.379       62.922       12.021       36.960       41.750       31.423     1366.045     1743.088      987.399        0.846        0.205      112.601       23.919        0.045      332.390        1.021      870.232
01/22/2015  10:02:00      110.966       61.375        7.447       34.409       26.070       28.245     1183.991      679.648      797.806        0.940        0.133      126.808       15.260        0.014      332.266        0.817      870.237
01/22/2015  10:03:00      140.564       66.635        6.068       51.374       31.636       27.097     2639.318     1000.856      734.257        1.430        0.219      155.558        7.853        0.003      332.283        0.845      870.240
01/22/2015  10:04:00       85.947       67.779       -3.698       38.663       29.483       30.190     1494.844      869.221      911.437        0.763        0.164      109.458       15.661        0.020      332.597        1.362      870.241
01/22/2015  10:05:00       22.057       32.473       -1.019       32.334       37.787       32.239     1045.496     1427.820     1039.358        0.253        0.176       39.255       24.470        0.389      332.679        1.499      870.252
01/22/2015  10:06:00        8.613       21.975       22.487       26.531       20.383       19.469      703.902      415.456      379.046        0.128        0.075       23.603       17.348        0.540      332.960        1.964      870.258
01/22/2015  10:07:00       64.472       43.891        4.582       52.866       32.301       33.219     2794.827     1043.339     1103.524        0.552        0.247       77.994       32.240        0.171      332.866        1.807      870.244
01/22/2015  10:08:00       73.529       70.327       31.562       45.856       42.527       42.574     2102.774     1808.586     1812.538        0.854        0.286      101.747       28.746        0.080      332.726        1.576      870.243
01/22/2015  10:09:00       39.561       22.302       40.460       53.901       53.822       38.974     2905.345     2896.798     1518.983        0.551        0.366       45.414       26.302        0.335      332.853        1.786      870.242
01/22/2015  10:10:00       24.954       30.965       23.081       29.663       30.693       28.250      879.908      942.058      798.087        0.237        0.131       39.768       15.285        0.148      332.813        1.720      870.266
01/22/2015  10:11:00       92.628       58.994       12.094       39.188       28.676       22.154     1535.679      822.304      490.794        0.753        0.142      109.819       13.117        0.014      332.593        1.357      870.280
01/22/2015  10:12:00       92.892       66.193       18.750       39.971       30.936       33.594     1597.704      957.034     1128.568        0.852        0.184      114.063       26.144        0.053      332.590        1.350      870.286
01/22/2015  10:13:00       75.916       72.555       12.851       34.172       27.799       30.974     1167.746      772.776      959.365        0.705        0.145      105.012       23.001        0.048      332.671        1.485      870.291
01/22/2015  10:14:00       54.364       60.791       16.076       33.823       23.154       27.442     1143.987      536.130      753.061        0.467        0.122       81.554       18.582        0.052      332.634        1.425      870.293
01/22/2015  10:15:00       31.302       42.118      -10.174       35.506       33.475       17.954     1260.658     1120.574      322.342        0.278        0.135       52.476       15.187        0.084      332.651        1.452      870.320
01/22/2015  10:16:00       29.199       59.561        4.693       35.619       35.077       24.725     1268.685     1230.394      611.324        0.377        0.156       66.333       23.233        0.123      332.627        1.411      870.324
01/22/2015  10:17:00       11.517       26.947        1.300       30.844       38.898       21.402      951.358     1513.083      458.034        0.189        0.146       29.305       15.306        0.273      332.778        1.663      870.319
01/22/2015  10:18:00       43.448       52.801       -8.384       40.269       34.556       27.433     1621.578     1194.116      752.577        0.416        0.178       68.379       17.903        0.069      332.744        1.605      870.307
01/22/2015  10:19:00        7.906       42.066       44.265       42.897       30.709       44.021     1840.191      943.035     1937.873        0.426        0.236       42.802       33.440        0.610      332.982        1.999      870.298
01/22/2015  10:20:00        4.504       19.138       32.212       23.294       30.429       22.942      542.595      925.946      526.345        0.171        0.100       19.661       14.230        0.524      333.039        2.094      870.306
01/22/2015  10:21:00       18.389       26.024       28.334       29.006       31.862       30.111      841.332     1015.212      906.678        0.229        0.138       31.866       20.524        0.415      332.999        2.028      870.312
01/22/2015  10:22:00       55.833       40.844       34.021       43.190       38.444       28.261     1865.334     1477.924      798.667        0.504        0.207       69.178       27.833        0.162      332.748        1.614      870.309
01/22/2015  10:23:00       70.051       44.456        1.652       29.225       27.025       23.710      854.120      730.341      562.175        0.452        0.107       82.967        8.950        0.012      332.764        1.639      870.300
01/22/2015  10:24:00       62.361       45.514        8.110       34.679       31.015       32.167     1202.605      961.952     1034.706        0.461        0.160       77.204       20.498        0.070      332.882        1.835      870.278
01/22/2015  10:25:00      117.341       88.677        4.087       47.620       36.131       29.659     2267.664     1305.463      879.682        1.305        0.223      147.080       17.172        0.014      332.704        1.539      870.252
01/22/2015  10:26:00      125.826       89.287        3.840       26.615       21.211       19.559      708.332      449.885      382.544        1.268        0.077      154.286        8.311        0.003      332.610        1.383      870.243
01/22/2015  10:27:00       62.437       77.084       -3.975       36.760       30.464       24.540     1351.297      928.036      602.230        0.637        0.144       99.198       17.372        0.031      332.579        1.332      870.239
01/22/2015  10:28:00       64.299       67.117       -6.744       19.728       27.615       15.456      389.195      762.592      238.873        0.504        0.070       92.947       12.384        0.018      332.629        1.416      870.209
01/22/2015  10:29:00       61.090       22.789        1.076       36.922       29.127       20.966     1363.226      848.382      439.566        0.345        0.133       65.202        9.460        0.021      332.672        1.487      870.197
01/22/2015  10:30:00       22.658       58.601      -10.008       28.059       32.223       16.879      787.315     1038.308      284.902        0.308        0.106       62.829       16.631        0.070      332.814        1.722      870.173
01/22/2015  10:31:00       80.327       47.165        7.330       48.126       32.847       26.649     2316.128     1078.951      710.189        0.642        0.205       93.150       10.408        0.012      332.932        1.917      870.132
01/22/2015  10:32:00       77.721       63.983       -2.304       44.471       47.216       23.337     1977.654     2229.369      544.626        0.744        0.238      100.670       17.909        0.032      332.807        1.711      870.100
01/22/2015  10:33:00       64.632       67.909        5.772       31.175       27.387       29.524      971.872      750.075      871.693        0.571        0.130       93.749       20.935        0.050      332.858        1.795      870.087
01/22/2015  10:34:00       58.393       48.048        5.758       28.012       18.813       19.993      784.652      353.946      399.707        0.364        0.077       75.620       10.656        0.020      332.813        1.720      870.066
01/22/2015  10:35:00       22.339       23.358        5.627       19.421       19.374       20.759      377.190      375.334      430.917        0.113        0.059       32.320       17.070        0.279      333.012        2.049      870.063
01/22/2015  10:36:00       26.341       18.608        9.203       16.437       17.491       13.339      270.185      305.942      177.935        0.094        0.038       32.250        9.769        0.092      332.977        1.992      870.054
01/22/2015  10:37:00       38.858       49.446       43.101       31.900       28.116       28.301     1017.628      790.532      800.958        0.421        0.130       62.887        9.390        0.022      333.011        2.048      870.059
01/22/2015  10:38:00       53.437       39.774       41.295       39.399       23.719       29.025     1552.318      562.602      842.471        0.455        0.148       66.614       17.274        0.067      333.062        2.131      870.062
01/22/2015  10:39:00       80.700       59.624       30.879       27.744       19.312       26.107      769.749      372.935      681.564        0.642        0.091      100.337       18.529        0.034      332.968        1.975      870.060
01/22/2015  10:40:00       79.339       73.690       38.943       29.713       26.153       31.983      882.859      683.992     1022.914        0.792        0.129      108.281       27.212        0.063      332.779        1.665      870.053
01/22/2015  10:41:00       79.098       45.518       37.687       40.690       42.211       34.097     1655.712     1781.808     1162.617        0.717        0.230       91.260       27.184        0.089      332.867        1.809      870.041
01/22/2015  10:42:00      125.747       73.662       36.436       37.176       34.327       35.060     1382.053     1178.319     1229.189        1.318        0.189      145.734       22.474        0.024      332.950        1.947      870.040
01/22/2015  10:43:00       28.041       23.636        6.425       24.578       24.925       26.870      604.054      621.247      721.998        0.167        0.097       36.673       24.349        0.441      332.902        1.867      870.044
01/22/2015  10:44:00       12.837       50.263       27.934       22.499       37.975       27.622      506.188     1442.080      762.993        0.309        0.136       51.876       13.406        0.067      333.249        2.439      870.047
01/22/2015  10:45:00       -2.528      -34.349        6.578       14.482       29.629       20.769      209.734      877.891      431.348        0.137        0.076       34.442        8.146        0.056      333.249        2.440      870.048
01/22/2015  10:46:00       39.296       42.530       42.495       37.334       31.371       31.851     1393.795      984.137     1014.477        0.428        0.170       57.906       18.911        0.107      333.239        2.423      870.044
01/22/2015  10:47:00       55.640       57.306       -4.952       31.676       20.547       20.365     1003.338      422.168      414.716        0.412        0.092       79.873        9.468        0.014      333.065        2.135      870.060
01/22/2015  10:48:00       76.802       38.175       -9.859       27.029       22.834       17.529      730.564      521.410      307.281        0.451        0.078       85.767       10.646        0.015      333.064        2.136      870.066
01/22/2015  10:49:00       39.034       44.209       13.071       28.848       20.460       25.776      832.183      418.610      664.394        0.278        0.096       58.975       17.139        0.084      333.230        2.411      870.066
01/22/2015  10:50:00       49.504       45.455       13.525       14.151        9.790       21.590      200.264       95.846      466.129        0.273        0.038       67.207        7.678        0.013      332.955        1.953      870.061
01/22/2015  10:51:00       47.035       37.167        2.747       13.191       11.533       15.687      174.015      133.004      246.074        0.208        0.028       59.947       11.948        0.040      332.923        1.899      870.040
01/22/2015  10:52:00       32.346        2.459      -11.282       10.542       12.522       10.535      111.143      156.800      110.977        0.078        0.019       32.440        6.889        0.045      332.944        1.936      870.041
01/22/2015  10:53:00       23.323      -15.732        9.360       19.818       14.043        9.190      392.747      197.204       84.459        0.078        0.034       28.133        7.557        0.072      333.125        2.235      870.034
01/22/2015  10:54:00        2.419       14.036       32.448       12.968       20.783       14.563      168.173      431.942      212.073        0.103        0.041       14.243       14.097        0.980      333.605        3.029      870.009
01/22/2015  10:55:00       44.830       41.530       -0.549       25.350       22.611       19.952      642.605      511.251      398.083        0.264        0.078       61.110        9.993        0.027      333.266        2.467      869.974
01/22/2015  10:56:00       21.001       68.326       16.741       22.536       31.141       38.432      507.859      969.767     1476.990        0.417        0.148       71.480       25.284        0.125      333.367        2.636      869.943
01/22/2015  10:57:00       68.923       63.949       40.987       63.606       34.115       42.228     4045.731     1163.836     1783.178        0.876        0.350       94.020       42.961        0.209      333.345        2.598      869.913
01/22/2015  10:58:00       64.606       37.369       12.626       27.748       30.843       20.529      769.944      951.290      421.451        0.394        0.107       74.635       18.932        0.064      333.075        2.153      869.897
01/22/2015  10:59:00        3.990      -27.334      -14.307       25.774       39.531       18.875      664.295     1562.723      356.266        0.178        0.129       27.624       11.907        0.186      333.163        2.297      869.885
01/22/2015  11:00:00       -0.705       -5.896       24.275       20.918       27.990       19.694      437.578      783.428      387.842        0.112        0.080        5.938       17.123        8.316      333.499        2.854      869.881
01/22/2015  11:01:00       31.062       22.474       22.607       27.129       32.863       25.122      735.974     1079.974      631.095        0.221        0.122       38.340       22.287        0.338      333.415        2.715      869.895
01/22/2015  11:02:00       15.715        7.341      -19.623       17.842       15.665       11.517      318.332      245.390      132.638        0.069        0.035       17.345        6.635        0.146      333.225        2.401      869.925
01/22/2015  11:03:00        1.527        9.261        4.081       13.538       14.237       18.516      183.276      202.697      342.831        0.042        0.036        9.386       13.582        2.094      333.442        2.759      869.942
01/22/2015  11:04:00       43.226       57.169       32.346       27.518       16.997       22.062      757.252      288.897      486.752        0.386        0.077       71.671       14.936        0.043      333.319        2.555      869.946
01/22/2015  11:05:00       33.227        2.465       10.301       34.435       34.505       18.081     1185.774     1190.571      326.929        0.196        0.135       33.318       18.189        0.298      333.454        2.779      869.925
01/22/2015  11:06:00       69.279       50.513        4.999       34.625       29.643       21.888     1198.898      878.735      479.069        0.497        0.128       85.739       16.234        0.036      333.380        2.656      869.900
01/22/2015  11:07:00       61.701       37.291       25.615       29.294       16.168       19.186      858.164      261.399      368.083        0.367        0.074       72.094       16.403        0.052      333.282        2.494      869.898
01/22/2015  11:08:00       29.841       26.960        6.213       25.969       21.913       22.361      674.398      480.171      499.994        0.165        0.083       40.216       17.118        0.181      333.486        2.832      869.894
01/22/2015  11:09:00       17.895       76.960       -3.430       21.925       21.513       15.970      480.686      462.803      255.054        0.373        0.060       79.013        9.331        0.014      333.352        2.609      869.902
01/22/2015  11:10:00        4.721       37.642       16.693       19.205       31.849       20.944      368.832     1014.340      438.672        0.177        0.091       37.937       15.917        0.176      333.586        2.997      869.886
01/22/2015  11:11:00       28.833       50.100       -1.859       21.109       26.083       23.604      445.599      680.314      557.129        0.251        0.084       57.804        8.016        0.019      333.428        2.735      869.859
01/22/2015  11:12:00       34.049       51.115        1.412       27.008       39.059       25.550      729.447     1525.606      652.811        0.334        0.145       61.417       25.072        0.167      333.393        2.677      869.852
01/22/2015  11:13:00       26.366       51.318        1.911       19.997       35.019       22.318      399.894     1226.313      498.079        0.273        0.106       57.695       22.764        0.156      333.521        2.890      869.841
01/22/2015  11:14:00       11.655       57.000       -2.405       19.888       33.171       27.653      395.549     1100.307      764.706        0.283        0.113       58.180       21.228        0.133      333.515        2.878      869.829
01/22/2015  11:15:00       35.254       51.364      -11.016       23.216       20.107       19.699      538.972      404.272      388.032        0.267        0.067       62.298       12.824        0.042      333.482        2.826      869.812
01/22/2015  11:16:00       -6.427       32.805       21.416       23.599       24.263       19.240      556.895      588.675      370.190        0.155        0.076       33.429       10.530        0.099      333.720        3.220      869.783
01/22/2015  11:17:00        8.666       49.136        1.587       20.248       43.477       24.528      409.993     1890.235      601.601        0.270        0.145       49.894       26.189        0.276      333.687        3.165      869.793
01/22/2015  11:18:00      -22.991        3.860       -5.103       13.718       46.641       14.628      188.177     2175.373      213.965        0.157        0.129       23.313       16.817        0.520      333.440        2.757      869.838
01/22/2015  11:19:00       -7.436      -24.066        2.411       23.625       22.864       17.196      558.151      522.770      295.694        0.101        0.069       25.188       15.201        0.364      333.549        2.936      869.878
01/22/2015  11:20:00       29.956       22.400       11.691       14.597       24.732       20.048      213.063      611.651      401.906        0.138        0.061       37.405       17.419        0.217      333.726        3.230      869.892
01/22/2015  11:21:00       19.125       65.395       -1.146       29.025       44.245       17.554      842.442     1957.636      308.132        0.388        0.155       68.134       16.910        0.062      333.593        3.009      869.863
01/22/2015  11:22:00       12.002       26.930        3.474       24.015       24.290       16.419      576.736      589.993      269.578        0.116        0.072       29.484       10.713        0.132      333.847        3.431      869.832
01/22/2015  11:23:00       22.744       26.388        1.934       45.721       29.792       27.208     2090.447      887.542      740.279        0.247        0.186       34.837       26.287        0.569      333.884        3.492      869.845
01/22/2015  11:24:00      -13.230       16.209      -16.488       46.248       31.755       17.959     2138.924     1008.378      322.529        0.209        0.173       20.923       14.510        0.481      333.887        3.497      869.869
01/22/2015  11:25:00      -11.684       14.949        8.279       19.334       21.203       18.943      373.801      449.573      358.845        0.081        0.059       18.973       10.538        0.308      334.045        3.760      869.884
01/22/2015  11:26:00        8.872      -65.960       -0.835       21.969       43.657       24.737      482.630     1905.932      611.934        0.371        0.150       66.554       24.815        0.139      333.907        3.530      869.871
01/22/2015  11:27:00      -59.158      -21.503      -14.619       37.416       29.815       19.396     1399.958      888.948      376.222        0.342        0.133       62.945        9.798        0.024      333.728        3.234      869.854
01/22/2015  11:28:00      -40.569        7.392        4.231       19.634       18.400       15.991      385.514      338.543      255.707        0.135        0.049       41.236        8.552        0.043      333.826        3.396      869.852
01/22/2015  11:29:00      -35.210       -3.280        9.664       37.588       21.820       18.191     1412.835      476.124      330.914        0.178        0.111       35.362       21.226        0.360      334.099        3.848      869.861
01/22/2015  11:30:00        1.725      -51.486      -10.178       36.821       43.749       19.593     1355.801     1914.018      383.867        0.320        0.183       51.515       19.843        0.148      334.085        3.826      869.847
01/22/2015  11:31:00       -8.364      -54.474       -4.796       28.040       29.054       25.211      786.230      844.147      635.607        0.266        0.113       55.112       10.565        0.037      334.108        3.863      869.842
01/22/2015  11:32:00      -65.255      -22.856       -6.052       52.748       27.712       18.867     2782.335      767.957      355.967        0.436        0.195       69.142       18.822        0.074      333.840        3.419      869.850
01/22/2015  11:33:00      -49.887      -17.501       10.520       45.698       38.018       24.090     2088.315     1445.381      580.309        0.351        0.206       52.868       23.561        0.199      334.085        3.826      869.849
01/22/2015  11:34:00        0.895      -44.972       -1.246       40.256       32.781       25.097     1620.526     1074.601      629.863        0.267        0.166       44.981        6.970        0.024      334.013        3.706      869.870
01/22/2015  11:35:00       -4.678      -16.648       19.178       36.627       32.618       24.901     1341.546     1063.922      620.071        0.185        0.151       17.293       23.588        1.861      334.304        4.189      869.858
01/22/2015  11:36:00      -36.210      -17.758        6.370       21.839       20.518       14.336      476.939      421.001      205.520        0.139        0.055       40.329       12.286        0.093      333.879        3.484      869.849
01/22/2015  11:37:00        6.731        5.568       20.057       19.292       13.789       18.753      372.162      190.133      351.663        0.070        0.046        8.736       12.504        2.049      334.119        3.881      869.839
01/22/2015  11:38:00      -37.710       16.484      -14.030       24.001       17.314       20.581      576.070      299.759      423.581        0.159        0.065       41.156       18.168        0.195      333.979        3.651      869.860
01/22/2015  11:39:00      -13.157       13.306       -8.901       12.616       14.364       14.595      159.176      206.326      213.019        0.050        0.029       18.713       11.171        0.356      334.046        3.762      869.878
01/22/2015  11:40:00       17.042      -43.098       11.908       13.485       25.713       22.599      181.832      661.155      510.704        0.182        0.068       46.345       16.108        0.121      334.160        3.950      869.879
01/22/2015  11:41:00        0.228      -85.966       -2.925       24.060       23.010       19.913      578.901      529.450      396.543        0.445        0.075       85.966       14.874        0.030      333.894        3.509      869.896
01/22/2015  11:42:00      -10.156      -44.223       -2.238       16.320       24.819       13.032      266.341      615.990      169.825        0.156        0.053       45.374        8.145        0.032      333.911        3.537      869.901
01/22/2015  11:43:00      -23.787      -26.808       -0.982       21.557       19.132       15.456      464.710      366.020      238.893        0.118        0.053       35.840       13.104        0.134      334.022        3.722      869.911
01/22/2015  11:44:00      -23.558      -18.444       -5.846       17.672       14.634       12.796      312.284      214.150      163.742        0.081        0.035       29.919       10.260        0.118      334.109        3.865      869.923
01/22/2015  11:45:00        7.759      -41.930       22.042       31.000       29.314       26.161      961.013      859.324      684.417        0.240        0.125       42.642       24.990        0.343      334.327        4.226      869.931
01/22/2015  11:46:00       -8.688      -42.067        5.783       28.692       37.308       25.235      823.225     1391.850      636.808        0.236        0.143       42.954       21.022        0.240      334.178        3.981      869.939
01/22/2015  11:47:00      -25.086        2.022       -0.341       26.707       14.860       18.548      713.272      220.817      344.025        0.096        0.064       25.167       10.058        0.160      334.334        4.240      869.924
01/22/2015  11:48:00       14.704       12.296        8.195       18.722       26.608       21.256      350.515      707.993      451.805        0.097        0.076       19.168       15.748        0.675      334.515        4.539      869.915
01/22/2015  11:49:00       27.826        5.171       21.641       39.154       42.779       34.508     1533.040     1830.083     1190.819        0.291        0.228       28.303       29.365        1.076      334.601        4.680      869.896
01/22/2015  11:50:00       32.577       53.234       73.638       66.764       49.032       35.455     4457.378     2404.123     1257.072        0.872        0.406       62.411       41.102        0.434      334.384        4.322      869.889
01/22/2015  11:51:00       57.827       93.446       76.446       60.168       35.269       32.449     3620.228     1243.900     1052.965        1.192        0.296      109.891       29.982        0.074      334.254        4.105      869.879
01/22/2015  11:52:00      139.090       67.936       44.530       45.005       37.997       36.675     2025.449     1443.740     1345.042        1.538        0.241      154.794       25.183        0.026      334.001        3.684      869.866
01/22/2015  11:53:00       98.235       54.192       30.596       38.339       29.055       31.347     1469.875      844.177      982.650        0.841        0.165      112.191       17.999        0.026      333.984        3.656      869.857
01/22/2015  11:54:00       98.501       72.438       34.205       52.317       39.156       45.264     2737.067     1533.198     2048.813        1.122        0.316      122.269       34.312        0.079      333.985        3.659      869.838
01/22/2015  11:55:00      102.645       54.242       31.234       61.401       29.847       29.926     3770.121      890.843      895.586        1.000        0.278      116.096       25.090        0.047      334.033        3.740      869.839
01/22/2015  11:56:00       56.263        7.850       29.641       47.026       24.677       26.036     2211.417      608.958      677.888        0.380        0.175       56.808       20.945        0.136      334.213        4.037      869.828
01/22/2015  11:57:00       80.402       58.828       19.895       43.061       33.093       32.171     1854.236     1095.127     1034.990        0.715        0.199       99.625       14.833        0.022      334.138        3.914      869.822
01/22/2015  11:58:00      116.447       70.081        3.689       45.439       36.062       26.761     2064.702     1300.448      716.171        1.128        0.204      135.909       20.509        0.023      334.192        4.003      869.808
01/22/2015  11:59:00       75.495       46.221       13.994       70.396       47.384       37.704     4955.618     2245.217     1421.560        0.833        0.431       88.521       20.301        0.053      334.404        4.354      869.800
01/22/2015  12:00:00       36.612       29.174       15.634       42.518       51.579       35.454     1807.784     2660.395     1256.990        0.408        0.286       46.814       21.192        0.205      334.528        4.560      869.806
01/22/2015  12:01:00       88.391       64.193       15.338       37.818       32.309       31.677     1430.218     1043.867     1003.407        0.782        0.174      109.242       20.635        0.036      334.359        4.280      869.810
01/22/2015  12:02:00       -8.068      105.838       -0.077       43.439       43.697       34.188     1886.945     1909.471     1168.828        0.812        0.248      106.145       28.903        0.074      334.264        4.121      869.811
01/22/2015  12:03:00       -2.543       42.649        4.037       19.624       44.264       19.749      385.098     1959.331      390.014        0.229        0.137       42.725       23.761        0.309      334.481        4.482      869.827
01/22/2015  12:04:00        7.627       76.799       -6.240       19.031       18.959       18.779      362.164      359.437      352.655        0.353        0.054       77.177       12.383        0.026      334.289        4.164      869.828
01/22/2015  12:05:00       68.656       56.302        6.657       34.867       32.619       21.846     1215.726     1063.987      477.228        0.534        0.138       88.790       17.373        0.038      334.218        4.045      869.806
01/22/2015  12:06:00       49.696       51.660       12.838       38.590       35.956       26.753     1489.162     1292.829      715.731        0.440        0.175       71.683       21.781        0.092      334.351        4.266      869.789
01/22/2015  12:07:00       43.521       68.147       -0.936       29.193       34.652       32.871      852.234     1200.758     1080.475        0.484        0.157       80.858       24.745        0.094      334.328        4.228      869.777
01/22/2015  12:08:00       42.670       39.784       11.711       28.177       24.354       19.747      793.941      593.107      389.944        0.266        0.089       58.340       13.287        0.052      334.346        4.259      869.760
01/22/2015  12:09:00       80.472       49.343       14.999       39.527       28.974       30.518     1562.407      839.474      931.346        0.623        0.167       94.395       14.253        0.023      334.423        4.386      869.758
01/22/2015  12:10:00       93.571       73.556       17.815       58.669       44.119       26.530     3442.005     1946.527      703.860        1.029        0.305      119.021       18.625        0.024      334.384        4.321      869.770
01/22/2015  12:11:00       65.752       54.230       50.126       60.303       38.825       48.163     3636.453     1507.372     2319.649        0.862        0.373       85.231       45.312        0.283      334.460        4.448      869.771
01/22/2015  12:12:00       75.306       59.730       54.638       63.413       39.222       36.816     4021.265     1538.370     1355.442        0.957        0.346       96.118       25.683        0.071      334.565        4.622      869.749
01/22/2015  12:13:00       42.098       42.209       47.077       58.570       44.637       49.429     3430.418     1992.458     2443.218        0.682        0.393       59.613       50.982        0.731      334.646        4.755      869.729
01/22/2015  12:14:00       61.234       83.521       56.611       67.022       43.586       41.735     4491.982     1899.709     1741.817        1.103        0.407      103.563       32.859        0.101      334.605        4.688      869.720
01/22/2015  12:15:00      115.009       63.043       30.770       39.616       50.570       40.646     1569.421     2557.304     1652.086        1.196        0.289      131.155       28.317        0.047      334.484        4.487      869.715
01/22/2015  12:16:00       83.858       74.946       55.444       63.761       36.871       48.641     4065.427     1359.465     2365.904        1.176        0.390      112.468       34.059        0.092      334.650        4.762      869.695
01/22/2015  12:17:00       72.819       78.178       51.869       66.047       47.666       59.275     4362.269     2272.091     3513.580        1.212        0.507      106.838       45.003        0.177      334.604        4.687      869.668
01/22/2015  12:18:00       35.214       84.689       83.061       55.907       52.296       40.264     3125.563     2734.850     1621.191        1.140        0.374       91.718       33.966        0.137      334.604        4.685      869.656
01/22/2015  12:19:00       72.570       73.684       70.234       61.314       50.418       43.678     3759.355     2541.938     1907.780        1.192        0.410      103.420       31.422        0.092      334.598        4.676      869.630
01/22/2015  12:20:00       59.383       79.730       86.496       76.298       50.833       42.552     5821.401     2583.981     1810.685        1.379        0.511       99.414       39.465        0.158      334.779        4.975      869.606
01/22/2015  12:21:00      107.072       61.447       34.789       74.771       46.775       50.627     5590.695     2187.899     2563.138        1.339        0.517      123.451       44.919        0.132      334.608        4.692      869.602
01/22/2015  12:22:00       77.517       53.263       41.403       45.846       35.075       34.476     2101.889     1230.265     1188.620        0.754        0.226       94.052       14.152        0.023      334.786        4.988      869.627
01/22/2015  12:23:00       60.123       56.524       59.671       58.913       42.589       35.531     3470.685     1813.834     1262.446        0.846        0.327       82.521       24.061        0.085      334.688        4.825      869.647
01/22/2015  12:24:00       57.624       78.227       93.504       74.009       56.445       44.994     5477.262     3186.021     2024.485        1.443        0.534       97.159       47.668        0.241      334.560        4.612      869.665
01/22/2015  12:25:00      189.501      119.497       32.432       69.111       49.060       53.815     4776.365     2406.871     2896.058        3.066        0.504      224.032       37.701        0.028      334.448        4.424      869.674
01/22/2015  12:26:00      104.148       93.938       58.258       68.624       37.945       38.345     4709.288     1439.845     1470.336        1.534        0.381      140.254       33.680        0.058      334.531        4.564      869.659
01/22/2015  12:27:00       65.679       78.016       88.434       54.719       49.649       37.060     2994.140     2465.029     1373.450        1.253        0.342      101.982       31.272        0.094      334.624        4.717      869.639
01/22/2015  12:28:00       24.193       97.595      110.876       62.085       75.634       73.474     3854.564     5720.493     5398.425        1.869        0.749      100.549       61.861        0.379      334.667        4.789      869.596
01/22/2015  12:29:00       77.483      103.803      112.090       81.220       67.777       48.403     6596.701     4593.664     2342.808        2.144        0.677      129.532       46.099        0.127      334.661        4.779      869.587
01/22/2015  12:30:00       72.429      110.040       82.810       94.111       52.419       67.205     8856.874     2747.774     4516.481        2.016        0.806      131.737       57.116        0.188      334.631        4.731      869.590
01/22/2015  12:31:00      104.618       24.411       33.976       85.435       68.599       57.346     7299.133     4705.810     3288.601        1.399        0.765      107.428       48.598        0.205      334.541        4.581      869.592
01/22/2015  12:32:00       65.447       26.844       46.676       67.810       60.633       42.147     4598.247     3676.383     1776.396        0.862        0.503       70.738       41.412        0.343      334.709        4.861      869.595
01/22/2015  12:33:00       92.244      105.113       91.495       78.965       63.761       57.391     6235.464     4065.490     3293.688        2.076        0.680      139.849       55.498        0.157      334.625        4.719      869.603
01/22/2015  12:34:00       71.706       76.733       92.345       62.617       53.814       46.371     3920.878     2895.963     2150.253        1.426        0.448      105.023       45.140        0.185      334.624        4.718      869.593
01/22/2015  12:35:00       85.797       78.861       76.639       83.384       63.696       48.411     6952.862     4057.209     2343.666        1.640        0.668      116.534       53.291        0.209      334.804        5.017      869.570
01/22/2015  12:36:00      133.082      110.263       56.833       52.690       39.015       44.704     2776.275     1522.176     1998.417        1.970        0.315      172.826       30.938        0.032      334.590        4.661      869.556
01/22/2015  12:37:00       54.656       55.707       70.797       67.348       61.274       47.489     4535.800     3754.552     2255.196        1.082        0.527       78.043       42.421        0.295      334.778        4.974      869.547
01/22/2015  12:38:00       64.064       83.537       98.167       62.757       58.946       51.698     3938.472     3474.609     2672.699        1.540        0.504      105.274       44.842        0.181      334.882        5.148      869.543
01/22/2015  12:39:00      114.820       91.508      111.986       79.507       79.050       62.930     6321.390     6248.964     3960.129        2.531        0.827      146.824       49.656        0.114      334.598        4.673      869.544
01/22/2015  12:40:00      100.390      115.269      122.755       78.871       83.993       72.831     6220.596     7054.828     5304.402        2.850        0.929      152.856       67.939        0.198      334.681        4.810      869.549
01/22/2015  12:41:00       75.238      111.771      118.524       91.720       70.661       67.206     8412.558     4993.023     4516.604        2.506        0.896      134.735       63.613        0.223      334.893        5.166      869.564
01/22/2015  12:42:00       55.143       99.099       99.679       75.240       94.301       63.443     5661.012     8892.667     4025.001        2.068        0.929      113.408       58.025        0.262      334.962        5.279      869.574
01/22/2015  12:43:00      117.990       78.256       73.348       69.509       71.277       53.928     4831.547     5080.371     2908.278        1.912        0.641      141.582       43.112        0.093      334.905        5.186      869.577
01/22/2015  12:44:00      136.745       77.617       63.970       55.959       65.952       46.382     3131.355     4349.705     2151.276        1.922        0.482      157.237       30.973        0.039      334.743        4.915      869.578
01/22/2015  12:45:00       89.991      108.636      103.212       96.759       61.850       71.247     9362.394     3825.425     5076.190        2.441        0.913      141.068       58.804        0.174      334.852        5.095      869.544
01/22/2015  12:46:00       67.563       76.799       85.302       89.271       67.402       41.939     7969.295     4543.079     1758.857        1.600        0.714      102.288       46.068        0.203      335.030        5.394      869.521
01/22/2015  12:47:00       62.118       30.475       49.295       58.321       50.624       55.442     3401.322     2562.823     3073.808        0.813        0.452       69.191       38.893        0.316      335.036        5.404      869.502
01/22/2015  12:48:00      139.225       77.985       24.665       87.902       52.911       31.817     7726.840     2799.616     1012.336        1.880        0.577      159.578       22.700        0.020      335.017        5.371      869.484
01/22/2015  12:49:00       65.997       24.056       34.764       48.490       65.329       59.194     2351.297     4267.870     3503.983        0.813        0.506       70.244       48.188        0.471      335.034        5.400      869.463
01/22/2015  12:50:00      181.086      123.194       50.891       86.722       66.781       72.597     7520.627     4459.756     5270.369        3.390        0.863      219.018       59.458        0.074      334.850        5.090      869.443
01/22/2015  12:51:00       51.642       18.679       26.541       85.541       98.971       36.893     7317.187     9795.266     1361.129        1.109        0.924       54.916       24.605        0.201      335.127        5.553      869.436
01/22/2015  12:52:00      114.599      -89.811       22.121       91.997      100.377       47.081     8463.528    10075.571     2216.652        2.122        1.038      145.599       46.521        0.102      335.045        5.416      869.434
01/22/2015  12:53:00       68.353       62.678       39.818       60.464       61.779       47.795     3655.888     3816.698     2284.321        0.997        0.488       92.740       32.870        0.126      335.284        5.815      869.466
01/22/2015  12:54:00       31.172      -14.757       11.071       55.792       88.547       34.455     3112.750     7840.593     1187.159        0.672        0.607       34.489       37.556        1.186      335.325        5.883      869.499
01/22/2015  12:55:00       45.237       55.409       73.445       60.732       47.254       31.602     3688.373     2232.944      998.688        0.871        0.346       71.530       23.214        0.105      335.439        6.074      869.522
01/22/2015  12:56:00       67.816       38.911       57.482       68.014       52.884       52.060     4625.902     2796.763     2710.201        0.977        0.507       78.186       53.816        0.474      335.077        5.474      869.535
01/22/2015  12:57:00       49.410       74.503       70.618       58.104       46.822       30.715     3376.125     2192.335      943.431        0.974        0.326       89.398       28.609        0.102      335.151        5.595      869.526
01/22/2015  12:58:00      139.151       74.284       52.548       73.778       56.222       55.138     5443.258     3160.883     3040.183        1.964        0.582      157.738       43.969        0.078      335.057        5.436      869.530
01/22/2015  12:59:00      128.838       57.206       59.536       53.596       43.583       41.633     2872.523     1899.515     1733.297        1.496        0.325      140.968       30.132        0.046      334.949        5.259      869.529
01/22/2015  13:00:00       98.533       21.387       43.284       63.857       53.860       41.909     4077.661     2900.850     1756.398        1.039        0.437      100.827       39.740        0.155      335.018        5.375      869.503
01/22/2015  13:01:00       48.215        8.308       38.834       47.746       41.702       33.070     2279.671     1739.071     1093.621        0.451        0.256       48.925       19.839        0.164      334.993        5.333      869.479
01/22/2015  13:02:00       45.491       28.314       43.416       49.770       34.265       33.568     2477.047     1174.077     1126.791        0.477        0.239       53.583       23.849        0.198      335.250        5.759      869.449
01/22/2015  13:03:00      102.243       96.557       70.737       72.629       62.501       52.052     5274.952     3906.359     2709.440        1.833        0.595      140.631       46.963        0.112      335.122        5.545      869.417
01/22/2015  13:04:00      128.191       88.895       81.661       73.757       82.173       48.696     5440.084     6752.417     2371.304        2.278        0.728      155.998       42.220        0.073      334.969        5.291      869.368
01/22/2015  13:05:00       88.321       59.425       56.371       72.603       71.584       57.974     5271.181     5124.313     3360.996        1.413        0.688      106.452       59.302        0.310      335.128        5.557      869.325
01/22/2015  13:06:00       96.076       98.589       87.920       60.152       50.286       53.432     3618.297     2528.663     2854.928        1.784        0.450      137.660       30.610        0.049      334.978        5.306      869.313
01/22/2015  13:07:00       18.907       75.357      101.182       74.264       59.663       60.323     5515.178     3559.710     3638.824        1.449        0.636       77.693       60.170        0.600      335.250        5.759      869.293
01/22/2015  13:08:00       98.948       51.671       39.214       45.355       60.980       51.789     2057.055     3718.552     2682.055        1.123        0.423      111.627       37.334        0.112      335.168        5.623      869.277
01/22/2015  13:09:00       25.040       26.286       40.290       45.084       75.405       42.459     2032.544     5685.985     1802.789        0.623        0.476       36.303       41.490        1.306      335.318        5.871      869.256
01/22/2015  13:10:00      116.246       79.966       68.017       96.637       75.462       71.345     9338.716     5694.552     5090.159        2.233        1.006      141.095       62.007        0.193      335.174        5.632      869.249
01/22/2015  13:11:00       76.139      -10.056       52.329       68.720      120.286       60.397     4722.454    14468.760     3647.779        1.573        1.142       76.801       72.055        0.880      335.220        5.709      869.256
01/22/2015  13:12:00       24.524      -40.503       29.276       36.772       73.360       34.616     1352.175     5381.736     1198.293        0.551        0.397       47.349       22.032        0.217      335.450        6.090      869.237
01/22/2015  13:13:00       70.502       83.620       57.762       70.979       54.257       39.851     5038.062     2943.774     1588.070        1.243        0.478      109.375       36.574        0.112      335.470        6.124      869.242
01/22/2015  13:14:00       53.544       46.340       42.024       64.041       56.717       54.704     4101.257     3216.778     2992.512        0.854        0.516       70.813       43.461        0.377      335.411        6.027      869.239
01/22/2015  13:15:00       96.242       89.412       45.085       80.620       47.784       44.259     6499.543     2283.325     1958.895        1.501        0.537      131.366       43.640        0.110      335.292        5.827      869.235
01/22/2015  13:16:00       89.301       47.822       35.566       78.166       67.480       40.338     6109.976     4553.487     1627.182        1.191        0.615      101.299       19.351        0.036      335.426        6.051      869.228
01/22/2015  13:17:00       62.471      101.263       98.557       67.887       52.467       56.462     4608.696     2752.812     3187.936        1.721        0.527      118.983       47.958        0.162      335.351        5.926      869.234
01/22/2015  13:18:00       86.447        7.810       39.754       44.455       49.142       48.866     1976.242     2414.976     2387.897        0.795        0.339       86.800       39.188        0.204      335.135        5.569      869.240
01/22/2015  13:19:00       57.289       37.140       42.878       52.800       42.104       28.830     2787.855     1772.765      831.191        0.594        0.270       68.274       24.325        0.127      335.330        5.891      869.218
01/22/2015  13:20:00       21.889       24.363       64.417       40.263       60.558       43.390     1621.077     3667.225     1882.706        0.620        0.359       32.752       43.961        1.802      335.409        6.024      869.212
01/22/2015  13:21:00       89.751     -105.075        5.285       63.820       67.761       44.641     4073.044     4591.570     1992.848        1.489        0.533      138.188       43.164        0.098      335.415        6.032      869.189
01/22/2015  13:22:00       39.319      -56.761       36.168       38.496       69.043       36.881     1481.940     4766.881     1360.210        0.684        0.380       69.049       31.548        0.209      335.553        6.264      869.182
01/22/2015  13:23:00       20.326       62.115       78.215       44.246       43.488       35.222     1957.682     1891.209     1240.603        0.774        0.254       65.356       30.411        0.217      335.490        6.160      869.190
01/22/2015  13:24:00       88.239       90.302       87.087       63.701       56.003       48.438     4057.862     3136.368     2346.242        1.653        0.477      126.256       41.833        0.110      335.340        5.907      869.180
01/22/2015  13:25:00      122.401       99.821       84.151       82.151       66.319       58.983     6748.711     4398.273     3478.964        2.332        0.731      157.943       49.308        0.097      335.252        5.760      869.173
01/22/2015  13:26:00       54.027       44.496       52.903       63.474       43.652       36.209     4028.962     1905.520     1311.086        0.747        0.362       69.992       28.039        0.160      335.315        5.867      869.163
01/22/2015  13:27:00       56.449       51.112       76.465       64.087      100.921       69.655     4107.085    10185.070     4851.831        1.539        0.957       76.151       72.382        0.903      335.427        6.052      869.141
01/22/2015  13:28:00       92.901       -0.754       53.029       66.167      115.369       54.385     4378.107    13310.063     2957.739        1.604        1.032       92.904       56.186        0.366      335.489        6.157      869.140
01/22/2015  13:29:00       33.035       23.349       35.334       49.304       65.440       35.102     2430.926     4282.330     1232.153        0.541        0.397       40.453       28.496        0.496      335.587        6.320      869.149
01/22/2015  13:30:00       24.175       41.356       47.936       60.875       48.788       25.650     3705.772     2380.280      657.948        0.567        0.337       47.904       23.882        0.249      335.632        6.395      869.160
01/22/2015  13:31:00       82.349       90.154       60.897       81.736       62.101       62.063     6680.726     3856.558     3851.864        1.650        0.719      122.103       53.419        0.191      335.502        6.176      869.169
01/22/2015  13:32:00      138.996       75.178       35.603       96.604       63.777       64.909     9332.378     4067.474     4213.227        2.192        0.881      158.024       38.044        0.058      335.373        5.960      869.185
01/22/2015  13:33:00       91.269       62.074       25.989       39.167       41.912       44.168     1534.063     1756.655     1950.842        0.905        0.262      110.378       19.411        0.031      335.409        6.022      869.202
01/22/2015  13:34:00      124.917       71.595       51.536       37.270       45.552       52.571     1389.084     2075.005     2763.692        1.481        0.311      143.980       32.205        0.050      335.436        6.069      869.219
01/22/2015  13:35:00       36.961       55.809       67.722       53.811       66.521       44.875     2895.639     4425.082     2013.779        0.920        0.467       66.939       39.497        0.348      335.497        6.169      869.222
01/22/2015  13:36:00       74.233       77.410       66.935       59.115       63.537       46.116     3494.618     4036.911     2126.673        1.282        0.483      107.251       37.167        0.120      335.407        6.018      869.226
01/22/2015  13:37:00      131.960       72.460       34.613       59.888       53.581       48.981     3586.606     2870.920     2399.123        1.636        0.443      150.545       21.606        0.021      335.377        5.969      869.231
01/22/2015  13:38:00      152.874       93.864       25.769       36.813       30.036       33.373     1355.216      902.166     1113.746        1.811        0.169      179.391       17.421        0.009      335.285        5.817      869.231
01/22/2015  13:39:00       91.520      154.993      118.173       74.158       63.115       56.611     5499.388     3983.445     3204.751        2.952        0.634      179.997       43.281        0.058      335.415        6.032      869.220
01/22/2015  13:40:00       97.715      150.883      111.110       73.013       73.094       73.751     5330.895     5342.751     5439.188        3.038        0.806      179.761       65.205        0.132      335.279        5.805      869.219
01/22/2015  13:41:00       74.904      105.112       85.924       61.026       66.569       50.263     3724.125     4431.443     2526.361        1.736        0.534      129.070       37.542        0.085      335.355        5.931      869.209
01/22/2015  13:42:00       74.963       20.916       55.238       50.878       30.463       32.373     2588.523      928.014     1048.015        0.684        0.228       77.826       28.020        0.130      335.418        6.038      869.212
01/22/2015  13:43:00       81.936       53.437       24.897       39.275       31.836       28.285     1542.547     1013.508      800.062        0.677        0.168       97.822       14.386        0.022      335.427        6.054      869.208
01/22/2015  13:44:00       71.868       58.895       41.094       30.067       22.834       31.791      904.045      521.389     1010.662        0.638        0.122       92.918       15.442        0.028      335.384        5.982      869.205
01/22/2015  13:45:00       85.585       39.414       24.071       41.520       32.353       29.634     1723.932     1046.690      878.148        0.655        0.182       94.224       25.792        0.075      335.536        6.236      869.196
01/22/2015  13:46:00      109.272       65.756       33.009       47.749       41.760       37.733     2279.968     1743.936     1423.762        1.140        0.272      127.531       31.224        0.060      335.447        6.087      869.186
01/22/2015  13:47:00       53.983       59.358       54.664       49.115       34.112       36.406     2412.319     1163.629     1325.405        0.716        0.245       80.234       25.918        0.104      335.556        6.269      869.188
01/22/2015  13:48:00       43.693       -2.170       28.356       62.713       74.734       33.695     3932.862     5585.157     1135.322        0.668        0.533       43.747       30.629        0.490      335.563        6.282      869.191
01/22/2015  13:49:00       29.194       23.624       35.645       37.073       55.754       37.992     1374.388     3108.511     1443.422        0.430        0.296       37.556       35.914        0.914      335.639        6.406      869.191
01/22/2015  13:50:00      101.753      -79.287        3.953       46.854       60.609       32.064     2195.336     3673.433     1028.131        1.178        0.345      128.997       33.972        0.069      335.401        6.008      869.190
01/22/2015  13:51:00       68.642      -50.556       33.809       72.956       78.542       47.689     5322.562     6168.897     2274.230        1.109        0.688       85.250       59.463        0.487      335.703        6.514      869.175
01/22/2015  13:52:00       41.275      -57.054       23.737       39.301       81.230       50.243     1544.599     6598.335     2524.363        0.809        0.533       70.419       49.430        0.493      335.704        6.516      869.173
01/22/2015  13:53:00       57.690      -88.629       14.093       42.909       64.667       44.440     1841.184     4181.801     1974.924        0.969        0.400      105.751       40.083        0.144      335.723        6.547      869.173
01/22/2015  13:54:00       61.346     -111.777        3.233       38.405       36.727       36.333     1474.948     1348.868     1320.109        1.021        0.207      127.504       27.064        0.045      335.708        6.521      869.178
01/22/2015  13:55:00       66.734     -105.686       -9.417       62.159       85.176       42.083     3863.720     7254.894     1770.947        1.430        0.644      124.992       47.844        0.147      335.611        6.361      869.185
01/22/2015  13:56:00       71.097      -93.186      -13.468       65.342       68.938       38.069     4269.601     4752.511     1449.269        1.219        0.524      117.211       34.963        0.089      335.626        6.384      869.195
01/22/2015  13:57:00       64.663      -48.681       20.048       61.056       78.738       40.723     3727.812     6199.639     1658.379        0.927        0.579       80.939       53.888        0.443      335.575        6.301      869.212
01/22/2015  13:58:00       52.004      -31.743       33.213       60.265      103.705       64.957     3631.849    10754.806     4219.455        1.171        0.930       60.927       78.642        1.666      335.638        6.404      869.215
01/22/2015  13:59:00      100.837      -97.585      -21.166       42.830       48.787       38.482     1834.371     2380.144     1480.849        1.292        0.285      140.324       28.583        0.041      335.403        6.011      869.230
01/22/2015  14:00:00       59.349      -87.641       -6.474       38.135       45.699       31.114     1454.252     2088.396      968.088        0.788        0.226      105.845       26.339        0.062      335.509        6.188      869.236
01/22/2015  14:01:00       61.995       10.326       36.827       39.875       48.178       40.788     1589.976     2321.097     1663.632        0.544        0.279       62.849       37.697        0.360      335.663        6.448      869.234
01/22/2015  14:02:00       21.083       20.445       56.255       35.999       63.740       25.517     1295.905     4062.786      651.119        0.502        0.300       29.368       31.249        1.132      335.696        6.502      869.232
01/22/2015  14:03:00      -13.584      -29.106       27.302       28.912       63.207       34.193      835.928     3995.095     1169.145        0.389        0.300       32.120       40.366        1.579      335.799        6.673      869.216
01/22/2015  14:04:00       18.188      -70.665       10.713       28.959       46.071       42.504      838.647     2122.524     1806.583        0.510        0.238       72.968       33.160        0.207      335.733        6.565      869.213
01/22/2015  14:05:00        9.628       17.778       56.715       31.155       53.151       32.847      970.662     2825.070     1078.932        0.425        0.244       20.218       33.002        2.664      335.783        6.648      869.191
01/22/2015  14:06:00       64.516      -65.331       10.573       61.122       61.587       44.083     3735.934     3792.982     1943.284        0.901        0.474       91.818       34.385        0.140      335.690        6.493      869.178
01/22/2015  14:07:00       69.191      -34.298       11.733       53.808       52.949       35.486     2895.313     2803.579     1259.283        0.653        0.348       77.226       40.014        0.268      335.569        6.291      869.169
01/22/2015  14:08:00       16.054      -47.674       18.657       34.876       68.647       36.312     1216.323     4712.462     1318.589        0.506        0.362       50.304       28.636        0.324      335.744        6.582      869.152
01/22/2015  14:09:00       38.488      -46.991       39.898       50.354       75.558       43.085     2535.547     5709.017     1856.307        0.769        0.505       60.741       49.326        0.659      335.790        6.660      869.151
01/22/2015  14:10:00      105.454       91.445       81.349       88.181       63.746       51.446     7775.888     4063.593     2646.679        2.029        0.724      139.580       55.723        0.159      335.589        6.321      869.142
01/22/2015  14:11:00      139.368       59.536       15.962       44.667       42.512       27.224     1995.156     1807.254      741.161        1.388        0.227      151.552       21.185        0.020      335.446        6.085      869.140
01/22/2015  14:12:00       75.352       35.325       29.614       42.637       34.733       26.125     1817.886     1206.368      682.537        0.575        0.185       83.221       17.425        0.044      335.467        6.119      869.134
01/22/2015  14:13:00       63.604       68.161       66.656       62.585       46.686       40.224     3916.923     2179.604     1617.945        1.042        0.386       93.228       35.124        0.142      335.626        6.385      869.115
01/22/2015  14:14:00      124.266      123.122       89.141       45.482       43.222       40.068     2068.616     1868.123     1605.412        2.204        0.277      174.932       27.926        0.025      335.454        6.095      869.097
01/22/2015  14:15:00      123.998       89.259       59.537       65.183       62.745       50.065     4248.847     3936.959     2506.484        1.879        0.535      152.783       36.252        0.056      335.506        6.184      869.068
01/22/2015  14:16:00       79.932       56.253       46.284       51.751       43.705       39.225     2678.154     1910.122     1538.576        0.891        0.306       97.742       22.613        0.054      335.541        6.243      869.040
01/22/2015  14:17:00       79.632       49.169       59.084       70.054       53.562       55.223     4907.623     2868.939     3049.541        1.154        0.541       93.589       47.283        0.255      335.593        6.331      868.999
01/22/2015  14:18:00       64.906       55.137       55.756       76.139       47.112       44.489     5797.094     2219.583     1979.264        1.018        0.500       85.164       44.777        0.276      335.660        6.442      868.973
01/22/2015  14:19:00       41.912       30.734       45.109       55.471       52.395       47.298     3077.045     2745.256     2237.139        0.640        0.403       51.973       42.051        0.655      335.682        6.478      868.966
01/22/2015  14:20:00       25.024        2.436       25.642       27.916       26.884       19.383      779.298      722.745      375.686        0.158        0.094       25.142       20.183        0.644      335.703        6.514      868.979
01/22/2015  14:21:00        8.647      -32.943       19.272       40.275       54.858       29.859     1622.101     3009.391      891.564        0.353        0.276       34.059       28.414        0.696      335.767        6.620      868.998
01/22/2015  14:22:00       40.235      -70.982       -6.110       32.967       32.054       24.000     1086.845     1027.434      576.010        0.469        0.135       81.592       19.316        0.056      335.728        6.555      869.046
01/22/2015  14:23:00       42.960      -64.501        0.717       23.772       61.722       27.332      565.088     3809.576      747.043        0.556        0.256       77.497       31.841        0.169      335.818        6.704      869.097
01/22/2015  14:24:00        4.390        7.822       11.973       17.991       21.714       19.440      323.687      471.504      377.903        0.070        0.059        8.969       13.859        2.388      335.831        6.728      869.133
01/22/2015  14:25:00       18.197       16.030       26.191       22.737       19.146       13.393      516.964      366.561      179.382        0.117        0.053       24.251       11.145        0.211      335.870        6.791      869.153
01/22/2015  14:26:00       14.524       37.823       43.448       31.467       42.313       34.234      990.175     1790.372     1171.975        0.374        0.198       40.516       30.555        0.569      335.829        6.722      869.169
01/22/2015  14:27:00       40.372       72.062       82.287       42.830       44.236       25.836     1834.431     1956.780      667.501        0.903        0.223       82.600       26.466        0.103      335.762        6.612      869.176
01/22/2015  14:28:00       95.381       71.390       31.286       26.383       18.545       22.681      696.088      343.906      514.441        0.836        0.078      119.139       13.554        0.013      335.530        6.226      869.188
01/22/2015  14:29:00       86.037       63.993       58.031       40.841       41.376       32.694     1667.978     1712.005     1068.925        0.966        0.222      107.227       29.949        0.078      335.637        6.404      869.180
01/22/2015  14:30:00       68.312       64.162       41.128       29.670       26.373       34.951      880.326      695.517     1221.559        0.664        0.140       93.719       23.233        0.061      335.647        6.420      869.184
01/22/2015  14:31:00       70.390       63.640       26.601       26.596       26.687       30.421      707.352      712.210      925.460        0.603        0.117       94.894       17.436        0.034      335.593        6.331      869.163
01/22/2015  14:32:00       79.713       55.091       22.903       26.797       22.079       21.283      718.054      487.494      452.950        0.579        0.083       96.898       12.426        0.016      335.643        6.414      869.142
01/22/2015  14:33:00       60.944       61.660       17.712       20.841       17.411       25.328      434.364      303.134      641.513        0.460        0.069       86.696       15.029        0.030      335.609        6.356      869.136
01/22/2015  14:34:00       46.781       45.171        9.385       35.040       19.659       22.488     1227.779      386.466      505.701        0.322        0.106       65.029       15.084        0.054      335.649        6.425      869.138
01/22/2015  14:35:00       49.466       50.907       -5.353       21.760       20.930       20.218      473.518      438.057      408.782        0.319        0.066       70.982       16.578        0.055      335.683        6.479      869.125
01/22/2015  14:36:00       69.450       61.572       -2.882       29.264       21.645       24.617      856.403      468.493      606.004        0.528        0.097       92.814       18.311        0.039      335.714        6.533      869.112
01/22/2015  14:37:00       65.149       50.523        5.330       24.870       20.197       23.798      618.504      407.913      566.337        0.421        0.080       82.443       14.492        0.031      335.654        6.432      869.096
01/22/2015  14:38:00       42.225       23.647       -4.282       38.918       22.182       17.757     1514.576      492.063      315.297        0.234        0.116       48.395       10.927        0.051      335.686        6.485      869.089
01/22/2015  14:39:00       16.665       19.672        7.815       21.976       21.295       16.656      482.924      453.456      277.439        0.097        0.061       25.782       11.846        0.211      335.835        6.734      869.110
01/22/2015  14:40:00        7.891       45.691       -2.386       15.857       16.307       17.704      251.433      265.920      313.442        0.149        0.042       46.367       12.064        0.068      335.687        6.487      869.133
01/22/2015  14:41:00       34.580       35.097       11.286       26.264       28.466       23.039      689.790      810.291      530.799        0.229        0.102       49.271       18.719        0.144      335.692        6.497      869.154
01/22/2015  14:42:00        7.306       52.127       -6.585       20.694       25.408       21.147      428.255      645.555      447.205        0.217        0.076       52.636       18.203        0.120      335.660        6.443      869.168
01/22/2015  14:43:00      -15.603       33.704       -3.075       14.427       14.723       11.653      208.144      216.771      135.781        0.097        0.028       37.140        7.408        0.040      335.725        6.550      869.176
01/22/2015  14:44:00       49.443       34.491        6.192       49.187       23.837       21.682     2419.392      568.197      470.124        0.356        0.173       60.285        8.421        0.020      335.805        6.683      869.181
01/22/2015  14:45:00       37.199       62.181       -9.287       35.976       19.668       17.451     1294.283      386.847      304.528        0.366        0.099       72.458       12.257        0.029      335.675        6.469      869.195
01/22/2015  14:46:00        3.195       53.697       10.337       18.529       24.077       20.543      343.333      579.709      422.016        0.217        0.067       53.792       16.741        0.097      335.743        6.581      869.207
01/22/2015  14:47:00       51.292       28.256        0.758       19.520       19.193       12.421      381.022      368.378      154.289        0.217        0.045       58.560        4.938        0.007      335.709        6.524      869.217
01/22/2015  14:48:00       61.368       33.174        6.760       33.551       20.879       23.643     1125.688      435.951      558.992        0.352        0.106       69.760       15.879        0.052      335.729        6.557      869.232
01/22/2015  14:49:00       67.395       54.050        0.334       32.735       20.467       18.370     1071.604      418.899      337.447        0.465        0.091       86.392       11.899        0.019      335.683        6.481      869.250
01/22/2015  14:50:00       12.534       41.308       10.101       16.609       20.387       20.971      275.861      415.643      439.793        0.155        0.057       43.167       14.832        0.118      335.754        6.598      869.250
01/22/2015  14:51:00       36.769       27.651        3.783       12.545       13.445       11.886      157.378      180.769      141.286        0.131        0.024       46.006        7.573        0.027      335.720        6.543      869.258
01/22/2015  14:52:00       45.627       42.312        6.171       15.462       26.588       15.343      239.078      706.913      235.398        0.255        0.059       62.227       12.592        0.041      335.715        6.534      869.270
01/22/2015  14:53:00       19.995       45.324        8.955       30.645       24.651       24.370      939.094      607.678      593.901        0.234        0.107       49.539       19.921        0.162      335.760        6.609      869.282
01/22/2015  14:54:00       29.522       30.482       15.008       27.909       23.240       27.309      778.938      540.077      745.803        0.205        0.103       42.435       15.502        0.133      335.832        6.729      869.291
01/22/2015  14:55:00       23.110       19.150        9.010       28.285       25.076       31.028      800.061      628.807      962.732        0.169        0.120       30.014       26.035        0.752      335.843        6.745      869.298
01/22/2015  14:56:00       54.393       14.302        8.472       18.892       19.470       21.640      356.911      379.064      468.272        0.222        0.060       56.242        6.842        0.015      335.798        6.673      869.300
01/22/2015  14:57:00       15.162       10.857        8.307       23.007       11.547       16.560      529.310      133.332      274.244        0.068        0.047       18.648       11.932        0.409      335.906        6.851      869.291
01/22/2015  14:58:00       42.551       31.393       22.943       26.042       28.432       18.136      678.161      808.372      328.901        0.257        0.091       52.878       15.868        0.090      335.803        6.681      869.288
01/22/2015  14:59:00       34.025        6.101        4.061       32.983       23.118       15.857     1087.907      534.451      251.449        0.154        0.094       34.567       17.807        0.265      335.936        6.902      869.284
01/22/2015  15:00:00       49.964        9.311        7.155       34.331       26.369       22.867     1178.619      695.315      522.914        0.252        0.120       50.825       12.545        0.061      335.870        6.791      869.285
01/22/2015  15:01:00       53.477       47.144        2.077       27.336       23.417       19.291      747.281      548.357      372.149        0.338        0.083       71.291       12.803        0.032      335.819        6.707      869.302
01/22/2015  15:02:00       43.040       39.078        5.830       34.610       22.546       21.816     1197.825      508.338      475.916        0.280        0.109       58.134       12.199        0.044      335.797        6.670      869.327
01/22/2015  15:03:00       67.386       50.691       -6.544       26.508       13.413       17.542      702.690      179.902      307.723        0.417        0.060       84.324       12.004        0.020      335.762        6.610      869.355
01/22/2015  15:04:00       42.602       44.048        7.034       32.090       22.111       14.893     1029.778      488.886      221.798        0.277        0.087       61.279        7.441        0.015      335.786        6.651      869.382
01/22/2015  15:05:00       33.556       30.557       -3.487       27.090       26.579       20.187      733.886      706.429      407.514        0.196        0.092       45.384       17.139        0.143      335.817        6.703      869.418
01/22/2015  15:06:00       49.779       50.037      -13.336       18.566       17.618       16.837      344.714      310.379      283.477        0.305        0.047       70.581       15.251        0.047      335.743        6.581      869.441
01/22/2015  15:07:00       59.450       24.665       -1.370       15.524       16.706       13.396      240.983      279.081      179.461        0.242        0.035       64.363        7.205        0.013      335.742        6.582      869.462
01/22/2015  15:08:00       61.788       38.861        6.351       30.353       23.161       14.289      921.333      536.443      204.169        0.351        0.083       72.993        6.996        0.009      335.794        6.665      869.465
01/22/2015  15:09:00       47.628       29.083        3.350       30.177       24.260       16.427      910.649      588.569      269.848        0.245        0.088       55.806       14.405        0.067      335.834        6.732      869.463
01/22/2015  15:10:00       29.423       29.964        6.925       31.369       23.384       17.163      983.989      546.819      294.580        0.182        0.091       41.995       13.853        0.109      335.873        6.796      869.462
01/22/2015  15:11:00       29.473       19.307        6.716       21.498       21.240       21.224      462.165      451.154      450.478        0.132        0.068       35.234        9.811        0.078      335.959        6.941      869.469
01/22/2015  15:12:00       23.415       45.624       35.873       33.304       26.497       28.300     1109.128      702.084      800.873        0.326        0.131       51.282       27.256        0.282      335.985        6.983      869.459
01/22/2015  15:13:00       21.287       83.103       80.526       26.119       28.887       18.224      682.186      834.457      332.129        0.785        0.092       85.785       10.918        0.016      335.900        6.841      869.441
01/22/2015  15:14:00       65.163       64.968       51.703       34.669       38.295       32.078     1201.942     1466.507     1028.995        0.742        0.185       92.017       26.829        0.085      335.899        6.840      869.429
01/22/2015  15:15:00       65.831       42.637       30.487       40.436       28.096       29.043     1635.063      789.370      843.488        0.517        0.163       78.432       17.206        0.048      335.925        6.883      869.432
01/22/2015  15:16:00       84.912       63.990       18.923       16.445       18.301       21.895      270.428      334.927      479.372        0.637        0.054      106.323       11.375        0.011      335.763        6.615      869.432
01/22/2015  15:17:00       74.521       64.964       25.228       15.692       15.158       16.227      246.230      229.762      263.324        0.557        0.037       98.862        5.567        0.003      335.839        6.741      869.437
01/22/2015  15:18:00       58.876       51.758       36.772       30.721       23.115       24.260      943.806      534.299      588.526        0.478        0.103       78.392       16.307        0.043      335.930        6.891      869.447
01/22/2015  15:19:00       60.536       59.725        7.942       29.255       20.569       25.135      855.877      423.068      631.755        0.460        0.096       85.040       13.154        0.024      335.818        6.705      869.477
01/22/2015  15:20:00        3.608       21.478       -1.365       23.609       23.152       17.539      557.389      536.034      307.617        0.094        0.070       21.779       14.120        0.420      335.847        6.753      869.511
01/22/2015  15:21:00       17.769       18.519       10.032       25.572       20.892       14.205      653.923      436.476      201.782        0.103        0.065       25.665        6.944        0.073      335.912        6.862      869.533
01/22/2015  15:22:00       33.109       42.794       41.562       31.181       22.573       24.155      972.226      509.528      583.453        0.336        0.103       54.107       20.535        0.144      335.922        6.878      869.546
01/22/2015  15:23:00       48.235       34.896       39.828       23.969       32.785       24.223      574.507     1074.828      586.756        0.368        0.112       59.535       21.852        0.135      335.853        6.764      869.562
01/22/2015  15:24:00       29.645       22.554       30.841       13.764       15.527       12.910      189.436      241.094      166.672        0.147        0.030       37.249        9.099        0.060      335.885        6.817      869.583
01/22/2015  15:25:00       28.356       13.991       28.128       12.587       16.906       17.581      158.442      285.803      309.094        0.127        0.038       31.619       13.565        0.184      335.844        6.751      869.597
01/22/2015  15:26:00       45.311       30.608       10.753       34.888       26.635       17.188     1217.167      709.436      295.429        0.266        0.111       54.680       14.465        0.070      335.880        6.807      869.617
01/22/2015  15:27:00       81.636       51.852        0.046       23.630       15.362       15.043      558.383      235.990      226.280        0.519        0.051       96.711       10.921        0.013      335.793        6.663      869.640
01/22/2015  15:28:00       77.166       35.783        2.391       16.275       14.570       15.771      264.891      212.282      248.710        0.398        0.036       85.059        8.300        0.010      335.792        6.666      869.664
01/22/2015  15:29:00       66.238       38.286       18.107       21.323       17.271       18.870      454.688      298.280      356.070        0.364        0.055       76.507       13.887        0.033      335.848        6.756      869.682
01/22/2015  15:30:00       31.001       30.479       18.058       30.101       16.869       19.499      906.069      284.574      380.209        0.189        0.079       43.475       17.996        0.171      335.903        6.847      869.694
01/22/2015  15:31:00       46.008       24.694        2.022       23.974       19.544       14.778      574.752      381.987      218.401        0.195        0.059       52.216       10.236        0.038      335.903        6.847      869.708
01/22/2015  15:32:00       37.101       26.617        4.254       17.618       15.458       15.952      310.401      238.956      254.478        0.145        0.040       45.662       11.245        0.061      335.917        6.870      869.732
01/22/2015  15:33:00       -2.574       36.006        1.140       12.817       27.502       20.489      164.280      756.383      419.800        0.132        0.067       36.098       19.259        0.285      335.981        6.977      869.748
01/22/2015  15:34:00        3.942       58.437       -3.914       18.481       22.894       12.171      341.563      524.118      148.142        0.223        0.051       58.569       11.718        0.040      335.893        6.831      869.761
01/22/2015  15:35:00       24.730       15.559        5.416       24.728       17.749       12.832      611.489      315.035      164.649        0.099        0.055       29.217       10.090        0.119      335.927        6.888      869.769
01/22/2015  15:36:00       45.810       28.880       -2.839       15.550       24.938       11.884      241.792      621.915      141.227        0.197        0.050       54.153        9.476        0.031      335.936        6.901      869.771
01/22/2015  15:37:00       -3.543       23.138        7.328       18.277       25.104       13.788      334.066      630.211      190.098        0.088        0.058       23.407       11.808        0.254      336.009        7.021      869.781
01/22/2015  15:38:00       11.433       10.092       11.001       11.312       16.002       13.764      127.967      256.055      189.449        0.046        0.029       15.250       11.536        0.572      336.023        7.046      869.786
01/22/2015  15:39:00        2.692       32.192       -1.608       18.023       16.629       14.339      324.824      276.540      205.618        0.093        0.040       32.305        6.744        0.044      335.941        6.908      869.788
01/22/2015  15:40:00       -7.745       54.980       -7.772       14.041       23.138        9.153      197.162      535.345       83.772        0.198        0.041       55.523        8.497        0.023      335.889        6.819      869.776
01/22/2015  15:41:00       -5.242       14.756        5.944       13.022       14.763       13.344      169.569      217.958      178.064        0.042        0.028       15.659       11.746        0.563      335.996        7.000      869.752
01/22/2015  15:42:00        3.903       -4.277       -0.891        9.138        7.053        8.553       83.509       49.746       73.160        0.012        0.010        5.790        3.863        0.445      336.041        7.075      869.739
01/22/2015  15:43:00       -8.747       -0.066       -3.834       14.196        7.828        4.826      201.535       61.283       23.288        0.019        0.014        8.748        2.597        0.088      335.982        6.980      869.734
01/22/2015  15:44:00      -29.594       30.896       -6.238       15.165       16.735       10.268      229.974      280.045      105.429        0.124        0.031       42.783        7.415        0.030      336.026        7.052      869.744
01/22/2015  15:45:00      -16.855       19.820       -1.409        9.246       10.546        9.975       85.490      111.219       99.505        0.049        0.015       26.018        5.956        0.052      336.047        7.087      869.763
01/22/2015  15:46:00      -55.963        8.699       -3.082       23.976       15.869       11.557      574.857      251.839      133.564        0.209        0.048       56.635        8.316        0.022      336.036        7.066      869.770
01/22/2015  15:47:00      -77.703      -21.360       -6.173       28.803       32.309       13.438      829.633     1043.845      180.568        0.429        0.103       80.586       13.013        0.026      336.005        7.015      869.783
01/22/2015  15:48:00      -81.424      -26.811       -2.986       31.009       32.678       15.050      961.544     1067.820      226.510        0.481        0.113       85.724       15.745        0.034      336.000        7.008      869.796
01/22/2015  15:49:00     -114.631      -33.815       -0.866       23.415       23.841       16.332      548.241      568.407      266.720        0.783        0.069      119.515       12.119        0.010      335.948        6.921      869.811
01/22/2015  15:50:00     -100.897      -40.034       -6.038       26.432       26.856       16.862      698.654      721.221      284.335        0.676        0.085      108.549       17.024        0.025      335.949        6.924      869.827
01/22/2015  15:51:00      -99.273      -35.225      -13.295       11.495        6.888        6.384      132.137       47.439       40.753        0.575        0.011      105.337        3.658        0.001      335.912        6.865      869.851
01/22/2015  15:52:00      -95.666      -31.174       -8.541       16.337       10.010        9.752      266.883      100.205       95.102        0.533        0.023      100.617        9.223        0.008      335.944        6.915      869.877
01/22/2015  15:53:00      -92.867      -23.991       -7.195       13.023       17.914        9.205      169.601      320.918       84.729        0.491        0.029       95.915        7.845        0.007      335.973        6.961      869.893
01/22/2015  15:54:00      -62.077      -25.676       -7.133       19.586       31.832       12.197      383.594     1013.302      148.774        0.305        0.077       67.178        6.023        0.008      336.021        7.043      869.903
01/22/2015  15:55:00      -84.257       21.730      -14.024       16.593       18.334       13.062      275.332      336.134      170.626        0.427        0.039       87.014       10.526        0.015      335.955        6.931      869.899
01/22/2015  15:56:00      -76.302       20.353      -14.708       14.262       14.684       10.897      203.397      215.607      118.737        0.350        0.027       78.970        6.445        0.007      335.920        6.876      869.899
01/22/2015  15:57:00      -40.572       -0.538      -10.874       16.632       12.144        7.142      276.611      147.484       51.007        0.112        0.024       40.575        5.375        0.018      335.980        6.972      869.911
01/22/2015  15:58:00      -41.129      -23.746       -8.257       17.694       11.070        9.152      313.063      122.538       83.768        0.142        0.026       47.492        5.990        0.016      335.988        6.988      869.938
01/22/2015  15:59:00      -46.109      -13.646       -1.802       13.331       13.086        8.835      177.725      171.251       78.058        0.137        0.021       48.086        7.867        0.027      335.962        6.946      869.959
01/22/2015  16:00:00      -79.735       14.193      -12.862       17.309       22.085       11.503      299.604      487.764      132.308        0.382        0.046       80.989        5.400        0.004      335.944        6.912      869.965
01/22/2015  16:01:00      -48.753        5.831       -7.838        8.727        5.908        8.522       76.152       34.909       72.629        0.133        0.009       49.101        6.409        0.017      335.975        6.967      869.963
01/22/2015  16:02:00      -33.064        9.278       -6.282       20.551       20.970       11.063      422.357      439.722      122.385        0.110        0.049       34.341        7.478        0.047      335.990        6.988      869.961
01/22/2015  16:03:00      -66.330       18.006       -2.353       15.732       19.323       13.280      247.490      373.361      176.359        0.276        0.040       68.731        8.490        0.015      335.999        7.005      869.968
01/22/2015  16:04:00      -64.272       -0.742       -2.820       17.943       18.291       13.160      321.958      334.559      173.187        0.248        0.041       64.277        6.392        0.010      335.912        6.862      869.996
01/22/2015  16:05:00      -73.603       26.715      -12.400       25.072       27.717       14.127      628.596      768.220      199.586        0.394        0.080       78.302       11.974        0.023      335.915        6.867      870.034
01/22/2015  16:06:00      -53.338       26.199      -13.596       19.690       20.966       10.882      387.712      439.585      118.419        0.233        0.047       59.425       11.099        0.035      335.961        6.941      870.059
01/22/2015  16:07:00      -73.226       13.758      -10.015       26.342       27.603       15.517      693.895      761.909      240.764        0.367        0.085       74.507       13.829        0.034      335.978        6.970      870.072
01/22/2015  16:08:00      -35.003       20.597       -9.451       23.976       20.408       14.442      574.846      416.503      208.569        0.147        0.060       40.614       12.010        0.087      335.977        6.969      870.082
01/22/2015  16:09:00      -71.608        4.183       -6.914       19.802       19.188       11.471      392.119      368.170      131.589        0.304        0.045       71.730        5.301        0.005      335.959        6.937      870.083
01/22/2015  16:10:00      -60.726        6.766       -6.658       16.509        8.635        9.991      272.555       74.565       99.819        0.211        0.022       61.102        8.413        0.019      335.923        6.881      870.082
01/22/2015  16:11:00      -33.736        1.122       -7.425       18.035       18.867        8.640      325.271      355.959       74.657        0.098        0.038       33.754        8.299        0.060      335.969        6.954      870.075
01/22/2015  16:12:00      -25.228       23.644       -3.689       10.882       10.043       10.237      118.424      100.871      104.797        0.077        0.016       34.576        7.186        0.043      335.939        6.904      870.075
01/22/2015  16:13:00      -34.162        9.152       -5.643        8.859        8.911        9.330       78.488       79.408       87.057        0.076        0.012       35.367        5.602        0.025      335.976        6.970      870.102
01/22/2015  16:14:00      -44.708        8.630       -8.991       16.814       19.555        8.827      282.719      382.386       77.921        0.145        0.037       45.533        3.869        0.007      336.008        7.018      870.134
01/22/2015  16:15:00      -60.747        1.580       -5.805       28.931       22.741       10.274      837.021      517.163      105.545        0.259        0.073       60.768        5.885        0.009      336.029        7.056      870.184
01/22/2015  16:16:00      -49.468      -29.705       -3.239       26.871       19.773       13.891      722.074      390.962      192.948        0.232        0.065       57.702        6.941        0.014      336.020        7.041      870.229
01/22/2015  16:17:00      -98.161      -16.607       -2.798       34.514       22.485       20.269     1191.215      505.565      410.819        0.601        0.105       99.556       16.594        0.028      336.012        7.028      870.254
01/22/2015  16:18:00      -90.952      -56.092       -2.290       35.024       26.796       19.026     1226.715      718.015      361.971        0.686        0.115      106.858       16.143        0.023      336.026        7.051      870.281
01/22/2015  16:19:00     -109.368      -22.195      -10.320       30.940       17.738       11.086      957.298      314.650      122.894        0.698        0.070      111.597       10.772        0.009      335.984        6.979      870.303
01/22/2015  16:20:00     -101.199      -38.764       -4.456       24.152       28.668       13.867      583.295      821.875      192.307        0.668        0.080      108.369        9.317        0.007      336.034        7.064      870.316
01/22/2015  16:21:00     -117.953        2.149      -15.010       24.934       14.635       13.812      621.728      214.170      190.760        0.758        0.051      117.972       11.358        0.009      335.981        6.975      870.347
01/22/2015  16:22:00      -92.017       29.883      -13.078       29.130       23.137       16.296      848.532      535.342      265.563        0.559        0.082       96.748       11.697        0.015      335.893        6.830      870.367
01/22/2015  16:23:00     -104.008       41.498      -15.633       23.784       25.671       16.484      565.684      659.008      271.710        0.714        0.075      111.981       11.494        0.011      335.914        6.865      870.377
01/22/2015  16:24:00      -99.413       28.568      -14.456       19.038       28.112       12.436      362.449      790.284      154.643        0.611        0.065      103.436        9.804        0.009      335.933        6.896      870.388
01/22/2015  16:25:00     -107.678       38.843      -16.812       15.642       16.730       12.090      244.671      279.906      146.175        0.703        0.034      114.469        6.343        0.003      335.894        6.832      870.400
01/22/2015  16:26:00     -119.952        3.593      -24.778       18.793       13.299        9.409      353.174      176.867       88.523        0.782        0.031      120.005        7.203        0.004      335.931        6.891      870.417
01/22/2015  16:27:00      -82.238       29.029      -15.963       24.263       18.202       15.243      588.684      331.330      232.348        0.451        0.058       87.211       10.561        0.015      335.913        6.864      870.430
01/22/2015  16:28:00     -105.336       39.323      -15.426       15.529       14.721       11.750      241.141      216.721      138.059        0.674        0.030      112.436        7.611        0.005      335.924        6.880      870.449
01/22/2015  16:29:00      -98.896       21.985      -14.382       17.634       16.024       13.135      310.949      256.759      172.530        0.561        0.037      101.310        7.078        0.005      335.901        6.843      870.461
01/22/2015  16:30:00      -92.261       16.758      -18.654       14.224       11.846        8.561      202.326      140.333       73.287        0.478        0.021       93.770        7.549        0.006      335.936        6.898      870.478
01/22/2015  16:31:00      -63.610       15.064      -10.853       18.258       15.823       10.943      333.358      250.376      119.740        0.255        0.035       65.370        7.074        0.012      335.911        6.861      870.494
01/22/2015  16:32:00      -69.486       24.255      -10.718       10.279       11.223        6.856      105.654      125.955       47.009        0.290        0.014       73.597        4.909        0.004      335.952        6.926      870.503
01/22/2015  16:33:00      -48.617       11.335      -10.670        7.779        8.944        6.941       60.512       79.990       48.184        0.140        0.009       49.921        5.074        0.010      335.965        6.955      870.513
01/22/2015  16:34:00      -20.805       18.749       -2.763       10.016       13.763        5.275      100.324      189.427       27.822        0.055        0.016       28.007        4.991        0.032      335.979        6.975      870.544
01/22/2015  16:35:00      -33.151       25.273       -6.780       10.974       15.276        7.919      120.436      233.347       62.709        0.110        0.021       41.686        8.513        0.042      335.964        6.952      870.573
01/22/2015  16:36:00      -43.288        6.443       -8.016       13.298        7.843        9.543      176.833       61.506       91.070        0.115        0.016       43.765        6.315        0.021      335.979        6.974      870.590
01/22/2015  16:37:00        3.197        4.528       -5.520        9.701        6.543        8.938       94.115       42.810       79.896        0.014        0.011        5.543        7.015        1.602      336.002        7.009      870.589
01/22/2015  16:38:00        3.344        9.212      -10.526        9.478       10.919        9.973       89.827      119.219       99.459        0.026        0.015        9.800        9.107        0.864      336.030        7.059      870.582
01/22/2015  16:39:00       -6.760        4.053        0.936        5.718        8.725        3.846       32.693       76.134       14.793        0.009        0.006        7.882        3.226        0.168      336.029        7.055      870.587
01/22/2015  16:40:00       -2.541       11.670        3.462        3.663        8.504        6.901       13.419       72.318       47.628        0.014        0.007       11.943        2.705        0.051      336.028        7.051      870.586
01/22/2015  16:41:00        1.419       18.626       -5.657        3.716       10.922        4.407       13.810      119.282       19.419        0.027        0.008       18.680        4.104        0.048      336.013        7.025      870.574
01/22/2015  16:42:00       -2.152        1.230        4.615        6.975        2.800        7.843       48.646        7.841       61.520        0.007        0.006        2.478        4.638        3.502      336.054        7.094      870.566
01/22/2015  16:43:00       -1.418        0.127        3.429        3.477        3.052        3.736       12.090        9.317       13.959        0.002        0.002        1.424        2.009        1.991      336.120        7.206      870.585
01/22/2015  16:44:00       -2.659        1.468        4.176        3.729        5.382        4.618       13.907       28.963       21.326        0.005        0.003        3.037        2.231        0.540      336.106        7.181      870.588
01/22/2015  16:45:00      -25.633       18.920       -5.620       11.677        8.895        5.489      136.341       79.124       30.128        0.065        0.012       31.859        4.777        0.022      336.007        7.019      870.585
01/22/2015  16:46:00      -27.016        9.097       -3.570        6.733        6.497        6.462       45.333       42.208       41.754        0.048        0.006       28.507        4.439        0.024      336.029        7.055      870.570
01/22/2015  16:47:00      -26.604        2.679        1.465       11.190        7.931        8.081      125.205       62.897       65.309        0.049        0.013       26.738        6.572        0.060      336.035        7.066      870.582
01/22/2015  16:48:00      -54.308       15.022      -10.224       10.109        8.801        8.709      102.185       77.450       75.844        0.177        0.013       56.347        5.859        0.011      335.999        7.005      870.590
01/22/2015  16:49:00      -38.737        6.091       -9.290       12.354        8.023        5.836      152.614       64.365       34.056        0.094        0.013       39.213        3.323        0.007      336.017        7.034      870.605
01/22/2015  16:50:00      -50.760       10.570      -10.566       12.437        6.946        7.326      154.678       48.243       53.675        0.153        0.013       51.849        5.674        0.012      336.028        7.054      870.621
01/22/2015  16:51:00      -60.829        7.264       -7.888       11.434       13.555        6.019      130.739      183.728       36.225        0.208        0.018       61.261        5.617        0.008      336.034        7.065      870.637
01/22/2015  16:52:00      -68.926       -5.054       -8.574        7.622        9.674        7.285       58.100       93.588       53.074        0.253        0.010       69.111        2.372        0.001      336.045        7.086      870.656
01/22/2015  16:53:00      -63.051      -29.579      -10.216       12.889       19.877       12.192      166.134      395.086      148.654        0.283        0.035       69.645        9.107        0.017      335.999        7.006      870.659
01/22/2015  16:54:00      -33.679      -17.831        3.978       16.104       25.661       12.889      259.331      658.502      166.122        0.128        0.054       38.108       11.367        0.089      335.955        6.934      870.671
01/22/2015  16:55:00      -21.223      -16.984        8.645       27.830       19.223       13.433      774.520      369.540      180.433        0.107        0.066       27.182       14.376        0.280      336.101        7.177      870.673
01/22/2015  16:56:00      -23.185      -20.069        4.605       22.495       23.322       14.631      506.010      543.937      214.061        0.111        0.063       30.664       13.857        0.204      336.060        7.109      870.666
01/22/2015  16:57:00      -20.176       -1.024        6.254       16.385       16.779       13.190      268.477      281.537      173.979        0.059        0.036       20.202       11.284        0.312      335.999        7.006      870.668
01/22/2015  16:58:00      -34.560        4.477        0.584       15.778       12.188       11.970      248.940      148.547      143.278        0.088        0.027       34.849        8.487        0.059      336.010        7.026      870.666
01/22/2015  16:59:00      -70.554       -8.294       -7.372       14.526       13.009       10.039      211.006      169.227      100.789        0.279        0.024       71.039        6.505        0.008      336.046        7.085      870.676
01/22/2015  17:00:00      -84.361      -28.289       -9.409       16.628       15.380       12.641      276.501      236.540      159.799        0.434        0.034       88.978       12.299        0.019      336.061        7.111      870.706
01/22/2015  17:01:00      -73.301      -29.464       -0.771       30.998       25.167       17.212      960.868      633.392      296.269        0.407        0.095       79.000       16.013        0.041      336.014        7.029      870.715
01/22/2015  17:02:00      -70.734      -32.669        2.980       40.347       20.964       13.926     1627.898      439.501      193.931        0.417        0.113       77.914       18.429        0.056      336.070        7.123      870.716
01/22/2015  17:03:00      -88.811      -38.623       -1.610       21.631       20.947       14.528      467.880      438.777      211.056        0.525        0.056       96.846        9.558        0.010      336.077        7.137      870.708
01/22/2015  17:04:00      -94.461      -18.713       -4.981       27.756       17.379       10.592      770.374      302.035      112.187        0.524        0.059       96.296       10.296        0.011      336.076        7.133      870.703
01/22/2015  17:05:00      -74.764      -15.249       -4.570       20.495       16.061       12.136      420.045      257.954      147.295        0.333        0.041       76.303        9.158        0.014      336.078        7.138      870.700
01/22/2015  17:06:00      -58.255      -20.416       -6.558       14.895       11.984        9.621      221.856      143.607       92.572        0.216        0.023       61.729        6.658        0.012      336.099        7.174      870.707
01/22/2015  17:07:00      -47.955      -20.347       -5.940       11.597       13.049        6.394      134.497      170.278       40.887        0.155        0.017       52.093        4.383        0.007      336.118        7.207      870.708
01/22/2015  17:08:00      -14.220      -16.741       -5.541       24.191       12.691        9.948      585.217      161.069       98.962        0.068        0.042       21.965        7.433        0.115      336.161        7.277      870.700
01/22/2015  17:09:00        0.265       -3.322        5.142        3.346        9.337        5.411       11.194       87.184       29.278        0.008        0.006        3.332        3.604        1.170      336.139        7.240      870.696
01/22/2015  17:10:00      -14.318        8.272       11.062       12.294       13.636       10.528      151.155      185.942      110.841        0.042        0.022       16.536        9.042        0.299      336.127        7.218      870.695
01/22/2015  17:11:00        2.601        9.177       12.625       11.734       15.267       11.209      137.692      233.077      125.649        0.037        0.025        9.538        9.464        0.984      336.078        7.137      870.693
01/22/2015  17:12:00        1.626      -32.513        2.941       11.733       18.938       10.388      137.664      358.658      107.908        0.084        0.030       32.553       10.675        0.108      336.136        7.234      870.682
01/22/2015  17:13:00       -6.586      -29.161       -1.302       20.755       19.845       19.529      430.755      393.814      381.367        0.105        0.060       29.895        7.707        0.066      336.132        7.228      870.684
01/22/2015  17:14:00       -6.678      -16.538        5.103       14.790       22.420       13.687      218.749      502.665      187.338        0.063        0.045       17.835        6.847        0.147      336.075        7.134      870.697
01/22/2015  17:15:00      -47.972       13.094       -4.023       21.495       10.125        6.953      462.031      102.523       48.342        0.155        0.031       49.727        5.384        0.012      336.011        7.026      870.724
01/22/2015  17:16:00      -57.501       20.566       -4.354       17.586        9.828       10.109      309.251       96.595      102.201        0.213        0.025       61.068        6.513        0.011      335.953        6.928      870.746
01/22/2015  17:17:00      -61.050       22.319       -7.390       11.402        7.562        6.584      130.002       57.183       43.348        0.226        0.012       65.001        3.124        0.002      335.989        6.987      870.775
01/22/2015  17:18:00      -59.607       36.263      -13.650       11.619        8.848        8.067      135.004       78.282       65.083        0.267        0.014       69.772        5.821        0.007      336.000        7.008      870.794
01/22/2015  17:19:00      -40.524       27.136       -3.957       14.063       12.543        9.801      197.776      157.339       96.056        0.142        0.023       48.770        6.298        0.017      335.935        6.901      870.807
01/22/2015  17:20:00      -33.632       16.951       -2.942       19.416       12.966       10.791      376.985      168.118      116.451        0.104        0.033       37.662       10.580        0.079      335.901        6.844      870.810
01/22/2015  17:21:00      -22.924       19.197        3.127       18.865       18.135       10.978      355.887      328.885      120.521        0.085        0.040       29.900        8.480        0.080      335.894        6.831      870.819
01/22/2015  17:22:00      -49.599       20.376       -2.972       20.161       16.095       13.135      406.465      259.040      172.532        0.186        0.042       53.621       11.218        0.044      335.900        6.841      870.842
01/22/2015  17:23:00      -70.192       23.683       -5.793       34.954       16.804        9.481     1221.755      282.362       89.889        0.356        0.080       74.079       10.851        0.021      335.948        6.921      870.840
01/22/2015  17:24:00      -46.023        4.341       -1.284       24.124       22.408       11.196      581.955      502.134      125.342        0.167        0.060       46.227       10.052        0.047      335.934        6.899      870.819
01/22/2015  17:25:00      -44.294        5.933       -2.361       26.076       26.706       12.196      679.978      713.201      148.742        0.177        0.077       44.690       10.182        0.052      335.910        6.858      870.790
01/22/2015  17:26:00      -27.410       -5.574        4.723       26.950       13.574       11.934      726.319      184.265      142.412        0.093        0.053       27.971       12.014        0.184      335.886        6.817      870.774
01/22/2015  17:27:00        6.949        1.462        3.246        6.707        6.511        8.454       44.981       42.396       71.477        0.011        0.008        7.101        6.329        0.794      335.886        6.819      870.768
01/22/2015  17:28:00       21.146        8.178       -0.356       13.096       14.512       11.641      171.493      210.586      135.504        0.052        0.026       22.673        8.507        0.141      335.963        6.945      870.749
01/22/2015  17:29:00       23.116        7.026        1.534       14.784       14.251       11.054      218.568      203.085      122.183        0.056        0.027       24.160        9.897        0.168      335.932        6.895      870.720
01/22/2015  17:30:00       26.797        9.771        2.006       17.920       11.973       11.551      321.128      143.347      133.425        0.071        0.030       28.523        9.330        0.107      335.956        6.933      870.710
01/22/2015  17:31:00       45.855       49.300        7.023       20.245       14.657       17.983      409.841      214.823      323.397        0.277        0.047       67.329       10.232        0.023      335.945        6.915      870.711
01/22/2015  17:32:00       56.197       52.351       -0.637       25.161       18.157       16.622      633.057      329.676      276.283        0.357        0.062       76.803       13.626        0.031      335.939        6.907      870.728
01/22/2015  17:33:00       31.188       39.305        3.606       20.641       22.656       17.932      426.049      513.291      321.559        0.190        0.063       50.175       14.778        0.087      335.913        6.864      870.759
01/22/2015  17:34:00       34.843       23.446       -0.802       10.581       13.255       11.080      111.950      175.692      122.757        0.109        0.021       41.997        6.528        0.024      335.945        6.917      870.774
01/22/2015  17:35:00       23.715       12.681        5.129       13.237       14.551       13.210      175.207      211.733      174.493        0.066        0.028       26.892        4.689        0.030      335.902        6.846      870.786
01/22/2015  17:36:00        7.237        9.883        8.985       10.889       11.839        8.350      118.578      140.150       69.729        0.028        0.016       12.249        5.598        0.209      335.815        6.701      870.802
01/22/2015  17:37:00       22.459       13.149        9.095       11.549        9.572       10.337      133.386       91.615      106.860        0.055        0.017       26.025        8.062        0.096      335.790        6.660      870.824
01/22/2015  17:38:00       45.095       27.031        7.299       18.950       16.879       10.300      359.105      284.891      106.087        0.178        0.038       52.576        7.638        0.021      335.824        6.715      870.824
01/22/2015  17:39:00       42.866       20.230        9.254       16.856       11.989       12.226      284.114      143.727      149.476        0.145        0.029       47.400        7.477        0.025      335.768        6.622      870.815
01/22/2015  17:40:00       77.517       31.835       15.135       33.124       20.067       12.538     1097.189      402.665      157.207        0.445        0.083       83.800        7.489        0.008      335.795        6.669      870.800
01/22/2015  17:41:00      108.859       42.034        8.610       20.096       19.752       18.069      403.855      390.142      326.471        0.741        0.056      116.692        8.753        0.006      335.807        6.686      870.785
01/22/2015  17:42:00       80.345       36.684        6.890       21.330       21.425       16.231      454.976      459.025      263.454        0.451        0.059       88.323       13.123        0.022      335.766        6.620      870.768
01/22/2015  17:43:00       86.315       41.025       10.338       27.968       19.880       17.302      782.202      395.234      299.348        0.536        0.074       95.568       11.107        0.014      335.771        6.628      870.760
01/22/2015  17:44:00      112.934       56.481       18.652       18.448       15.539       17.197      340.313      241.453      295.733        0.858        0.044      126.271       10.684        0.007      335.785        6.651      870.775
01/22/2015  17:45:00       72.087       46.943       42.892       21.180       18.300       24.800      448.606      334.901      615.055        0.532        0.070       86.024       12.581        0.021      335.707        6.521      870.783
01/22/2015  17:46:00       65.086       29.780       35.707       36.769       32.556       28.478     1351.934     1059.864      810.996        0.481        0.161       71.575       23.970        0.112      335.696        6.501      870.803
01/22/2015  17:47:00       52.048       38.642       43.400       36.496       26.328       29.536     1331.954      693.188      872.362        0.449        0.145       64.825       19.401        0.090      335.762        6.613      870.833
01/22/2015  17:48:00       53.065       36.699       16.543       28.886       24.987       26.307      834.379      624.360      692.050        0.329        0.108       64.519       16.962        0.069      335.754        6.599      870.852
01/22/2015  17:49:00       35.736       40.643       39.571       33.765       22.897       17.242     1140.053      524.277      297.277        0.323        0.098       54.119       15.964        0.087      335.715        6.533      870.859
01/22/2015  17:50:00        8.917       20.899       38.246       18.456       20.977       10.332      340.635      440.044      106.747        0.143        0.044       22.722       10.189        0.201      335.727        6.555      870.882
01/22/2015  17:51:00        2.715      -17.033       10.345       16.630       24.712       16.340      276.552      610.664      266.986        0.078        0.058       17.247       11.696        0.460      335.757        6.605      870.893
01/22/2015  17:52:00       45.028      -37.803       -0.806       25.510       26.693       15.311      650.779      712.500      234.418        0.253        0.080       58.793       17.296        0.087      335.798        6.673      870.897
01/22/2015  17:53:00       41.806      -64.100       -3.612       25.901       24.949       15.794      670.878      622.477      249.444        0.371        0.077       76.528       11.322        0.022      335.835        6.734      870.906
01/22/2015  17:54:00        0.702       -3.185       14.100       12.095       14.261        8.260      146.297      203.374       68.227        0.031        0.021        3.261        5.614        2.964      335.606        6.352      870.913
01/22/2015  17:55:00      -20.072      -17.340       -1.218       10.096        7.876        7.753      101.922       62.031       60.115        0.046        0.011       26.525        5.491        0.043      335.445        6.082      870.911
01/22/2015  17:56:00      -25.168      -12.951       -8.068        9.666        7.493        3.808       93.429       56.151       14.499        0.052        0.008       28.304        1.210        0.002      335.477        6.137      870.917
01/22/2015  17:57:00      -24.919      -19.279       -6.435        8.879        5.546        6.179       78.830       30.760       38.177        0.059        0.007       31.506        5.244        0.028      335.561        6.278      870.913
01/22/2015  17:58:00      -36.651       -8.302       -9.293       11.151       12.475        6.472      124.350      155.638       41.887        0.091        0.016       37.580        6.377        0.029      335.542        6.247      870.932
01/22/2015  17:59:00      -13.780       -0.301       -1.051        6.538        4.070        3.191       42.747       16.566       10.185        0.013        0.003       13.784        2.940        0.045      335.661        6.444      870.938
01/22/2015  18:00:00       -6.767       11.061        2.376        7.549       11.857        7.112       56.982      140.593       50.585        0.021        0.012       12.966        7.930        0.374      335.693        6.496      870.956
01/22/2015  18:01:00      -12.450      -14.555       -2.371       10.351       17.498        7.519      107.146      306.171       56.535        0.042        0.023       19.153        5.274        0.076      335.490        6.159      870.971
01/22/2015  18:02:00       -9.467      -22.463       -7.881        8.209       14.135        6.757       67.384      199.802       45.651        0.048        0.016       24.376        4.829        0.039      335.468        6.122      870.971
01/22/2015  18:03:00        7.302      -23.211        4.480       13.750       20.271       11.765      189.051      410.894      138.421        0.068        0.037       24.333        8.724        0.129      335.408        6.022      870.962
01/22/2015  18:04:00       -1.037      -28.425        7.967       10.971       13.079       11.266      120.369      171.071      126.920        0.065        0.021       28.444        7.766        0.075      335.441        6.076      870.944
01/22/2015  18:05:00       -6.427      -11.256       17.008        7.246       12.417        6.120       52.506      154.177       37.460        0.035        0.012       12.962        4.010        0.096      335.375        5.965      870.928
01/22/2015  18:06:00      -13.077      -25.384        2.194       16.747       15.227       13.106      280.465      231.849      171.771        0.075        0.034       28.554       11.279        0.156      335.301        5.842      870.922
01/22/2015  18:07:00       -6.526      -31.938       -2.737       15.799       17.430        8.485      249.603      303.816       71.990        0.085        0.031       32.598        8.762        0.072      335.179        5.641      870.925
01/22/2015  18:08:00      -15.865      -26.913       -8.264       12.734       16.128        8.937      162.146      260.128       79.863        0.077        0.025       31.241        7.151        0.052      335.083        5.481      870.948
01/22/2015  18:09:00      -34.336      -28.908       -1.994       15.920       11.255       13.017      253.446      126.679      169.455        0.128        0.027       44.885        8.814        0.039      334.991        5.328      870.965
01/22/2015  18:10:00      -44.835      -19.390       -4.483       14.109       11.682       11.195      199.067      136.461      125.323        0.143        0.023       48.848        7.662        0.025      335.067        5.455      870.982
01/22/2015  18:11:00      -62.875        6.487       -6.917       16.648       19.177       10.864      277.170      367.772      118.021        0.240        0.038       63.209        8.278        0.017      334.842        5.081      870.996
01/22/2015  18:12:00      -85.757        3.102      -10.477       22.438       12.419       11.134      503.449      154.225      123.962        0.413        0.039       85.813       11.411        0.018      334.766        4.957      871.015
01/22/2015  18:13:00      -93.571       -5.473       -8.022       31.068       21.064       16.599      965.191      443.703      275.533        0.527        0.084       93.731       12.545        0.018      334.682        4.815      871.038
01/22/2015  18:14:00      -71.578      -33.879        1.603       25.400       23.031       15.939      645.144      530.424      254.038        0.385        0.071       79.191       14.482        0.033      334.579        4.644      871.041
01/22/2015  18:15:00     -100.723      -42.031       -9.455       17.938       20.714       15.636      321.756      429.066      244.487        0.650        0.050      109.140       10.413        0.009      334.686        4.824      871.035
01/22/2015  18:16:00      -86.653      -27.543       -7.873       22.047       13.986       10.750      486.072      195.599      115.563        0.456        0.040       90.925        8.025        0.008      334.623        4.717      871.033
01/22/2015  18:17:00      -91.600      -28.707      -12.193       12.099       14.425       11.783      146.378      208.083      138.841        0.493        0.025       95.993        6.055        0.004      334.654        4.770      871.025
01/22/2015  18:18:00      -93.906      -25.218      -12.970       21.597       29.199       14.624      466.430      852.585      213.865        0.558        0.077       97.233       15.318        0.025      334.607        4.689      871.026
01/22/2015  18:19:00      -91.199      -21.308       -5.407       37.276       27.703       25.285     1389.489      767.468      639.349        0.580        0.140       93.655       19.802        0.045      334.497        4.508      871.019
01/22/2015  18:20:00     -126.475       12.744       -4.771       48.408       39.819       22.279     2343.381     1585.579      496.375        1.030        0.221      127.116       23.178        0.033      334.445        4.422      871.012
01/22/2015  18:21:00     -136.846       40.953      -15.094       40.233       30.581       16.043     1618.734      935.219      257.393        1.172        0.141      142.842       10.642        0.006      334.418        4.379      871.007
01/22/2015  18:22:00     -126.497       18.853      -17.779       42.442       27.975       17.219     1801.292      782.589      296.487        0.978        0.144      127.895        8.152        0.004      334.533        4.570      871.020
01/22/2015  18:23:00      -97.220       24.734      -15.706       38.249       30.673       19.408     1462.985      940.804      376.683        0.654        0.139      100.317       13.989        0.019      334.565        4.621      871.017
01/22/2015  18:24:00      -89.547        6.822       -9.756       29.766       29.321       20.758      886.026      859.710      430.893        0.517        0.109       89.806       19.064        0.045      334.519        4.545      870.984
01/22/2015  18:25:00      -53.105      -10.865       -8.248       28.520       19.376       14.586      813.389      375.416      212.738        0.220        0.070       54.205       11.542        0.045      334.539        4.579      870.967
01/22/2015  18:26:00      -77.441      -12.995       -9.280       24.411       42.000       15.463      595.887     1764.028      239.105        0.443        0.130       78.524       14.950        0.036      334.593        4.667      870.961
01/22/2015  18:27:00      -66.868      -22.307       -3.671       30.918       29.337       14.362      955.892      860.638      206.277        0.350        0.101       70.491       13.221        0.035      334.458        4.445      870.962
01/22/2015  18:28:00      -99.624      -24.180       -1.550       34.030       28.345       19.117     1158.024      803.430      365.461        0.642        0.116      102.516       15.315        0.022      334.317        4.210      870.984
01/22/2015  18:29:00     -120.953      -21.405      -12.804       20.852       28.107       18.094      434.813      790.020      327.380        0.840        0.078      122.832        8.862        0.005      334.312        4.202      870.990
01/22/2015  18:30:00      -97.552      -30.571       -5.678       29.632       28.302       18.273      878.079      801.024      333.909        0.625        0.101      102.230       18.978        0.034      334.274        4.138      870.992
01/22/2015  18:31:00     -103.087       -1.244      -12.057       33.604       28.565       21.410     1129.255      815.944      458.399        0.659        0.120      103.095       19.495        0.036      334.311        4.201      870.992
01/22/2015  18:32:00      -90.246      -14.779       -3.984       37.520       26.225       18.926     1407.713      687.766      358.206        0.542        0.123       91.449       16.237        0.032      334.259        4.114      870.976
01/22/2015  18:33:00      -90.388      -13.131       -5.591       31.122       25.108       16.560      968.576      630.403      274.227        0.512        0.094       91.337       16.872        0.034      334.278        4.145      870.954
01/22/2015  18:34:00      -73.875      -18.337       -1.897       35.718       26.270       19.464     1275.762      690.103      378.843        0.407        0.117       76.116       18.632        0.060      334.250        4.099      870.938
01/22/2015  18:35:00      -99.197       -3.829       -7.160       30.961       29.472       14.547      958.608      868.577      211.627        0.597        0.102       99.270       10.403        0.011      334.223        4.056      870.933
01/22/2015  18:36:00      -93.232      -15.069       -3.600       40.211       28.466       17.773     1616.962      810.335      315.864        0.584        0.137       94.442       19.960        0.045      334.220        4.049      870.933
01/22/2015  18:37:00      -78.105      -32.259       -1.474       21.610       23.245       17.752      466.989      540.336      315.129        0.423        0.066       84.505       10.997        0.017      334.162        3.953      870.927
01/22/2015  18:38:00      -92.695      -32.092       -5.201       23.159       22.667       13.317      536.317      513.789      177.352        0.544        0.061       98.093        9.528        0.009      334.171        3.968      870.929
01/22/2015  18:39:00      -71.845      -29.791       -0.388       25.126       23.439       15.644      631.318      549.385      244.737        0.374        0.071       77.777       12.004        0.024      334.110        3.866      870.920
01/22/2015  18:40:00      -82.684      -18.893       -7.386       33.179       34.165       21.307     1100.814     1167.249      453.978        0.498        0.136       84.815       17.416        0.042      334.116        3.877      870.922
01/22/2015  18:41:00      -85.016      -22.482        0.359       47.324       26.292       20.637     2239.540      691.289      425.887        0.554        0.168       87.939       21.345        0.059      334.045        3.760      870.923
01/22/2015  18:42:00     -103.405       -2.017       -1.273       41.013       30.379       26.691     1682.055      922.889      712.399        0.701        0.166      103.425       22.611        0.048      334.071        3.803      870.925
01/22/2015  18:43:00     -133.398       28.577       -7.541       43.790       34.496       22.421     1917.594     1189.965      502.721        1.114        0.181      136.424       19.318        0.020      334.144        3.923      870.948
01/22/2015  18:44:00     -123.538       12.972       -9.185       33.460       36.663       21.636     1119.577     1344.164      468.109        0.922        0.147      124.217       20.185        0.026      334.135        3.908      870.965
01/22/2015  18:45:00     -108.197        3.647      -11.092       43.117       28.253       19.049     1859.104      798.225      362.852        0.743        0.151      108.258       21.227        0.038      334.079        3.815      871.001
01/22/2015  18:46:00     -108.337      -18.383       -9.171       38.652       29.885       15.800     1494.002      893.127      249.648        0.740        0.132      109.886       16.714        0.023      334.019        3.715      871.038
01/22/2015  18:47:00     -151.939        5.864      -23.314       31.436       28.897       22.614      988.208      835.041      511.412        1.300        0.117      152.052       17.658        0.013      334.118        3.879      871.066
01/22/2015  18:48:00     -143.672      -10.394      -13.176       42.297       34.910       30.075     1789.022     1218.685      904.488        1.242        0.196      144.047       28.110        0.038      334.009        3.698      871.086
01/22/2015  18:49:00      -87.277       -9.725       -9.000       40.954       33.367       18.567     1677.204     1113.370      344.748        0.546        0.157       87.818       16.900        0.037      333.954        3.609      871.088
01/22/2015  18:50:00      -95.337      -13.158       -6.845       34.845       26.477       18.022     1214.161      701.032      324.797        0.577        0.112       96.241       17.089        0.032      333.932        3.572      871.100
01/22/2015  18:51:00      -89.015      -41.169       -0.783       38.537       31.371       15.076     1485.109      984.153      227.295        0.616        0.135       98.074       12.206        0.015      333.981        3.653      871.104
01/22/2015  18:52:00      -98.060      -28.413       -1.506       35.012       28.511       20.314     1225.812      812.905      412.666        0.644        0.123      102.093       16.907        0.027      333.921        3.553      871.121
01/22/2015  18:53:00     -117.839      -49.736      -13.517       20.570       23.843       15.672      423.124      568.474      245.618        0.889        0.062      127.905        8.276        0.004      333.928        3.565      871.131
01/22/2015  18:54:00     -106.434      -62.725       -8.712       27.220       36.275       20.974      740.913     1315.851      439.914        0.892        0.125      123.541       11.898        0.009      333.888        3.499      871.123
01/22/2015  18:55:00     -100.393      -24.073       -7.843       30.865       23.423       15.390      952.666      548.651      236.867        0.623        0.087      103.239       12.562        0.015      333.824        3.392      871.114
01/22/2015  18:56:00      -68.723      -23.434       -9.329       22.753       35.333       14.318      517.686     1248.440      205.012        0.366        0.099       72.609       14.064        0.038      333.852        3.439      871.096
01/22/2015  18:57:00      -80.209      -30.163      -10.558       15.503       20.583       13.250      240.345      423.678      175.557        0.415        0.042       85.693        6.899        0.006      333.894        3.508      871.089
01/22/2015  18:58:00      -93.006      -30.731       -8.274       33.662       23.274       13.093     1133.124      541.672      171.432        0.575        0.092       97.952        4.355        0.002      333.825        3.394      871.093
01/22/2015  18:59:00     -118.100      -21.524      -11.869       44.641       23.280       16.396     1992.828      541.941      268.837        0.868        0.140      120.045       17.091        0.020      333.738        3.249      871.095
01/22/2015  19:00:00     -149.658      -40.558       -6.810       37.496       32.570       25.450     1405.984     1060.833      647.680        1.360        0.156      155.057       15.849        0.010      333.678        3.150      871.121
01/22/2015  19:01:00     -136.033        0.823       -6.273       59.069       44.300       34.761     3489.191     1962.498     1208.339        1.260        0.333      136.036       37.497        0.076      333.635        3.078      871.135
01/22/2015  19:02:00      -85.047       -3.749       -2.031       44.280       29.176       19.640     1960.755      851.240      385.745        0.522        0.160       85.130       16.436        0.037      333.593        3.008      871.143
01/22/2015  19:03:00      -90.434       -6.420       -2.009       31.382       35.252       20.199      984.842     1242.679      408.001        0.543        0.132       90.662       15.491        0.029      333.626        3.065      871.158
01/22/2015  19:04:00      -96.940       -7.870       -6.882       43.331       27.705       20.924     1877.611      767.584      437.824        0.629        0.154       97.259       17.095        0.031      333.672        3.141      871.172
01/22/2015  19:05:00      -72.144      -19.323       -0.250       32.896       29.811       20.591     1082.171      888.667      423.993        0.399        0.120       74.687       18.827        0.064      333.679        3.152      871.186
01/22/2015  19:06:00      -81.613      -48.182       -3.751       38.307       36.711       25.579     1467.422     1347.727      654.269        0.623        0.173       94.774       18.638        0.039      333.662        3.125      871.205
01/22/2015  19:07:00     -110.738      -43.980      -11.081       30.798       33.555       21.073      948.493     1125.915      444.092        0.842        0.126      119.152       10.806        0.008      333.643        3.093      871.224
01/22/2015  19:08:00     -112.727      -16.335      -12.431       24.456       24.236       20.803      598.115      587.397      432.754        0.737        0.081      113.905       14.549        0.016      333.605        3.029      871.244
01/22/2015  19:09:00     -128.194      -12.667      -18.924       36.804       32.715       22.663     1354.561     1070.247      513.617        0.994        0.147      128.818       16.056        0.016      333.572        2.974      871.285
01/22/2015  19:10:00     -116.731      -23.934       -0.601       57.458       45.602       30.975     3301.429     2079.567      959.449        1.027        0.317      119.160       29.099        0.060      333.535        2.912      871.329
01/22/2015  19:11:00     -114.740      -48.242       -4.190       42.474       37.856       20.754     1804.033     1433.109      430.716        0.959        0.183      124.469       11.824        0.009      333.568        2.967      871.361
01/22/2015  19:12:00     -110.313      -24.941       -5.169       48.221       43.161       23.193     2325.308     1862.849      537.935        0.877        0.236      113.098       18.372        0.026      333.529        2.903      871.397
01/22/2015  19:13:00     -135.510      -40.137       -8.484       60.694       41.952       25.160     3683.744     1759.965      633.013        1.306        0.304      141.330       27.886        0.039      333.507        2.865      871.420
01/22/2015  19:14:00      -92.752      -15.399       -4.775       62.868       32.289       29.101     3952.374     1042.574      846.897        0.735        0.292       94.022       29.607        0.099      333.446        2.765      871.437
01/22/2015  19:15:00     -123.824      -31.697       -9.720       48.534       32.073       25.126     2355.541     1028.675      631.311        1.022        0.201      127.816       25.194        0.039      333.500        2.853      871.434
01/22/2015  19:16:00     -138.428       -6.733      -19.753       32.145       40.936       17.607     1033.284     1675.794      310.014        1.131        0.151      138.592       13.619        0.010      333.562        2.958      871.436
01/22/2015  19:17:00     -112.924      -14.361      -19.602       48.824       30.663       21.667     2383.772      940.240      469.447        0.857        0.190      113.833       20.883        0.034      333.552        2.943      871.423
01/22/2015  19:18:00     -135.033      -18.012      -20.071       35.539       38.253       24.995     1263.023     1463.277      624.751        1.116        0.168      136.229       15.123        0.012      333.579        2.986      871.417
01/22/2015  19:19:00     -135.538      -15.123      -17.451       43.124       44.885       22.020     1859.641     2014.631      484.871        1.163        0.218      136.379       22.764        0.028      333.543        2.927      871.429
01/22/2015  19:20:00     -154.561      -11.168      -16.322       50.674       42.392       26.137     2567.847     1797.049      683.126        1.466        0.252      154.964       23.971        0.024      333.525        2.898      871.424
01/22/2015  19:21:00     -142.979       -4.890      -11.520       35.367       48.591       29.972     1250.822     2361.054      898.316        1.255        0.226      143.062       22.006        0.024      333.554        2.944      871.433
01/22/2015  19:22:00     -133.782       13.274      -12.963       45.240       37.332       28.971     2046.682     1393.665      839.296        1.126        0.214      134.439       25.360        0.036      333.580        2.988      871.446
01/22/2015  19:23:00     -171.404       22.397      -17.346       43.963       48.124       32.832     1932.704     2315.882     1077.908        1.775        0.266      172.861       27.640        0.026      333.611        3.039      871.454
01/22/2015  19:24:00     -162.264      -16.867      -19.410       42.063       44.143       27.165     1769.321     1948.639      737.922        1.572        0.223      163.139       19.784        0.015      333.572        2.974      871.473
01/22/2015  19:25:00     -100.704      -18.083       -8.542       54.115       62.480       34.425     2928.483     3903.690     1185.055        0.928        0.401      102.315       30.790        0.091      333.519        2.886      871.464
01/22/2015  19:26:00     -100.240      -25.160       -3.455       54.850       44.894       26.319     3008.498     2015.516      692.685        0.820        0.286      103.349       21.941        0.045      333.476        2.815      871.463
01/22/2015  19:27:00     -143.271      -30.614      -17.701       34.385       43.989       23.325     1182.301     1935.025      544.049        1.272        0.183      146.505       11.752        0.006      333.478        2.819      871.460
01/22/2015  19:28:00     -177.138      -39.846      -25.585       43.636       63.026       26.253     1904.081     3972.252      689.197        2.009        0.328      181.565       14.865        0.007      333.455        2.779      871.460
01/22/2015  19:29:00     -162.092       -6.812      -17.640       65.538       46.125       34.029     4295.179     2127.511     1157.972        1.710        0.379      162.235       32.208        0.039      333.433        2.742      871.468
01/22/2015  19:30:00     -135.224        9.749      -18.841       66.626       50.764       33.535     4439.068     2576.949     1124.605        1.344        0.407      135.575       31.100        0.053      333.410        2.704      871.465
01/22/2015  19:31:00     -170.339       -3.991      -14.029       56.071       51.314       34.938     3143.991     2633.159     1220.644        1.811        0.350      170.386       37.538        0.049      333.463        2.792      871.457
01/22/2015  19:32:00     -195.069       21.167      -21.938       37.745       59.648       30.395     1424.712     3557.850      923.863        2.244        0.295      196.214       19.165        0.010      333.429        2.736      871.458
01/22/2015  19:33:00     -159.996       28.592      -19.707       44.868       33.688       21.884     2013.135     1134.885      478.922        1.522        0.181      162.531       14.776        0.008      333.357        2.618      871.452
01/22/2015  19:34:00     -130.968        1.066      -20.497       30.569       41.086       21.836      934.450     1688.036      476.812        1.034        0.155      130.972       19.850        0.023      333.372        2.642      871.462
01/22/2015  19:35:00     -139.811       13.867      -21.598       36.804       38.753       23.128     1354.564     1501.767      534.903        1.180        0.170      140.497       18.422        0.017      333.393        2.678      871.472
01/22/2015  19:36:00     -203.230       55.223      -19.599       42.492       35.577       23.702     1805.612     1265.727      561.775        2.418        0.182      210.599       17.610        0.007      333.476        2.812      871.486
01/22/2015  19:37:00     -207.712       66.855      -35.837       37.042       39.659       22.007     1372.078     1572.859      484.292        2.616        0.171      218.206       16.484        0.006      333.470        2.802      871.491
01/22/2015  19:38:00     -154.882       16.140      -22.556       40.298       36.954       27.290     1623.968     1365.601      744.732        1.425        0.187      155.721       19.846        0.016      333.435        2.746      871.498
01/22/2015  19:39:00     -176.035       50.539      -14.356       37.176       28.691       24.833     1382.043      823.198      616.677        1.828        0.141      183.146       18.258        0.010      333.440        2.754      871.520
01/22/2015  19:40:00     -171.316       52.977      -20.396       33.716       30.563       24.774     1136.777      934.110      613.760        1.763        0.134      179.320       11.911        0.004      333.488        2.834      871.523
01/22/2015  19:41:00     -189.711       38.704      -19.630       33.662       37.884       21.704     1133.143     1435.202      471.072        2.046        0.152      193.619       11.117        0.003      333.543        2.925      871.540
01/22/2015  19:42:00     -134.840       27.110      -16.712       35.045       38.229       21.904     1228.143     1461.490      479.769        1.118        0.158      137.538       14.204        0.011      333.572        2.973      871.553
01/22/2015  19:43:00     -148.830       -4.565      -20.435       25.296       37.220       23.609      639.888     1385.294      557.377        1.259        0.129      148.900        8.092        0.003      333.628        3.069      871.564
01/22/2015  19:44:00     -154.280        1.852      -23.349       31.488       37.072       22.586      991.512     1374.345      510.131        1.361        0.144      154.291       13.607        0.008      333.664        3.126      871.578
01/22/2015  19:45:00     -138.924      -41.365      -18.326       35.428       39.471       18.397     1255.122     1557.972      338.436        1.225        0.158      144.952       11.876        0.007      333.550        2.938      871.596
01/22/2015  19:46:00     -136.649      -23.372      -25.353       30.666       28.765       23.047      940.398      827.401      531.180        1.108        0.115      138.634       14.309        0.011      333.568        2.967      871.626
01/22/2015  19:47:00     -148.761      -49.292       -4.956       36.432       34.116       21.641     1327.287     1163.917      468.342        1.377        0.148      156.715       13.604        0.008      333.567        2.966      871.635
01/22/2015  19:48:00     -143.158      -35.776      -14.229       41.212       33.508       23.316     1698.403     1122.783      543.638        1.267        0.168      147.561       19.379        0.017      333.542        2.924      871.637
01/22/2015  19:49:00     -128.961      -33.103      -15.777       39.771       38.560       23.399     1581.763     1486.872      547.527        1.080        0.181      133.142       21.319        0.026      333.558        2.951      871.642
01/22/2015  19:50:00     -149.769      -41.814      -23.593       25.996       26.453       17.906      675.802      699.776      320.637        1.322        0.085      155.497       12.153        0.006      333.564        2.963      871.625
01/22/2015  19:51:00     -117.314      -46.016      -18.842       31.426       21.712       17.815      987.562      471.430      317.365        0.901        0.089      126.016       14.198        0.013      333.569        2.971      871.604
01/22/2015  19:52:00     -106.604      -30.635      -13.440       19.372       23.243       13.416      375.281      540.257      179.993        0.679        0.055      110.918       10.058        0.008      333.600        3.022      871.581
01/22/2015  19:53:00      -93.678      -42.253       -7.859       26.765       24.904       17.574      716.388      620.223      308.855        0.613        0.082      102.766       11.844        0.013      333.602        3.024      871.550
01/22/2015  19:54:00      -95.218      -38.475       -6.174       29.768       26.536       17.464      886.140      704.186      304.992        0.624        0.095      102.697       13.685        0.018      333.564        2.961      871.530
01/22/2015  19:55:00      -99.040      -29.797       -2.676       33.678       21.510       13.119     1134.185      462.696      172.102        0.624        0.088      103.425        9.817        0.009      333.561        2.955      871.531
01/22/2015  19:56:00      -85.173      -14.217        2.334       33.898       23.954       20.823     1149.045      573.807      433.581        0.481        0.108       86.351       18.895        0.048      333.557        2.949      871.533
01/22/2015  19:57:00      -72.174      -27.564        7.584       38.869       29.506       18.807     1510.814      870.603      353.708        0.438        0.137       77.259       21.152        0.075      333.565        2.963      871.522
01/22/2015  19:58:00     -116.078      -52.076        0.453       40.721       27.692       21.019     1658.175      766.844      441.808        0.953        0.143      127.225       22.560        0.031      333.643        3.092      871.506
01/22/2015  19:59:00     -155.041      -36.681       -7.287       33.523       38.870       19.964     1123.811     1510.843      398.563        1.423        0.152      159.321       17.508        0.012      333.645        3.095      871.499
01/22/2015  20:00:00     -135.095      -38.720       -0.997       44.400       36.867       25.153     1971.329     1359.178      632.657        1.186        0.198      140.534       24.370        0.030      333.596        3.014      871.495
01/22/2015  20:01:00     -105.983      -72.358        2.088       38.727       29.038       18.932     1499.803      843.227      358.412        0.959        0.135      128.328       13.906        0.012      333.660        3.121      871.478
01/22/2015  20:02:00     -100.884      -50.531        1.262       36.392       33.333       21.739     1324.369     1111.060      472.591        0.782        0.145      112.832       20.617        0.033      333.593        3.009      871.464
01/22/2015  20:03:00     -148.735      -36.167       -9.238       35.895       21.573       17.890     1288.446      465.390      320.040        1.279        0.104      153.069       16.965        0.012      333.589        3.001      871.468
01/22/2015  20:04:00     -134.752      -32.869       -7.304       38.793       28.550       20.407     1504.933      815.094      416.440        1.101        0.137      138.703       19.995        0.021      333.515        2.880      871.492
01/22/2015  20:05:00     -132.115      -43.646       -3.117       28.130       37.008       21.147      791.307     1369.558      447.198        1.099        0.130      139.138       11.447        0.007      333.479        2.819      871.523
01/22/2015  20:06:00     -110.532      -36.102       -5.177       37.794       25.989       18.627     1428.381      675.418      346.947        0.800        0.123      116.279       19.972        0.029      333.433        2.744      871.549
01/22/2015  20:07:00     -101.897      -45.194       -6.485       26.990       28.960       18.512      728.485      838.675      342.702        0.719        0.095      111.470       12.941        0.013      333.425        2.729      871.549
01/22/2015  20:08:00      -83.325      -49.551       -2.621       41.257       26.939       22.643     1702.154      725.688      512.725        0.617        0.147       96.946       13.850        0.020      333.378        2.651      871.545
01/22/2015  20:09:00     -127.631      -51.569       -1.935       41.509       27.731       21.973     1722.993      769.012      482.807        1.096        0.149      137.655       20.722        0.023      333.395        2.680      871.541
01/22/2015  20:10:00     -155.151      -52.147       -7.090       28.003       27.160       23.254      784.194      737.650      540.767        1.445        0.103      163.680       17.623        0.012      333.450        2.771      871.546
01/22/2015  20:11:00     -126.881      -57.666        5.937       42.015       30.580       24.527     1765.232      935.157      601.578        1.138        0.165      139.371       25.861        0.034      333.409        2.706      871.572
01/22/2015  20:12:00     -138.826      -30.968       -3.490       32.672       35.424       23.017     1067.437     1254.868      529.773        1.155        0.143      142.238       17.405        0.015      333.385        2.664      871.587
01/22/2015  20:13:00     -141.589      -52.919       -8.031       33.156       24.366       16.301     1099.315      593.681      265.727        1.244        0.098      151.155       18.194        0.014      333.424        2.727      871.584
01/22/2015  20:14:00      -94.573      -50.748        0.244       58.013       26.829       19.500     3365.488      719.803      380.264        0.799        0.223      107.329       24.312        0.051      333.410        2.707      871.567
01/22/2015  20:15:00      -80.439      -45.181        0.493       37.257       22.997       20.053     1388.103      528.880      402.132        0.542        0.116       92.259       15.796        0.029      333.442        2.759      871.533
01/22/2015  20:16:00      -26.501      -30.309        6.808       31.278       21.917       15.457      978.333      480.355      238.913        0.168        0.085       40.261       11.891        0.087      333.452        2.775      871.499
01/22/2015  20:17:00      -17.927      -19.518        7.362       28.721       21.647       17.421      824.887      468.604      303.497        0.118        0.080       26.502       18.439        0.484      333.422        2.726      871.474
01/22/2015  20:18:00      -40.180      -28.125       -0.983       22.260       18.533       15.976      495.511      343.475      255.231        0.175        0.055       49.045       13.372        0.074      333.446        2.764      871.470
01/22/2015  20:19:00      -49.661      -36.429       -5.440       21.775       20.107       13.249      474.137      404.277      175.535        0.244        0.053       61.590        7.463        0.015      333.448        2.768      871.484
01/22/2015  20:20:00      -57.202      -33.220       -0.078       24.606       12.067       10.033      605.475      145.605      100.668        0.261        0.043       66.149       10.307        0.024      333.444        2.763      871.500
01/22/2015  20:21:00      -83.181      -27.484       -9.051       15.135       13.204        9.690      229.060      174.350       93.887        0.413        0.025       87.604        7.244        0.007      333.417        2.714      871.517
01/22/2015  20:22:00     -101.042       -7.885      -13.973       31.768       15.381       11.986     1009.187      236.565      143.661        0.593        0.069      101.349       14.129        0.019      333.348        2.605      871.519
01/22/2015  20:23:00     -141.877      -39.115      -12.150       16.243       15.051       12.009      263.845      226.528      144.220        1.122        0.032      147.170        6.405        0.002      333.333        2.581      871.511
01/22/2015  20:24:00     -129.678      -39.197      -16.305       15.794       15.631       10.234      249.446      244.315      104.725        0.961        0.030      135.473        7.849        0.003      333.309        2.539      871.513
01/22/2015  20:25:00      -92.494      -39.837       -7.325       20.357       24.613       15.655      414.406      605.777      245.064        0.573        0.063      100.708        4.359        0.002      333.250        2.440      871.535
01/22/2015  20:26:00     -103.558      -21.755       -6.950       23.727       22.521       14.421      562.993      507.187      207.958        0.626        0.064      105.819        6.822        0.004      333.193        2.346      871.559
01/22/2015  20:27:00      -32.210      -24.916       -8.717       41.842       27.825       15.634     1750.769      774.216      244.425        0.225        0.138       40.722       16.598        0.166      333.255        2.449      871.605
01/22/2015  20:28:00       -9.762      -32.493       -3.111       13.163       19.510        9.453      173.256      380.657       89.359        0.090        0.032       33.928        6.628        0.038      333.168        2.304      871.639
01/22/2015  20:29:00       17.072       21.196        4.641       14.686       18.975       10.842      215.670      360.066      117.546        0.073        0.035       27.217        8.923        0.107      333.212        2.378      871.660
01/22/2015  20:30:00       12.456       21.094       24.736       21.440       24.125       22.019      459.673      582.036      484.850        0.137        0.076       24.497       17.708        0.523      333.267        2.469      871.666
01/22/2015  20:31:00       20.188       17.460        6.292       18.698       19.992       17.701      349.616      399.666      313.308        0.091        0.053       26.691       16.222        0.369      333.137        2.255      871.657
01/22/2015  20:32:00        6.420       -9.018        4.178        7.191        8.695        8.041       51.711       75.597       64.652        0.017        0.010       11.070        4.819        0.190      333.211        2.377      871.639
01/22/2015  20:33:00      -35.623      -14.855      -11.638       18.810       10.416       12.454      353.811      108.498      155.111        0.112        0.031       38.596       12.987        0.113      333.277        2.486      871.628
01/22/2015  20:34:00      -21.724      -18.331        1.480       27.162       14.092       12.667      737.792      198.580      160.462        0.095        0.055       28.425       13.871        0.238      333.260        2.459      871.624
01/22/2015  20:35:00      -50.195      -38.847        9.840       36.439       28.477       19.349     1327.806      810.936      374.377        0.332        0.126       63.471       19.502        0.094      333.202        2.362      871.617
01/22/2015  20:36:00      -68.769      -48.855        1.579       36.083       25.673       19.928     1302.005      659.125      397.133        0.474        0.118       84.356       14.219        0.028      333.252        2.444      871.602
01/22/2015  20:37:00      -32.376      -11.793        0.456       34.557       27.082       21.303     1194.213      733.438      453.833        0.178        0.119       34.457       18.910        0.301      333.268        2.472      871.577
01/22/2015  20:38:00      -26.581        6.502        7.841       19.599       26.006       15.394      384.104      676.298      236.989        0.105        0.065       27.365        6.322        0.053      333.291        2.509      871.551
01/22/2015  20:39:00       -2.826       15.400       -3.150       23.116       11.771       16.149      534.372      138.557      260.793        0.059        0.047       15.657       14.790        0.892      333.369        2.639      871.552
01/22/2015  20:40:00       -8.365        1.973        3.785       17.021        7.986        8.957      289.716       63.771       80.230        0.026        0.022        8.595        4.278        0.248      333.367        2.636      871.569
01/22/2015  20:41:00      -61.784      -40.267        1.415       35.086       19.103       12.716     1231.027      364.911      161.690        0.360        0.088       73.748       14.131        0.037      333.400        2.689      871.609
01/22/2015  20:42:00      -88.473      -48.465       -3.816       20.911       16.856       15.347      437.276      284.122      235.534        0.557        0.048      100.878        4.581        0.002      333.413        2.710      871.658
01/22/2015  20:43:00      -17.270      -21.445        4.159       30.430       25.141       15.378      926.005      632.087      236.471        0.128        0.090       27.534        9.851        0.128      333.373        2.645      871.721
01/22/2015  20:44:00       -9.738      -17.375      -10.972       12.680       13.964        8.383      160.771      195.002       70.268        0.047        0.021       19.918        6.668        0.112      333.354        2.614      871.782
01/22/2015  20:45:00       -9.719        3.244       -1.533        7.679        5.324        6.402       58.963       28.349       40.992        0.012        0.006       10.246        3.693        0.130      333.302        2.528      871.834
01/22/2015  20:46:00      -20.829        0.805       -5.620        6.649        4.383        4.472       44.208       19.209       20.001        0.027        0.004       20.845        2.817        0.018      333.380        2.658      871.878
01/22/2015  20:47:00       -0.656       14.696        5.126        9.549       13.687        9.398       91.180      187.328       88.324        0.030        0.018       14.711        9.331        0.402      333.355        2.616      871.907
01/22/2015  20:48:00       -8.483       79.000       -9.431       10.662       16.383       10.060      113.675      268.396      101.211        0.344        0.024       79.454        5.209        0.004      333.183        2.329      871.920
01/22/2015  20:49:00      -48.148       39.607       -5.234       21.802       20.820        9.377      475.348      433.482       87.922        0.246        0.050       62.345       10.267        0.027      333.224        2.397      871.909
01/22/2015  20:50:00      -55.459       22.215       -7.172       10.808       11.835        8.947      116.823      140.075       80.049        0.198        0.017       59.743        5.843        0.010      333.088        2.175      871.886
01/22/2015  20:51:00      -60.803       17.480       -6.708       12.359        9.771        8.137      152.745       95.469       66.217        0.218        0.016       63.266        6.792        0.012      333.095        2.184      871.885
01/22/2015  20:52:00      -54.346       33.496       -4.189       11.138       12.279        7.844      124.052      150.763       61.531        0.221        0.017       63.839        7.775        0.015      333.079        2.159      871.907
01/22/2015  20:53:00      -51.472       48.364       -9.805        8.767        9.403        5.892       76.867       88.414       34.716        0.264        0.010       70.629        4.379        0.004      333.216        2.385      871.926
01/22/2015  20:54:00      -46.731       38.580       -7.817       15.454       16.115       11.202      238.833      259.709      125.481        0.218        0.031       60.599        7.309        0.015      333.306        2.533      871.926
01/22/2015  20:55:00      -25.954       60.679       -5.176       17.695       21.946       10.096      313.098      481.630      101.921        0.264        0.045       65.997        9.318        0.020      333.377        2.652      871.924
01/22/2015  20:56:00       -5.512      102.789      -14.204       13.659       31.786        7.656      186.562     1010.323       58.616        0.603        0.063      102.937       11.759        0.013      333.245        2.433      871.927
01/22/2015  20:57:00      -21.456      112.818      -15.091       11.535       12.859        9.630      133.051      165.364       92.746        0.690        0.020      114.840        6.595        0.003      333.394        2.678      871.927
01/22/2015  20:58:00      -14.115      115.135      -17.175       13.118       13.122        8.264      172.091      172.194       68.292        0.708        0.021      115.997        3.044        0.001      333.479        2.821      871.920
01/22/2015  20:59:00      -22.440       71.898       -9.977       23.994       26.684       15.572      575.722      712.028      242.500        0.365        0.077       75.318       14.510        0.037      333.464        2.795      871.919
01/22/2015  21:00:00      -19.700       85.194       -8.874       15.863       27.170       13.510      251.627      738.213      182.528        0.445        0.059       87.442        7.935        0.008      333.487        2.834      871.938
01/22/2015  21:01:00      -40.532       21.141       -7.865       21.833       18.991        9.627      476.680      360.658       92.683        0.154        0.047       45.714        8.776        0.037      333.212        2.380      871.969
01/22/2015  21:02:00      -33.185       22.428       -4.634       16.009       21.481       13.261      256.288      461.417      175.857        0.126        0.045       40.053       10.347        0.067      333.274        2.480      871.983
01/22/2015  21:03:00      -22.806      -11.945       -1.915        8.925       13.789        9.848       79.647      190.125       96.993        0.052        0.018       25.745        7.273        0.080      333.131        2.246      871.978
01/22/2015  21:04:00       14.153        8.787       -2.257       15.474       20.233       12.237      239.459      409.367      149.753        0.054        0.040       16.659        8.209        0.243      333.330        2.573      871.956
01/22/2015  21:05:00        4.284       14.487        1.392       13.799       13.489        7.672      190.417      181.943       58.860        0.033        0.022       15.107        6.934        0.211      333.430        2.739      871.935
01/22/2015  21:06:00        7.629        1.471        4.683       10.156        5.980        7.941      103.154       35.759       63.060        0.014        0.010        7.770        6.382        0.675      333.327        2.569      871.926
01/22/2015  21:07:00      -16.787       -6.928        2.412       18.359        7.780        6.832      337.046       60.524       46.676        0.039        0.022       18.160        5.885        0.105      333.287        2.502      871.918
01/22/2015  21:08:00      -54.522      -22.678      -10.211        8.373        6.127        6.085       70.104       37.538       37.024        0.187        0.007       59.050        3.588        0.004      332.914        1.888      871.919
01/22/2015  21:09:00      -86.413      -16.942      -11.560       15.328       10.151        8.319      234.941      103.051       69.204        0.415        0.020       88.058        6.202        0.005      332.849        1.780      871.927
01/22/2015  21:10:00      -94.006      -13.731       -9.519       19.512       15.506       11.162      380.718      240.451      124.585        0.493        0.037       95.004        9.555        0.010      332.911        1.882      871.932
01/22/2015  21:11:00     -106.678      -17.509      -13.255       10.453       14.108        8.906      109.260      199.039       79.308        0.612        0.019      108.105        3.327        0.001      332.981        1.998      871.954
01/22/2015  21:12:00      -91.814      -29.619      -10.095       14.426       12.081        8.081      208.121      145.941       65.305        0.491        0.021       96.473        6.240        0.004      333.035        2.085      871.995
01/22/2015  21:13:00      -90.252      -19.786      -10.058        9.846        9.622        7.647       96.951       92.590       58.479        0.444        0.012       92.395        4.417        0.002      333.088        2.173      872.019
01/22/2015  21:14:00      -76.665      -10.591       -7.208       13.502        8.907       11.282      182.293       79.338      127.282        0.322        0.019       77.393        9.790        0.016      333.140        2.260      872.026
01/22/2015  21:15:00      -55.578       -0.082       -7.481       18.094       20.252        9.198      327.377      410.137       84.606        0.198        0.041       55.578        7.226        0.017      333.062        2.130      872.024
01/22/2015  21:16:00      -58.953        0.421       -6.204       17.962       12.266        7.302      322.643      150.458       53.325        0.202        0.026       58.954        5.084        0.007      333.015        2.055      872.028
01/22/2015  21:17:00      -67.569      -17.527      -12.016       10.114       10.626        9.703      102.283      112.922       94.153        0.266        0.015       69.805        4.912        0.005      332.979        1.993      872.053
01/22/2015  21:18:00      -58.346      -35.041      -15.428       12.707       16.312        8.565      161.474      266.085       73.367        0.269        0.025       68.060        7.666        0.013      332.903        1.869      872.096
01/22/2015  21:19:00      -83.303       -8.073      -12.262       13.933       22.058       14.945      194.116      486.538      223.347        0.403        0.045       83.693        6.844        0.007      332.889        1.848      872.130
01/22/2015  21:20:00      -90.601      -11.993      -12.531       13.674       15.817       10.431      186.982      250.173      108.800        0.453        0.027       91.392        5.458        0.004      332.907        1.875      872.144
01/22/2015  21:21:00      -67.937       -2.564      -11.740       19.603       11.717       10.775      384.287      137.290      116.098        0.270        0.032       67.986       10.847        0.025      332.793        1.686      872.156
01/22/2015  21:22:00      -80.586       -7.130      -11.371       16.987       13.081       13.253      288.553      171.106      175.629        0.365        0.032       80.901       10.985        0.018      332.856        1.792      872.158
01/22/2015  21:23:00     -113.287      -23.365      -16.288       14.179       11.360        9.677      201.056      129.059       93.654        0.703        0.021      115.671        3.609        0.001      332.749        1.615      872.167
01/22/2015  21:24:00      -94.761      -44.924      -13.818       13.646       17.450        8.933      186.206      304.491       79.807        0.588        0.029      104.871        6.462        0.004      332.736        1.593      872.176
01/22/2015  21:25:00      -88.696      -41.028       -6.914       22.299       21.592       13.002      497.259      466.229      169.045        0.537        0.057       97.725        9.757        0.010      332.704        1.539      872.186
01/22/2015  21:26:00     -111.488      -25.777       -9.672       18.961       23.877       15.719      359.537      570.111      247.101        0.718        0.059      114.429       12.780        0.012      332.851        1.785      872.191
01/22/2015  21:27:00      -78.006      -18.759       -3.142       18.848       12.551       12.322      355.251      157.533      151.841        0.356        0.033       80.230       10.896        0.018      332.803        1.705      872.178
01/22/2015  21:28:00      -78.339      -24.777       -7.411       11.345       13.611       11.724      128.715      185.268      137.463        0.363        0.023       82.164        6.984        0.007      332.811        1.717      872.176
01/22/2015  21:29:00      -88.261      -37.323       -2.765       11.742       15.171        7.633      137.872      230.145       58.264        0.481        0.021       95.828        3.812        0.002      332.892        1.852      872.187
01/22/2015  21:30:00      -87.498      -50.850        0.531       27.156       18.034       18.833      737.424      325.228      354.675        0.583        0.071      101.201       17.697        0.031      332.824        1.738      872.195
01/22/2015  21:31:00      -60.144      -48.504       -0.214       30.956       21.992       16.102      958.267      483.646      259.275        0.384        0.085       77.265       14.612        0.036      332.784        1.672      872.211
01/22/2015  21:32:00      -81.240      -51.860        2.588       31.053       26.728       19.067      964.296      714.366      363.558        0.567        0.102       96.381       15.227        0.025      332.701        1.536      872.188
01/22/2015  21:33:00      -78.339      -47.389        0.753       39.670       24.347       19.682     1573.744      592.786      387.369        0.547        0.128       91.558       21.902        0.057      332.661        1.469      872.167
01/22/2015  21:34:00     -100.121      -49.596        1.265       33.308       23.791       14.183     1109.412      566.013      201.172        0.718        0.094      111.732       15.261        0.019      332.641        1.436      872.151
01/22/2015  21:35:00     -107.780      -54.154       -2.631       25.039       25.061       18.615      626.971      628.072      346.517        0.808        0.080      120.620       16.580        0.019      332.568        1.315      872.161
01/22/2015  21:36:00     -132.349      -25.306       -7.993       24.613       22.057       17.176      605.819      486.524      295.031        0.980        0.069      134.747       12.928        0.009      332.531        1.253      872.176
01/22/2015  21:37:00     -112.849      -22.527       -0.618       30.419       21.672       17.720      925.299      469.683      313.998        0.748        0.085      115.076       15.751        0.019      332.439        1.102      872.197
01/22/2015  21:38:00     -142.789      -20.936      -11.752       35.329       23.701       22.807     1248.115      561.727      520.146        1.165        0.116      144.316       23.345        0.026      332.459        1.135      872.225
01/22/2015  21:39:00     -137.580      -31.213       -4.459       45.339       30.737       22.877     2055.648      944.753      523.348        1.172        0.176      141.076       22.138        0.025      332.437        1.098      872.250
01/22/2015  21:40:00     -133.563      -76.469       -6.589       30.196       31.933       19.827      911.808     1019.701      393.091        1.303        0.116      153.905       12.864        0.007      332.525        1.242      872.280
01/22/2015  21:41:00     -118.752      -66.596       -7.979       33.361       31.534       21.645     1112.964      994.383      468.505        1.059        0.129      136.151        8.937        0.004      332.506        1.211      872.307
01/22/2015  21:42:00     -140.621      -29.258      -17.925       23.775       20.759       16.454      565.235      430.923      270.724        1.111        0.063      143.633       12.998        0.008      332.310        0.889      872.335
01/22/2015  21:43:00     -126.819      -31.895       -7.119       39.432       27.610       20.960     1554.917      762.307      439.311        0.995        0.138      130.768       19.719        0.023      332.308        0.887      872.368
01/22/2015  21:44:00     -134.853      -12.076       -5.757       42.934       30.033       27.361     1843.364      902.011      748.606        1.093        0.175      135.393       24.779        0.033      332.302        0.877      872.398
01/22/2015  21:45:00     -141.699      -11.300       -3.429       48.037       37.048       33.834     2307.567     1372.520     1144.772        1.252        0.241      142.148       30.360        0.046      332.267        0.819      872.413
01/22/2015  21:46:00     -129.052      -25.699       -5.713       64.914       54.696       28.609     4213.883     2991.637      818.465        1.268        0.401      131.586       29.919        0.052      332.223        0.746      872.409
01/22/2015  21:47:00     -117.045      -46.668      -13.993       70.538       40.702       30.871     4975.641     1656.690      953.035        1.183        0.379      126.006       13.314        0.011      332.218        0.738      872.397
01/22/2015  21:48:00     -126.889      -71.497       -9.020       43.745       36.414       26.645     1913.647     1325.962      709.954        1.262        0.197      145.645       20.772        0.020      332.229        0.756      872.394
01/22/2015  21:49:00     -137.174      -24.801       -3.642       46.691       42.180       29.711     2180.072     1779.166      882.758        1.214        0.242      139.398       23.916        0.029      332.255        0.799      872.411
01/22/2015  21:50:00     -152.291      -20.297      -17.281       38.656       34.505       18.901     1494.249     1190.568      357.230        1.347        0.152      153.637       16.449        0.011      332.265        0.817      872.431
01/22/2015  21:51:00     -134.005      -50.599      -10.922       28.558       26.923       15.746      815.547      724.857      247.932        1.121        0.089      143.240       10.655        0.006      332.273        0.831      872.415
01/22/2015  21:52:00     -111.407      -36.115       -2.056       28.036       27.072       16.786      786.010      732.888      281.776        0.776        0.090      117.114       13.627        0.014      332.289        0.855      872.413
01/22/2015  21:53:00     -138.344      -12.574      -10.187       49.567       33.612       22.079     2456.848     1129.789      487.478        1.174        0.204      138.915       22.068        0.025      332.383        1.008      872.426
01/22/2015  21:54:00     -179.911       43.955      -16.132       28.118       26.002       18.603      790.619      676.103      346.068        1.819        0.091      185.203       14.823        0.006      332.371        0.990      872.444
01/22/2015  21:55:00     -180.886       18.906      -17.473       26.791       31.301       17.531      717.774      979.751      307.350        1.769        0.100      181.872       12.741        0.005      332.433        1.094      872.449
01/22/2015  21:56:00     -127.590      -11.856      -11.954       36.205       30.399       17.452     1310.837      924.126      304.582        0.955        0.127      128.140       19.081        0.022      332.354        0.961      872.440
01/22/2015  21:57:00     -122.879      -32.606       -8.947       28.804       23.492       20.831      829.668      551.895      433.917        0.903        0.091      127.131       19.441        0.023      332.362        0.975      872.441
01/22/2015  21:58:00      -89.558      -23.650       -0.272       37.654       27.266       23.118     1417.791      743.420      534.419        0.564        0.135       92.628       20.101        0.047      332.411        1.055      872.432
01/22/2015  21:59:00     -128.493      -31.267       -9.181       23.009       26.448       15.404      529.419      699.512      237.279        0.952        0.073      132.242       12.879        0.009      332.363        0.978      872.425
01/22/2015  22:00:00     -121.115      -41.989       -2.208       30.026       24.782       19.812      901.561      614.162      392.515        0.917        0.095      128.187       16.611        0.017      332.400        1.037      872.429
01/22/2015  22:01:00     -113.455      -28.632       -2.459       34.172       22.814       21.125     1167.714      520.488      446.245        0.792        0.107      117.013       20.728        0.031      332.407        1.050      872.435
01/22/2015  22:02:00     -140.202      -12.376      -11.710       35.356       24.256       20.902     1250.020      588.361      436.913        1.111        0.114      140.747       21.072        0.022      332.393        1.025      872.454
01/22/2015  22:03:00     -151.587        4.674      -15.791       50.833       33.344       19.383     2584.019     1111.848      375.714        1.366        0.204      151.659       18.220        0.014      332.485        1.177      872.483
01/22/2015  22:04:00     -158.984       -9.475      -17.034       50.758       36.096       22.673     2576.424     1302.919      514.057        1.502        0.220      159.266       25.384        0.025      332.480        1.171      872.510
01/22/2015  22:05:00     -186.643       -1.074      -21.048       66.333       34.061       22.586     4400.003     1160.154      510.118        2.067        0.304      186.646       24.568        0.017      332.525        1.243      872.535
01/22/2015  22:06:00     -157.637      -49.790      -23.916       47.726       42.509       24.593     2277.767     1807.052      604.817        1.629        0.234      165.313       26.761        0.026      332.431        1.089      872.544
01/22/2015  22:07:00      -64.267      -14.920       -2.150       41.247       38.335       26.237     1701.352     1469.609      688.362        0.411        0.193       65.976       22.427        0.116      332.445        1.111      872.526
01/22/2015  22:08:00     -144.850       -6.900      -15.072       46.140       40.296       23.852     2128.908     1623.762      568.898        1.279        0.216      145.014       19.922        0.019      332.482        1.173      872.510
01/22/2015  22:09:00     -161.691      -17.208      -15.085       33.843       22.081       19.213     1145.371      487.555      369.148        1.433        0.100      162.604       17.329        0.011      332.534        1.259      872.491
01/22/2015  22:10:00     -145.746      -18.936      -17.285       33.761       29.097       22.442     1139.781      846.639      503.663        1.219        0.125      146.971       18.271        0.015      332.529        1.252      872.475
01/22/2015  22:11:00     -158.794       -8.188      -15.515       37.291       29.475       23.682     1390.638      868.787      560.851        1.417        0.141      159.005       19.897        0.016      332.559        1.299      872.478
01/22/2015  22:12:00     -119.895      -39.321       -5.325       46.717       29.266       25.154     2182.443      856.522      632.741        0.981        0.184      126.178       24.454        0.038      332.564        1.308      872.512
01/22/2015  22:13:00     -149.718       -1.272      -14.659       36.355       34.555       19.296     1321.674     1194.029      372.319        1.276        0.144      149.723       12.986        0.008      332.580        1.335      872.541
01/22/2015  22:14:00     -199.178       36.385      -18.039       29.755       26.682       18.863      885.331      711.942      355.803        2.164        0.098      202.474       11.298        0.003      332.661        1.467      872.552
01/22/2015  22:15:00     -200.185       43.193      -13.870       39.450       36.776       23.789     1556.341     1352.454      565.917        2.280        0.174      204.792       12.010        0.003      332.606        1.375      872.535
01/22/2015  22:16:00     -203.535       59.687      -14.442       33.010       29.621       22.752     1089.650      877.408      517.654        2.384        0.124      212.106       13.837        0.004      332.459        1.135      872.544
01/22/2015  22:17:00     -172.017       14.423      -15.478       47.395       31.172       21.035     2246.265      971.673      442.486        1.685        0.183      172.621       20.879        0.015      332.461        1.137      872.570
01/22/2015  22:18:00     -127.754        5.507      -17.944       47.407       32.310       18.738     2247.428     1043.907      351.117        1.016        0.182      127.872       19.998        0.024      332.413        1.058      872.606
01/22/2015  22:19:00     -119.096       -3.728       -6.615       35.227       34.946       18.576     1240.940     1221.231      345.079        0.852        0.140      119.154       17.797        0.022      332.425        1.081      872.639
01/22/2015  22:20:00      -61.146      -17.731        0.712       36.235       33.002       18.213     1313.005     1089.110      331.703        0.339        0.137       63.665       15.681        0.061      332.387        1.015      872.668
01/22/2015  22:21:00      -97.210      -32.047       -2.361       17.725       19.788       12.185      314.162      391.575      148.477        0.567        0.043      102.357        7.918        0.006      332.409        1.053      872.681
01/22/2015  22:22:00     -128.354      -52.471       -8.872       22.726       27.602       13.427      516.492      761.872      180.275        1.038        0.073      138.665        9.941        0.005      332.503        1.208      872.686
01/22/2015  22:23:00     -134.518      -33.944       -4.773       25.818       16.377       17.140      666.555      268.220      293.774        1.025        0.061      138.734       17.421        0.016      332.453        1.124      872.695
01/22/2015  22:24:00     -114.403      -49.571       -0.135       33.385       23.774       17.409     1114.548      565.213      303.064        0.876        0.099      124.681       13.735        0.012      332.442        1.106      872.707
01/22/2015  22:25:00     -107.178      -55.035        2.615       34.690       30.196       22.069     1203.378      911.794      487.038        0.856        0.130      120.482       21.238        0.031      332.447        1.116      872.695
01/22/2015  22:26:00      -69.014      -39.501        5.082       42.235       35.648       20.994     1783.832     1270.748      440.741        0.492        0.175       79.519       22.911        0.083      332.532        1.255      872.680
01/22/2015  22:27:00      -40.731      -38.258       10.225       38.042       24.224       23.811     1447.163      586.792      566.953        0.291        0.130       55.881       16.828        0.091      332.512        1.221      872.669
01/22/2015  22:28:00      -70.394      -53.667        4.037       35.864       31.396       19.063     1286.205      985.685      363.412        0.524        0.132       88.518       18.649        0.044      332.375        0.997      872.678
01/22/2015  22:29:00     -104.034      -69.576       -1.590       34.796       30.845       23.062     1210.782      951.396      531.844        0.918        0.135      125.155       19.623        0.025      332.371        0.991      872.682
01/22/2015  22:30:00     -109.402      -39.640      -18.957       18.374       18.375       14.299      337.611      337.623      204.459        0.739        0.044      116.362        4.669        0.002      332.377        1.000      872.690
01/22/2015  22:31:00      -97.619      -26.161       -0.110       42.305       25.982       20.404     1789.679      675.056      416.310        0.655        0.144      101.063       20.690        0.042      332.276        0.834      872.706
01/22/2015  22:32:00     -101.665      -51.612       -1.757       41.363       25.524       21.219     1710.939      651.495      450.257        0.791        0.141      114.015       19.428        0.029      332.294        0.862      872.733
01/22/2015  22:33:00     -109.210      -52.068       -5.098       26.376       26.481       15.984      695.717      701.261      255.502        0.816        0.083      120.987        9.643        0.006      332.265        0.816      872.748
01/22/2015  22:34:00      -96.201      -49.765        3.761       35.055       25.545       19.097     1228.840      652.561      364.710        0.700        0.112      108.310       16.115        0.022      332.267        0.819      872.766
01/22/2015  22:35:00      -74.022      -31.916        2.262       36.601       24.123       16.506     1339.668      581.942      272.450        0.435        0.110       80.609       12.442        0.024      332.334        0.928      872.788
01/22/2015  22:36:00      -87.977      -44.055        1.365       31.551       20.822       13.159      995.467      433.553      173.149        0.564        0.080       98.391       11.651        0.014      332.399        1.036      872.790
01/22/2015  22:37:00     -109.049      -39.576       -0.256       20.988       20.135       14.362      440.487      405.426      206.261        0.725        0.053      116.008       11.863        0.010      332.411        1.055      872.744
01/22/2015  22:38:00     -122.896      -23.829      -11.117       14.337       14.794        9.862      205.537      218.873       97.254        0.816        0.026      125.185        5.990        0.002      332.325        0.915      872.697
01/22/2015  22:39:00     -135.971      -19.718       -9.862       21.843       19.128       14.009      477.134      365.889      196.259        1.001        0.052      137.394        8.700        0.004      332.201        0.711      872.667
01/22/2015  22:40:00     -126.587      -52.015        0.350       33.812       20.498       16.347     1143.258      420.164      267.211        1.028        0.092      136.857       16.464        0.014      332.184        0.683      872.656
01/22/2015  22:41:00     -128.020      -31.398      -12.664       14.943       23.891       13.850      223.303      570.783      191.809        0.926        0.049      131.814       10.252        0.006      332.064        0.484      872.639
01/22/2015  22:42:00     -114.183      -36.979        0.274       28.409       20.999       17.955      807.086      440.940      322.399        0.799        0.079      120.022       16.976        0.020      332.028        0.422      872.634
01/22/2015  22:43:00      -85.598      -41.936        2.990       37.095       28.936       21.267     1376.047      837.297      452.279        0.588        0.133       95.318       18.329        0.037      332.155        0.635      872.655
01/22/2015  22:44:00      -97.997      -32.008        7.311       39.676       26.726       18.801     1574.160      714.259      353.485        0.666        0.132      103.092       20.651        0.040      332.221        0.743      872.686
01/22/2015  22:45:00     -105.201      -30.782        2.341       30.622       21.036       17.039      937.702      442.517      290.325        0.685        0.084      109.612       16.509        0.023      332.230        0.757      872.716
01/22/2015  22:46:00      -96.707      -25.055        5.517       31.346       23.196       18.125      982.554      538.076      328.503        0.593        0.092       99.900       16.994        0.029      332.162        0.645      872.736
01/22/2015  22:47:00     -140.078      -45.841        0.278       24.524       26.128       17.059      601.415      682.653      291.003        1.165        0.079      147.388       15.245        0.011      332.215        0.734      872.753
01/22/2015  22:48:00      -82.180      -41.932        2.882       58.973       34.360       22.344     3477.865     1180.586      499.243        0.684        0.258       92.259       24.288        0.069      332.203        0.713      872.765
01/22/2015  22:49:00      -89.756      -59.009        1.986       46.023       32.328       23.997     2118.138     1045.126      575.876        0.764        0.187      107.416       25.225        0.055      332.248        0.788      872.780
01/22/2015  22:50:00      -83.545      -50.784        0.803       48.901       33.793       26.803     2391.262     1141.970      718.382        0.690        0.213       97.769       23.325        0.057      332.260        0.808      872.768
01/22/2015  22:51:00     -142.397      -69.490       -9.298       51.013       24.993       21.359     2602.362      624.632      456.211        1.444        0.184      158.448       25.228        0.025      332.172        0.661      872.747
01/22/2015  22:52:00     -166.708      -82.368      -15.449       36.225       27.907       23.106     1312.242      778.787      533.884        1.872        0.131      185.946       17.858        0.009      332.168        0.654      872.736
01/22/2015  22:53:00     -138.970      -31.102       -4.787       46.481       34.839       24.350     2160.499     1213.757      592.944        1.213        0.198      142.408       26.159        0.034      332.074        0.500      872.745
01/22/2015  22:54:00     -146.418      -50.440       -2.100       48.926       32.426       21.894     2393.793     1051.439      479.335        1.396        0.196      154.862       23.742        0.024      332.028        0.422      872.756
01/22/2015  22:55:00     -132.390      -56.605       -8.865       44.161       39.818       23.208     1950.178     1585.439      538.622        1.244        0.204      143.984       15.378        0.011      332.053        0.467      872.774
01/22/2015  22:56:00     -154.391      -72.629       -4.307       49.415       30.155       23.990     2441.891      909.312      575.519        1.653        0.196      170.621       25.829        0.023      332.009        0.392      872.800
01/22/2015  22:57:00     -145.726      -56.617       -0.005       50.401       43.112       31.921     2540.302     1858.614     1018.944        1.493        0.271      156.338       34.647        0.049      331.992        0.364      872.811
01/22/2015  22:58:00     -110.834      -67.338       -4.951       38.594       31.321       21.406     1489.519      981.018      458.227        0.989        0.146      129.687       14.732        0.013      332.004        0.385      872.801
01/22/2015  22:59:00      -83.425      -63.549       -3.070       45.941       36.596       25.087     2110.582     1339.237      629.364        0.754        0.204      104.872       16.556        0.025      332.052        0.465      872.770
01/22/2015  23:00:00     -108.164      -86.097       -8.730       51.142       37.317       28.716     2615.543     1392.571      824.592        1.201        0.242      138.246       20.069        0.021      332.041        0.446      872.753
01/22/2015  23:01:00     -112.319      -63.329       -0.921       44.160       34.895       20.974     1950.095     1217.637      439.899        1.012        0.180      128.942       22.229        0.030      332.069        0.493      872.758
01/22/2015  23:02:00     -134.730      -61.646       -8.297       27.411       26.965       19.008      751.390      727.097      361.320        1.193        0.092      148.164       16.382        0.012      332.088        0.524      872.791
01/22/2015  23:03:00     -120.325      -53.587       -3.032       41.627       32.346       21.100     1732.812     1046.257      445.210        1.029        0.161      131.718       17.104        0.017      332.054        0.469      872.829
01/22/2015  23:04:00      -99.298      -51.678       -6.687       39.449       30.427       21.076     1556.254      925.831      444.208        0.775        0.146      111.941       20.160        0.032      332.051        0.462      872.863
01/22/2015  23:05:00      -81.133      -41.429       -2.757       29.043       25.158       15.763      843.467      632.947      248.485        0.502        0.086       91.099       14.879        0.027      332.085        0.518      872.880
01/22/2015  23:06:00      -85.336      -50.013       -0.625       28.400       24.321       15.984      806.583      591.534      255.498        0.572        0.083       98.911       13.668        0.019      332.076        0.503      872.886
01/22/2015  23:07:00      -85.077      -41.497       -5.423       18.494       19.805       17.453      342.042      392.241      304.593        0.501        0.052       94.658       11.808        0.016      332.119        0.577      872.894
01/22/2015  23:08:00      -72.858      -37.403       -1.260       22.419       22.355       15.474      502.592      499.731      239.437        0.398        0.062       81.898       13.177        0.026      332.106        0.554      872.915
01/22/2015  23:09:00      -77.621      -52.055       -4.241       23.072       23.273       15.131      532.322      541.622      228.940        0.503        0.065       93.460        8.264        0.008      332.156        0.636      872.935
01/22/2015  23:10:00      -69.878      -36.120        0.577       28.231       24.140       13.583      797.006      582.732      184.506        0.388        0.078       78.661       14.501        0.034      332.111        0.562      872.969
01/22/2015  23:11:00      -86.087      -28.749       -2.782       16.834       16.246       13.154      283.392      263.920      173.028        0.448        0.036       90.761       11.120        0.015      332.141        0.611      872.998
01/22/2015  23:12:00      -52.295      -28.782        2.054       36.351       20.879       16.730     1321.398      435.932      279.891        0.280        0.102       59.693       20.257        0.115      332.148        0.622      873.020
01/22/2015  23:13:00      -73.784      -26.257       -7.422       19.129       11.517       11.188      365.927      132.643      125.174        0.341        0.031       78.317       10.531        0.018      332.191        0.692      873.028
01/22/2015  23:14:00      -65.310      -35.995      -12.601       21.950       11.787        9.253      481.822      138.937       85.609        0.321        0.035       74.573        6.094        0.007      332.177        0.672      873.011
01/22/2015  23:15:00      -72.811      -52.639      -12.401       24.918       18.706       12.386      620.927      349.915      153.412        0.467        0.056       89.846        9.777        0.012      332.130        0.592      872.979
01/22/2015  23:16:00      -89.384      -53.442      -12.867        6.961       10.175        7.250       48.461      103.525       52.563        0.561        0.010      104.142        6.408        0.004      332.098        0.542      872.946
01/22/2015  23:17:00     -106.388      -14.999      -17.481       10.204       12.275        7.305      104.115      150.670       53.364        0.608        0.015      107.440        5.260        0.002      332.134        0.599      872.941
01/22/2015  23:18:00      -84.529      -21.286      -11.641       16.344       10.468        9.628      267.131      109.589       92.706        0.410        0.023       87.168        9.220        0.011      332.181        0.677      872.965
01/22/2015  23:19:00      -30.609       -3.229        2.418       25.834        8.431        8.438      667.414       71.075       71.199        0.088        0.040       30.779        9.642        0.098      332.165        0.652      872.992
01/22/2015  23:20:00       -6.116        0.463       -2.117        6.897        3.489        5.659       47.575       12.174       32.020        0.007        0.005        6.133        3.917        0.408      332.161        0.646      873.012
01/22/2015  23:21:00        9.571       13.939       -0.221        9.356       12.169        7.149       87.540      148.077       51.107        0.029        0.014       16.908        5.627        0.111      332.231        0.760      873.004
01/22/2015  23:22:00        6.545       12.192        8.771       12.709        8.904        7.220      161.511       79.276       52.126        0.028        0.015       13.838        5.412        0.153      332.205        0.715      872.982
01/22/2015  23:23:00       34.603       25.901       21.256       21.257       13.099       12.237      451.881      171.591      149.744        0.155        0.039       43.223       11.250        0.068      332.145        0.618      872.964
01/22/2015  23:24:00       66.923       38.501        2.520       14.311       10.461       14.846      204.805      109.430      220.413        0.325        0.027       77.208        5.925        0.006      332.031        0.430      872.960
01/22/2015  23:25:00       60.686       41.459       -1.410       19.016       16.267       13.086      361.623      264.628      171.238        0.310        0.040       73.496       11.515        0.025      331.928        0.260      872.964
01/22/2015  23:26:00       62.554       30.587       -0.034       14.066       13.594       13.181      197.860      184.786      173.728        0.270        0.028       69.631        6.302        0.008      331.910        0.230      872.979
01/22/2015  23:27:00       54.971       34.891        3.511       12.714       12.667        9.247      161.658      160.450       85.506        0.233        0.020       65.109        4.714        0.005      331.856        0.141      873.003
01/22/2015  23:28:00       46.114       14.338       -1.235       14.097       18.584       10.398      198.722      345.381      108.126        0.149        0.033       48.292        8.435        0.031      331.914        0.236      873.033
01/22/2015  23:29:00       16.321        0.088       -1.401       13.756       12.432       10.330      189.217      154.546      106.717        0.036        0.023       16.321        8.726        0.286      332.035        0.436      873.057
01/22/2015  23:30:00       32.972       27.922       11.494       12.850        8.693        9.015      165.119       75.576       81.264        0.116        0.016       43.207        5.489        0.016      332.083        0.515      873.073
01/22/2015  23:31:00       30.101       26.648        6.257        6.624        9.406        7.646       43.884       88.477       58.466        0.092        0.010       40.202        3.455        0.007      332.115        0.566      873.085
01/22/2015  23:32:00       11.323       23.342       13.860       14.532        9.274       15.651      211.182       86.002      244.968        0.070        0.027       25.943       12.035        0.215      332.082        0.512      873.096
01/22/2015  23:33:00       -2.214       17.499       32.256        8.369       13.614       10.501       70.042      185.348      110.266        0.086        0.018       17.638        7.178        0.166      331.903        0.218      873.103
01/22/2015  23:34:00        2.763       14.436       15.207       11.136       10.855       14.337      124.000      117.831      205.544        0.045        0.022       14.698       10.173        0.479      331.937        0.275      873.100
01/22/2015  23:35:00       -5.759       11.301       18.089        7.205        7.497        7.384       51.909       56.209       54.528        0.033        0.008       12.684        4.871        0.147      331.932        0.265      873.101
01/22/2015  23:36:00        0.733        2.550        6.042        7.533       10.223        5.875       56.751      104.502       34.515        0.012        0.010        2.654        3.580        1.820      331.935        0.271      873.100
01/22/2015  23:37:00       -3.489      -16.948        5.691        8.567        8.057       10.338       73.389       64.923      106.883        0.029        0.012       17.304        4.839        0.078      331.988        0.358      873.085
01/22/2015  23:38:00       39.931       20.877       16.974       21.717       14.284       16.042      471.644      204.026      257.338        0.163        0.047       45.059       10.230        0.052      331.880        0.181      873.052
01/22/2015  23:39:00       35.511       23.074       27.192       21.682       14.224       14.934      470.092      202.321      223.012        0.171        0.045       42.349        9.825        0.054      331.838        0.111      873.026
01/22/2015  23:40:00       44.065       48.320       39.828       27.927       22.022       19.653      779.938      484.981      386.255        0.376        0.083       65.396       12.857        0.039      331.869        0.161      873.008
01/22/2015  23:41:00       23.321       32.419       27.711       25.172       23.947       14.560      633.631      573.458      211.982        0.189        0.071       39.936       12.953        0.105      331.795        0.042      873.005
01/22/2015  23:42:00        7.424        8.449       20.522       14.109       13.431        8.827      199.072      180.394       77.907        0.050        0.023       11.247        6.157        0.300      331.856        0.141      873.011
01/22/2015  23:43:00       -1.482       15.961       22.606        7.558       10.069        5.482       57.121      101.388       30.051        0.048        0.009       16.029        5.108        0.102      331.789        0.029      873.001
01/22/2015  23:44:00       15.894       26.499       21.019       16.938       11.392       11.481      286.898      129.769      131.814        0.097        0.027       30.901        9.413        0.093      331.878        0.176      872.981
01/22/2015  23:45:00        4.082       14.171       20.301        8.053        8.536        3.535       64.854       72.858       12.495        0.039        0.008       14.747        3.258        0.049      331.838        0.109      872.965
01/22/2015  23:46:00        5.106       16.823       13.836       10.304        7.353        8.765      106.179       54.060       76.823        0.037        0.012       17.581        4.261        0.059      331.856        0.141      872.966
01/22/2015  23:47:00        6.770       12.339        7.899       10.420       12.532        8.827      108.584      157.063       77.920        0.030        0.017       14.075        8.658        0.378      331.867        0.161      872.983
01/22/2015  23:48:00       15.830       36.642       -2.280       21.091       12.457       13.393      444.825      155.168      179.360        0.119        0.039       39.915       10.125        0.064      331.780        0.016      873.006
01/22/2015  23:49:00       11.926       15.659        3.263       21.608       15.370       13.002      466.893      236.232      169.062        0.063        0.044       19.683       11.125        0.319      331.801        0.050      873.028
01/22/2015  23:50:00       11.828       21.846       -4.215        9.410       11.600        9.394       88.552      134.563       88.255        0.047        0.016       24.843        7.500        0.091      331.808        0.061      873.026
01/22/2015  23:51:00       -7.838        2.515       -2.368        9.322        5.364        5.874       86.892       28.769       34.504        0.011        0.008        8.231        4.844        0.346      331.838        0.109      873.006
01/22/2015  23:52:00      -37.610        4.028       -6.644       13.656        5.807        7.915      186.493       33.716       62.642        0.088        0.014       37.825        6.594        0.030      331.828        0.094      873.000
01/22/2015  23:53:00      -41.484       -3.057       -7.217       12.328        9.460        7.919      151.975       89.491       62.704        0.104        0.015       41.597        6.910        0.028      331.641       -0.213      873.012
01/22/2015  23:54:00      -43.317        0.402       -8.574        9.154        6.995        6.688       83.787       48.928       44.733        0.106        0.009       43.319        4.430        0.010      331.660       -0.180      873.020
01/22/2015  23:55:00      -49.939      -18.331       -3.645       13.912       13.459        8.250      193.538      181.141       68.065        0.164        0.022       53.197        5.977        0.013      331.698       -0.118      873.012
01/22/2015  23:56:00      -37.629       -0.926       -3.084       13.855        7.421        7.169      191.961       55.076       51.396        0.086        0.015       37.640        6.429        0.029      331.667       -0.170      872.994
01/22/2015  23:57:00      -20.952        2.903       -7.582        6.215        7.198        5.029       38.625       51.805       25.294        0.031        0.006       21.152        3.079        0.021      331.696       -0.122      872.964
01/22/2015  23:58:00      -28.522        4.336       -4.108        4.953        4.261        2.912       24.527       18.153        8.481        0.045        0.003       28.849        2.425        0.007      331.850        0.130      872.924
01/22/2015  23:59:00      -43.735      -14.999       -4.889        5.775       13.852        5.073       33.356      191.874       25.733        0.121        0.013       46.236        2.542        0.003      331.813        0.071      872.892
